<?xml version="1.0" encoding="UTF-8" standalone="no" ?>
<gpx xmlns="http://www.topografix.com/GPX/1/1" xmlns:xsi="http://www.w3.org/2001/XMLSchema-instance" xsi:schemaLocation="http://www.topografix.com/GPX/1/1 http://www.topografix.com/GPX/1/1/gpx.xsd" version="1.1" creator="VisuGPX - https://www.visugpx.com">
  <metadata>
    <name>Dimanche 8 mars 26</name>
  </metadata>
  <trk>
    <name><![CDATA[Espelette-Pinodieta-Dantcharia-Ascain-14367526]]></name>
    <trkseg>
      <trkpt lat="43.38662" lon="-1.66327">
        <ele>4</ele>
        <time>2026-02-28T09:22:25Z</time>
      </trkpt>
      <trkpt lat="43.38651" lon="-1.66328">
        <ele>4</ele>
        <time>2026-02-28T09:22:27Z</time>
      </trkpt>
      <trkpt lat="43.38636" lon="-1.66325">
        <ele>3.9</ele>
        <time>2026-02-28T09:22:30Z</time>
      </trkpt>
      <trkpt lat="43.38617" lon="-1.66317">
        <ele>3.4</ele>
        <time>2026-02-28T09:22:33Z</time>
      </trkpt>
      <trkpt lat="43.386" lon="-1.66303">
        <ele>1</ele>
        <time>2026-02-28T09:22:37Z</time>
      </trkpt>
      <trkpt lat="43.3857" lon="-1.66267">
        <ele>2</ele>
        <time>2026-02-28T09:22:44Z</time>
      </trkpt>
      <trkpt lat="43.38503" lon="-1.66208">
        <ele>4</ele>
        <time>2026-02-28T09:22:58Z</time>
      </trkpt>
      <trkpt lat="43.38496" lon="-1.66199">
        <ele>5</ele>
        <time>2026-02-28T09:23:00Z</time>
      </trkpt>
      <trkpt lat="43.38487" lon="-1.66173">
        <ele>5</ele>
        <time>2026-02-28T09:23:03Z</time>
      </trkpt>
      <trkpt lat="43.38484" lon="-1.66174">
        <ele>5</ele>
        <time>2026-02-28T09:23:04Z</time>
      </trkpt>
      <trkpt lat="43.3848" lon="-1.66172">
        <ele>5</ele>
        <time>2026-02-28T09:23:05Z</time>
      </trkpt>
      <trkpt lat="43.38478" lon="-1.66167">
        <ele>6</ele>
        <time>2026-02-28T09:23:05Z</time>
      </trkpt>
      <trkpt lat="43.38477" lon="-1.66161">
        <ele>5</ele>
        <time>2026-02-28T09:23:06Z</time>
      </trkpt>
      <trkpt lat="43.38479" lon="-1.66155">
        <ele>5</ele>
        <time>2026-02-28T09:23:07Z</time>
      </trkpt>
      <trkpt lat="43.38462" lon="-1.66121">
        <ele>5</ele>
        <time>2026-02-28T09:23:12Z</time>
      </trkpt>
      <trkpt lat="43.38445" lon="-1.66095">
        <ele>5</ele>
        <time>2026-02-28T09:23:17Z</time>
      </trkpt>
      <trkpt lat="43.38347" lon="-1.65961">
        <ele>6</ele>
        <time>2026-02-28T09:23:42Z</time>
      </trkpt>
      <trkpt lat="43.3834" lon="-1.65943">
        <ele>6</ele>
        <time>2026-02-28T09:23:44Z</time>
      </trkpt>
      <trkpt lat="43.38336" lon="-1.65944">
        <ele>6</ele>
        <time>2026-02-28T09:23:45Z</time>
      </trkpt>
      <trkpt lat="43.3833" lon="-1.65941">
        <ele>6</ele>
        <time>2026-02-28T09:23:46Z</time>
      </trkpt>
      <trkpt lat="43.38328" lon="-1.65932">
        <ele>6</ele>
        <time>2026-02-28T09:23:47Z</time>
      </trkpt>
      <trkpt lat="43.3833" lon="-1.65928">
        <ele>6</ele>
        <time>2026-02-28T09:23:48Z</time>
      </trkpt>
      <trkpt lat="43.38324" lon="-1.65923">
        <ele>6</ele>
        <time>2026-02-28T09:23:49Z</time>
      </trkpt>
      <trkpt lat="43.38309" lon="-1.65902">
        <ele>5</ele>
        <time>2026-02-28T09:23:53Z</time>
      </trkpt>
      <trkpt lat="43.38298" lon="-1.65877">
        <ele>4</ele>
        <time>2026-02-28T09:23:57Z</time>
      </trkpt>
      <trkpt lat="43.38234" lon="-1.65703">
        <ele>4</ele>
        <time>2026-02-28T09:24:22Z</time>
      </trkpt>
      <trkpt lat="43.38233" lon="-1.65687">
        <ele>4</ele>
        <time>2026-02-28T09:24:24Z</time>
      </trkpt>
      <trkpt lat="43.38236" lon="-1.65679">
        <ele>4</ele>
        <time>2026-02-28T09:24:25Z</time>
      </trkpt>
      <trkpt lat="43.38296" lon="-1.65596">
        <ele>3</ele>
        <time>2026-02-28T09:24:40Z</time>
      </trkpt>
      <trkpt lat="43.38293" lon="-1.65591">
        <ele>3</ele>
        <time>2026-02-28T09:24:41Z</time>
      </trkpt>
      <trkpt lat="43.38342" lon="-1.65523">
        <ele>4</ele>
        <time>2026-02-28T09:24:54Z</time>
      </trkpt>
      <trkpt lat="43.38343" lon="-1.65515">
        <ele>4</ele>
        <time>2026-02-28T09:24:55Z</time>
      </trkpt>
      <trkpt lat="43.38342" lon="-1.65509">
        <ele>4</ele>
        <time>2026-02-28T09:24:55Z</time>
      </trkpt>
      <trkpt lat="43.38337" lon="-1.655">
        <ele>4</ele>
        <time>2026-02-28T09:24:57Z</time>
      </trkpt>
      <trkpt lat="43.38318" lon="-1.65475">
        <ele>4</ele>
        <time>2026-02-28T09:25:02Z</time>
      </trkpt>
      <trkpt lat="43.38317" lon="-1.65467">
        <ele>4</ele>
        <time>2026-02-28T09:25:03Z</time>
      </trkpt>
      <trkpt lat="43.3832" lon="-1.65459">
        <ele>4</ele>
        <time>2026-02-28T09:25:04Z</time>
      </trkpt>
      <trkpt lat="43.38326" lon="-1.65462">
        <ele>4</ele>
        <time>2026-02-28T09:25:05Z</time>
      </trkpt>
      <trkpt lat="43.38327" lon="-1.65457">
        <ele>4</ele>
        <time>2026-02-28T09:25:06Z</time>
      </trkpt>
      <trkpt lat="43.38331" lon="-1.65453">
        <ele>5</ele>
        <time>2026-02-28T09:25:06Z</time>
      </trkpt>
      <trkpt lat="43.3837" lon="-1.65376">
        <ele>5</ele>
        <time>2026-02-28T09:25:19Z</time>
      </trkpt>
      <trkpt lat="43.3839" lon="-1.65332">
        <ele>6</ele>
        <time>2026-02-28T09:25:25Z</time>
      </trkpt>
      <trkpt lat="43.38394" lon="-1.65317">
        <ele>8</ele>
        <time>2026-02-28T09:25:27Z</time>
      </trkpt>
      <trkpt lat="43.38392" lon="-1.65295">
        <ele>10</ele>
        <time>2026-02-28T09:25:30Z</time>
      </trkpt>
      <trkpt lat="43.38384" lon="-1.65266">
        <ele>13</ele>
        <time>2026-02-28T09:25:34Z</time>
      </trkpt>
      <trkpt lat="43.38365" lon="-1.65248">
        <ele>13</ele>
        <time>2026-02-28T09:25:38Z</time>
      </trkpt>
      <trkpt lat="43.38343" lon="-1.652">
        <ele>12</ele>
        <time>2026-02-28T09:25:46Z</time>
      </trkpt>
      <trkpt lat="43.38276" lon="-1.65016">
        <ele>9</ele>
        <time>2026-02-28T09:26:12Z</time>
      </trkpt>
      <trkpt lat="43.3826" lon="-1.64971">
        <ele>8</ele>
        <time>2026-02-28T09:26:19Z</time>
      </trkpt>
      <trkpt lat="43.38254" lon="-1.64945">
        <ele>8</ele>
        <time>2026-02-28T09:26:22Z</time>
      </trkpt>
      <trkpt lat="43.38252" lon="-1.64928">
        <ele>8</ele>
        <time>2026-02-28T09:26:24Z</time>
      </trkpt>
      <trkpt lat="43.38255" lon="-1.6488">
        <ele>9</ele>
        <time>2026-02-28T09:26:31Z</time>
      </trkpt>
      <trkpt lat="43.38273" lon="-1.64701">
        <ele>7</ele>
        <time>2026-02-28T09:26:54Z</time>
      </trkpt>
      <trkpt lat="43.3828" lon="-1.64595">
        <ele>8</ele>
        <time>2026-02-28T09:27:08Z</time>
      </trkpt>
      <trkpt lat="43.38277" lon="-1.64488">
        <ele>10</ele>
        <time>2026-02-28T09:27:22Z</time>
      </trkpt>
      <trkpt lat="43.38272" lon="-1.64424">
        <ele>8</ele>
        <time>2026-02-28T09:27:30Z</time>
      </trkpt>
      <trkpt lat="43.38264" lon="-1.64383">
        <ele>7</ele>
        <time>2026-02-28T09:27:36Z</time>
      </trkpt>
      <trkpt lat="43.3825" lon="-1.64341">
        <ele>5</ele>
        <time>2026-02-28T09:27:41Z</time>
      </trkpt>
      <trkpt lat="43.38232" lon="-1.64309">
        <ele>5</ele>
        <time>2026-02-28T09:27:47Z</time>
      </trkpt>
      <trkpt lat="43.38212" lon="-1.64283">
        <ele>5</ele>
        <time>2026-02-28T09:27:52Z</time>
      </trkpt>
      <trkpt lat="43.38155" lon="-1.6423">
        <ele>6</ele>
        <time>2026-02-28T09:28:04Z</time>
      </trkpt>
      <trkpt lat="43.3812" lon="-1.64193">
        <ele>6</ele>
        <time>2026-02-28T09:28:12Z</time>
      </trkpt>
      <trkpt lat="43.38056" lon="-1.64058">
        <ele>9</ele>
        <time>2026-02-28T09:28:33Z</time>
      </trkpt>
      <trkpt lat="43.37906" lon="-1.63917">
        <ele>6</ele>
        <time>2026-02-28T09:29:05Z</time>
      </trkpt>
      <trkpt lat="43.37776" lon="-1.63786">
        <ele>8</ele>
        <time>2026-02-28T09:29:34Z</time>
      </trkpt>
      <trkpt lat="43.37759" lon="-1.63774">
        <ele>8</ele>
        <time>2026-02-28T09:29:37Z</time>
      </trkpt>
      <trkpt lat="43.37738" lon="-1.63772">
        <ele>8</ele>
        <time>2026-02-28T09:29:41Z</time>
      </trkpt>
      <trkpt lat="43.37642" lon="-1.63776">
        <ele>6</ele>
        <time>2026-02-28T09:29:58Z</time>
      </trkpt>
      <trkpt lat="43.37604" lon="-1.63785">
        <ele>6</ele>
        <time>2026-02-28T09:30:05Z</time>
      </trkpt>
      <trkpt lat="43.37541" lon="-1.63786">
        <ele>5</ele>
        <time>2026-02-28T09:30:16Z</time>
      </trkpt>
      <trkpt lat="43.37526" lon="-1.63781">
        <ele>5</ele>
        <time>2026-02-28T09:30:19Z</time>
      </trkpt>
      <trkpt lat="43.37517" lon="-1.6379">
        <ele>4</ele>
        <time>2026-02-28T09:30:21Z</time>
      </trkpt>
      <trkpt lat="43.3751" lon="-1.63791">
        <ele>4</ele>
        <time>2026-02-28T09:30:22Z</time>
      </trkpt>
      <trkpt lat="43.37445" lon="-1.63794">
        <ele>4</ele>
        <time>2026-02-28T09:30:33Z</time>
      </trkpt>
      <trkpt lat="43.37409" lon="-1.63788">
        <ele>4</ele>
        <time>2026-02-28T09:30:40Z</time>
      </trkpt>
      <trkpt lat="43.37111" lon="-1.63806">
        <ele>5</ele>
        <time>2026-02-28T09:31:33Z</time>
      </trkpt>
      <trkpt lat="43.37085" lon="-1.63801">
        <ele>6</ele>
        <time>2026-02-28T09:31:38Z</time>
      </trkpt>
      <trkpt lat="43.37067" lon="-1.63794">
        <ele>6</ele>
        <time>2026-02-28T09:31:41Z</time>
      </trkpt>
      <trkpt lat="43.36753" lon="-1.63597">
        <ele>7</ele>
        <time>2026-02-28T09:32:42Z</time>
      </trkpt>
      <trkpt lat="43.36709" lon="-1.63582">
        <ele>8</ele>
        <time>2026-02-28T09:32:50Z</time>
      </trkpt>
      <trkpt lat="43.36675" lon="-1.63576">
        <ele>8</ele>
        <time>2026-02-28T09:32:56Z</time>
      </trkpt>
      <trkpt lat="43.36638" lon="-1.63578">
        <ele>7</ele>
        <time>2026-02-28T09:33:03Z</time>
      </trkpt>
      <trkpt lat="43.36595" lon="-1.63589">
        <ele>5</ele>
        <time>2026-02-28T09:33:11Z</time>
      </trkpt>
      <trkpt lat="43.36349" lon="-1.63669">
        <ele>7</ele>
        <time>2026-02-28T09:33:56Z</time>
      </trkpt>
      <trkpt lat="43.36308" lon="-1.63673">
        <ele>7</ele>
        <time>2026-02-28T09:34:03Z</time>
      </trkpt>
      <trkpt lat="43.36277" lon="-1.63671">
        <ele>6</ele>
        <time>2026-02-28T09:34:09Z</time>
      </trkpt>
      <trkpt lat="43.36255" lon="-1.63666">
        <ele>6</ele>
        <time>2026-02-28T09:34:13Z</time>
      </trkpt>
      <trkpt lat="43.36097" lon="-1.63603">
        <ele>5</ele>
        <time>2026-02-28T09:34:42Z</time>
      </trkpt>
      <trkpt lat="43.36075" lon="-1.63589">
        <ele>5</ele>
        <time>2026-02-28T09:34:46Z</time>
      </trkpt>
      <trkpt lat="43.36061" lon="-1.63577">
        <ele>5</ele>
        <time>2026-02-28T09:34:49Z</time>
      </trkpt>
      <trkpt lat="43.36039" lon="-1.63549">
        <ele>6</ele>
        <time>2026-02-28T09:34:54Z</time>
      </trkpt>
      <trkpt lat="43.36029" lon="-1.63531">
        <ele>6</ele>
        <time>2026-02-28T09:34:57Z</time>
      </trkpt>
      <trkpt lat="43.36014" lon="-1.63501">
        <ele>6</ele>
        <time>2026-02-28T09:35:02Z</time>
      </trkpt>
      <trkpt lat="43.35995" lon="-1.63453">
        <ele>8</ele>
        <time>2026-02-28T09:35:09Z</time>
      </trkpt>
      <trkpt lat="43.35984" lon="-1.63434">
        <ele>8</ele>
        <time>2026-02-28T09:35:12Z</time>
      </trkpt>
      <trkpt lat="43.35935" lon="-1.63358">
        <ele>9</ele>
        <time>2026-02-28T09:35:25Z</time>
      </trkpt>
      <trkpt lat="43.35921" lon="-1.63341">
        <ele>8</ele>
        <time>2026-02-28T09:35:29Z</time>
      </trkpt>
      <trkpt lat="43.35859" lon="-1.6328">
        <ele>9</ele>
        <time>2026-02-28T09:35:42Z</time>
      </trkpt>
      <trkpt lat="43.35789" lon="-1.63219">
        <ele>9</ele>
        <time>2026-02-28T09:35:57Z</time>
      </trkpt>
      <trkpt lat="43.3575" lon="-1.63192">
        <ele>7</ele>
        <time>2026-02-28T09:36:05Z</time>
      </trkpt>
      <trkpt lat="43.35673" lon="-1.63163">
        <ele>6</ele>
        <time>2026-02-28T09:36:19Z</time>
      </trkpt>
      <trkpt lat="43.35667" lon="-1.63163">
        <ele>6</ele>
        <time>2026-02-28T09:36:20Z</time>
      </trkpt>
      <trkpt lat="43.35663" lon="-1.63166">
        <ele>6</ele>
        <time>2026-02-28T09:36:21Z</time>
      </trkpt>
      <trkpt lat="43.35657" lon="-1.63166">
        <ele>6</ele>
        <time>2026-02-28T09:36:22Z</time>
      </trkpt>
      <trkpt lat="43.35638" lon="-1.63154">
        <ele>6</ele>
        <time>2026-02-28T09:36:26Z</time>
      </trkpt>
      <trkpt lat="43.3544" lon="-1.63097">
        <ele>6</ele>
        <time>2026-02-28T09:37:02Z</time>
      </trkpt>
      <trkpt lat="43.35403" lon="-1.63082">
        <ele>7</ele>
        <time>2026-02-28T09:37:09Z</time>
      </trkpt>
      <trkpt lat="43.35386" lon="-1.63073">
        <ele>7</ele>
        <time>2026-02-28T09:37:12Z</time>
      </trkpt>
      <trkpt lat="43.3535" lon="-1.63044">
        <ele>7</ele>
        <time>2026-02-28T09:37:19Z</time>
      </trkpt>
      <trkpt lat="43.35306" lon="-1.62998">
        <ele>6</ele>
        <time>2026-02-28T09:37:29Z</time>
      </trkpt>
      <trkpt lat="43.35289" lon="-1.62974">
        <ele>6</ele>
        <time>2026-02-28T09:37:33Z</time>
      </trkpt>
      <trkpt lat="43.35268" lon="-1.62932">
        <ele>6</ele>
        <time>2026-02-28T09:37:40Z</time>
      </trkpt>
      <trkpt lat="43.35255" lon="-1.629">
        <ele>6</ele>
        <time>2026-02-28T09:37:45Z</time>
      </trkpt>
      <trkpt lat="43.35207" lon="-1.62759">
        <ele>8</ele>
        <time>2026-02-28T09:38:05Z</time>
      </trkpt>
      <trkpt lat="43.35118" lon="-1.62528">
        <ele>12</ele>
        <time>2026-02-28T09:38:39Z</time>
      </trkpt>
      <trkpt lat="43.35108" lon="-1.62493">
        <ele>11</ele>
        <time>2026-02-28T09:38:44Z</time>
      </trkpt>
      <trkpt lat="43.35103" lon="-1.62461">
        <ele>10</ele>
        <time>2026-02-28T09:38:48Z</time>
      </trkpt>
      <trkpt lat="43.35103" lon="-1.62402">
        <ele>11</ele>
        <time>2026-02-28T09:38:55Z</time>
      </trkpt>
      <trkpt lat="43.35109" lon="-1.62334">
        <ele>10</ele>
        <time>2026-02-28T09:39:04Z</time>
      </trkpt>
      <trkpt lat="43.35118" lon="-1.62308">
        <ele>11</ele>
        <time>2026-02-28T09:39:08Z</time>
      </trkpt>
      <trkpt lat="43.35127" lon="-1.62289">
        <ele>11</ele>
        <time>2026-02-28T09:39:11Z</time>
      </trkpt>
      <trkpt lat="43.35181" lon="-1.62185">
        <ele>11</ele>
        <time>2026-02-28T09:39:28Z</time>
      </trkpt>
      <trkpt lat="43.35201" lon="-1.62157">
        <ele>12</ele>
        <time>2026-02-28T09:39:33Z</time>
      </trkpt>
      <trkpt lat="43.35214" lon="-1.62143">
        <ele>12</ele>
        <time>2026-02-28T09:39:36Z</time>
      </trkpt>
      <trkpt lat="43.3524" lon="-1.62126">
        <ele>14</ele>
        <time>2026-02-28T09:39:41Z</time>
      </trkpt>
      <trkpt lat="43.35407" lon="-1.6206">
        <ele>21</ele>
        <time>2026-02-28T09:40:12Z</time>
      </trkpt>
      <trkpt lat="43.35432" lon="-1.62045">
        <ele>21</ele>
        <time>2026-02-28T09:40:16Z</time>
      </trkpt>
      <trkpt lat="43.35486" lon="-1.62001">
        <ele>18</ele>
        <time>2026-02-28T09:40:28Z</time>
      </trkpt>
      <trkpt lat="43.35515" lon="-1.61963">
        <ele>18</ele>
        <time>2026-02-28T09:40:35Z</time>
      </trkpt>
      <trkpt lat="43.35787" lon="-1.61535">
        <ele>14</ele>
        <time>2026-02-28T09:41:48Z</time>
      </trkpt>
      <trkpt lat="43.35815" lon="-1.61503">
        <ele>12</ele>
        <time>2026-02-28T09:41:55Z</time>
      </trkpt>
      <trkpt lat="43.35913" lon="-1.61419">
        <ele>16</ele>
        <time>2026-02-28T09:42:15Z</time>
      </trkpt>
      <trkpt lat="43.35934" lon="-1.61396">
        <ele>16</ele>
        <time>2026-02-28T09:42:20Z</time>
      </trkpt>
      <trkpt lat="43.36033" lon="-1.61268">
        <ele>11</ele>
        <time>2026-02-28T09:42:44Z</time>
      </trkpt>
      <trkpt lat="43.36051" lon="-1.61238">
        <ele>11</ele>
        <time>2026-02-28T09:42:49Z</time>
      </trkpt>
      <trkpt lat="43.36075" lon="-1.61188">
        <ele>12</ele>
        <time>2026-02-28T09:42:57Z</time>
      </trkpt>
      <trkpt lat="43.36091" lon="-1.61139">
        <ele>13</ele>
        <time>2026-02-28T09:43:04Z</time>
      </trkpt>
      <trkpt lat="43.36101" lon="-1.61078">
        <ele>15</ele>
        <time>2026-02-28T09:43:12Z</time>
      </trkpt>
      <trkpt lat="43.36105" lon="-1.61018">
        <ele>17</ele>
        <time>2026-02-28T09:43:20Z</time>
      </trkpt>
      <trkpt lat="43.36113" lon="-1.60838">
        <ele>16</ele>
        <time>2026-02-28T09:43:43Z</time>
      </trkpt>
      <trkpt lat="43.36119" lon="-1.6075">
        <ele>18</ele>
        <time>2026-02-28T09:43:55Z</time>
      </trkpt>
      <trkpt lat="43.36118" lon="-1.60724">
        <ele>18</ele>
        <time>2026-02-28T09:43:58Z</time>
      </trkpt>
      <trkpt lat="43.36104" lon="-1.60585">
        <ele>18</ele>
        <time>2026-02-28T09:44:16Z</time>
      </trkpt>
      <trkpt lat="43.36102" lon="-1.60551">
        <ele>17</ele>
        <time>2026-02-28T09:44:21Z</time>
      </trkpt>
      <trkpt lat="43.36102" lon="-1.60518">
        <ele>17</ele>
        <time>2026-02-28T09:44:25Z</time>
      </trkpt>
      <trkpt lat="43.36103" lon="-1.60494">
        <ele>17</ele>
        <time>2026-02-28T09:44:28Z</time>
      </trkpt>
      <trkpt lat="43.36109" lon="-1.60462">
        <ele>16</ele>
        <time>2026-02-28T09:44:32Z</time>
      </trkpt>
      <trkpt lat="43.36126" lon="-1.60409">
        <ele>15</ele>
        <time>2026-02-28T09:44:40Z</time>
      </trkpt>
      <trkpt lat="43.36138" lon="-1.60384">
        <ele>15</ele>
        <time>2026-02-28T09:44:44Z</time>
      </trkpt>
      <trkpt lat="43.36153" lon="-1.60362">
        <ele>14</ele>
        <time>2026-02-28T09:44:47Z</time>
      </trkpt>
      <trkpt lat="43.36173" lon="-1.60338">
        <ele>13</ele>
        <time>2026-02-28T09:44:52Z</time>
      </trkpt>
      <trkpt lat="43.36211" lon="-1.60302">
        <ele>16</ele>
        <time>2026-02-28T09:45:00Z</time>
      </trkpt>
      <trkpt lat="43.36264" lon="-1.60257">
        <ele>19</ele>
        <time>2026-02-28T09:45:12Z</time>
      </trkpt>
      <trkpt lat="43.36299" lon="-1.60225">
        <ele>21</ele>
        <time>2026-02-28T09:45:19Z</time>
      </trkpt>
      <trkpt lat="43.36316" lon="-1.60201">
        <ele>20</ele>
        <time>2026-02-28T09:45:23Z</time>
      </trkpt>
      <trkpt lat="43.36336" lon="-1.60166">
        <ele>16</ele>
        <time>2026-02-28T09:45:29Z</time>
      </trkpt>
      <trkpt lat="43.36371" lon="-1.60073">
        <ele>15</ele>
        <time>2026-02-28T09:45:43Z</time>
      </trkpt>
      <trkpt lat="43.36387" lon="-1.60042">
        <ele>15</ele>
        <time>2026-02-28T09:45:48Z</time>
      </trkpt>
      <trkpt lat="43.36404" lon="-1.60015">
        <ele>14</ele>
        <time>2026-02-28T09:45:52Z</time>
      </trkpt>
      <trkpt lat="43.36418" lon="-1.59996">
        <ele>13</ele>
        <time>2026-02-28T09:45:56Z</time>
      </trkpt>
      <trkpt lat="43.36447" lon="-1.59965">
        <ele>14</ele>
        <time>2026-02-28T09:46:02Z</time>
      </trkpt>
      <trkpt lat="43.36476" lon="-1.5994">
        <ele>14</ele>
        <time>2026-02-28T09:46:08Z</time>
      </trkpt>
      <trkpt lat="43.36533" lon="-1.59897">
        <ele>16</ele>
        <time>2026-02-28T09:46:20Z</time>
      </trkpt>
      <trkpt lat="43.36549" lon="-1.59873">
        <ele>17</ele>
        <time>2026-02-28T09:46:24Z</time>
      </trkpt>
      <trkpt lat="43.36562" lon="-1.59843">
        <ele>18</ele>
        <time>2026-02-28T09:46:29Z</time>
      </trkpt>
      <trkpt lat="43.36567" lon="-1.59809">
        <ele>18</ele>
        <time>2026-02-28T09:46:33Z</time>
      </trkpt>
      <trkpt lat="43.36588" lon="-1.59546">
        <ele>11</ele>
        <time>2026-02-28T09:47:07Z</time>
      </trkpt>
      <trkpt lat="43.36592" lon="-1.59482">
        <ele>9</ele>
        <time>2026-02-28T09:47:16Z</time>
      </trkpt>
      <trkpt lat="43.36589" lon="-1.5943">
        <ele>9</ele>
        <time>2026-02-28T09:47:22Z</time>
      </trkpt>
      <trkpt lat="43.36581" lon="-1.59376">
        <ele>9</ele>
        <time>2026-02-28T09:47:29Z</time>
      </trkpt>
      <trkpt lat="43.36482" lon="-1.59044">
        <ele>9</ele>
        <time>2026-02-28T09:48:16Z</time>
      </trkpt>
      <trkpt lat="43.3646" lon="-1.58976">
        <ele>11</ele>
        <time>2026-02-28T09:48:26Z</time>
      </trkpt>
      <trkpt lat="43.36444" lon="-1.58941">
        <ele>12</ele>
        <time>2026-02-28T09:48:31Z</time>
      </trkpt>
      <trkpt lat="43.36427" lon="-1.58913">
        <ele>13</ele>
        <time>2026-02-28T09:48:36Z</time>
      </trkpt>
      <trkpt lat="43.36402" lon="-1.58885">
        <ele>17</ele>
        <time>2026-02-28T09:48:41Z</time>
      </trkpt>
      <trkpt lat="43.36308" lon="-1.58801">
        <ele>19</ele>
        <time>2026-02-28T09:49:01Z</time>
      </trkpt>
      <trkpt lat="43.3628" lon="-1.58766">
        <ele>18</ele>
        <time>2026-02-28T09:49:08Z</time>
      </trkpt>
      <trkpt lat="43.36257" lon="-1.58723">
        <ele>14</ele>
        <time>2026-02-28T09:49:15Z</time>
      </trkpt>
      <trkpt lat="43.36164" lon="-1.58429">
        <ele>12</ele>
        <time>2026-02-28T09:49:56Z</time>
      </trkpt>
      <trkpt lat="43.36139" lon="-1.58363">
        <ele>12</ele>
        <time>2026-02-28T09:50:06Z</time>
      </trkpt>
      <trkpt lat="43.36129" lon="-1.58341">
        <ele>12</ele>
        <time>2026-02-28T09:50:09Z</time>
      </trkpt>
      <trkpt lat="43.36109" lon="-1.58303">
        <ele>12</ele>
        <time>2026-02-28T09:50:15Z</time>
      </trkpt>
      <trkpt lat="43.36003" lon="-1.58148">
        <ele>11</ele>
        <time>2026-02-28T09:50:43Z</time>
      </trkpt>
      <trkpt lat="43.35894" lon="-1.57993">
        <ele>11</ele>
        <time>2026-02-28T09:51:11Z</time>
      </trkpt>
      <trkpt lat="43.35882" lon="-1.57972">
        <ele>11</ele>
        <time>2026-02-28T09:51:14Z</time>
      </trkpt>
      <trkpt lat="43.35852" lon="-1.57913">
        <ele>12</ele>
        <time>2026-02-28T09:51:24Z</time>
      </trkpt>
      <trkpt lat="43.35838" lon="-1.57869">
        <ele>11</ele>
        <time>2026-02-28T09:51:30Z</time>
      </trkpt>
      <trkpt lat="43.35807" lon="-1.5772">
        <ele>12</ele>
        <time>2026-02-28T09:51:50Z</time>
      </trkpt>
      <trkpt lat="43.35782" lon="-1.57586">
        <ele>13</ele>
        <time>2026-02-28T09:52:08Z</time>
      </trkpt>
      <trkpt lat="43.35779" lon="-1.57552">
        <ele>13</ele>
        <time>2026-02-28T09:52:12Z</time>
      </trkpt>
      <trkpt lat="43.35779" lon="-1.57526">
        <ele>13</ele>
        <time>2026-02-28T09:52:16Z</time>
      </trkpt>
      <trkpt lat="43.35774" lon="-1.5748">
        <ele>13</ele>
        <time>2026-02-28T09:52:22Z</time>
      </trkpt>
      <trkpt lat="43.3577" lon="-1.57476">
        <ele>13</ele>
        <time>2026-02-28T09:52:22Z</time>
      </trkpt>
      <trkpt lat="43.35768" lon="-1.57469">
        <ele>13</ele>
        <time>2026-02-28T09:52:23Z</time>
      </trkpt>
      <trkpt lat="43.35771" lon="-1.57459">
        <ele>13</ele>
        <time>2026-02-28T09:52:25Z</time>
      </trkpt>
      <trkpt lat="43.35767" lon="-1.57433">
        <ele>13</ele>
        <time>2026-02-28T09:52:28Z</time>
      </trkpt>
      <trkpt lat="43.35763" lon="-1.57418">
        <ele>13</ele>
        <time>2026-02-28T09:52:30Z</time>
      </trkpt>
      <trkpt lat="43.35745" lon="-1.57225">
        <ele>14</ele>
        <time>2026-02-28T09:52:56Z</time>
      </trkpt>
      <trkpt lat="43.3574" lon="-1.57189">
        <ele>15</ele>
        <time>2026-02-28T09:53:00Z</time>
      </trkpt>
      <trkpt lat="43.35733" lon="-1.5716">
        <ele>15</ele>
        <time>2026-02-28T09:53:04Z</time>
      </trkpt>
      <trkpt lat="43.35723" lon="-1.57132">
        <ele>15</ele>
        <time>2026-02-28T09:53:08Z</time>
      </trkpt>
      <trkpt lat="43.35625" lon="-1.56922">
        <ele>17</ele>
        <time>2026-02-28T09:53:41Z</time>
      </trkpt>
      <trkpt lat="43.35597" lon="-1.56872">
        <ele>17</ele>
        <time>2026-02-28T09:53:49Z</time>
      </trkpt>
      <trkpt lat="43.35588" lon="-1.56851">
        <ele>17</ele>
        <time>2026-02-28T09:53:52Z</time>
      </trkpt>
      <trkpt lat="43.35586" lon="-1.56839">
        <ele>17</ele>
        <time>2026-02-28T09:53:53Z</time>
      </trkpt>
      <trkpt lat="43.35585" lon="-1.56813">
        <ele>17</ele>
        <time>2026-02-28T09:53:57Z</time>
      </trkpt>
      <trkpt lat="43.35589" lon="-1.56787">
        <ele>17</ele>
        <time>2026-02-28T09:54:00Z</time>
      </trkpt>
      <trkpt lat="43.35608" lon="-1.56729">
        <ele>18</ele>
        <time>2026-02-28T09:54:08Z</time>
      </trkpt>
      <trkpt lat="43.35617" lon="-1.56692">
        <ele>19</ele>
        <time>2026-02-28T09:54:14Z</time>
      </trkpt>
      <trkpt lat="43.35625" lon="-1.56642">
        <ele>19</ele>
        <time>2026-02-28T09:54:20Z</time>
      </trkpt>
      <trkpt lat="43.35624" lon="-1.56615">
        <ele>19</ele>
        <time>2026-02-28T09:54:24Z</time>
      </trkpt>
      <trkpt lat="43.35619" lon="-1.56612">
        <ele>19</ele>
        <time>2026-02-28T09:54:25Z</time>
      </trkpt>
      <trkpt lat="43.35615" lon="-1.56601">
        <ele>19</ele>
        <time>2026-02-28T09:54:26Z</time>
      </trkpt>
      <trkpt lat="43.35617" lon="-1.56593">
        <ele>19</ele>
        <time>2026-02-28T09:54:27Z</time>
      </trkpt>
      <trkpt lat="43.35621" lon="-1.56588">
        <ele>19</ele>
        <time>2026-02-28T09:54:28Z</time>
      </trkpt>
      <trkpt lat="43.35624" lon="-1.56587">
        <ele>19</ele>
        <time>2026-02-28T09:54:29Z</time>
      </trkpt>
      <trkpt lat="43.35622" lon="-1.56558">
        <ele>19</ele>
        <time>2026-02-28T09:54:33Z</time>
      </trkpt>
      <trkpt lat="43.35622" lon="-1.56509">
        <ele>19</ele>
        <time>2026-02-28T09:54:39Z</time>
      </trkpt>
      <trkpt lat="43.35616" lon="-1.56498">
        <ele>18</ele>
        <time>2026-02-28T09:54:41Z</time>
      </trkpt>
      <trkpt lat="43.3561" lon="-1.56265">
        <ele>18</ele>
        <time>2026-02-28T09:55:11Z</time>
      </trkpt>
      <trkpt lat="43.3561" lon="-1.56201">
        <ele>19</ele>
        <time>2026-02-28T09:55:19Z</time>
      </trkpt>
      <trkpt lat="43.35614" lon="-1.56149">
        <ele>19</ele>
        <time>2026-02-28T09:55:26Z</time>
      </trkpt>
      <trkpt lat="43.35618" lon="-1.56125">
        <ele>18</ele>
        <time>2026-02-28T09:55:29Z</time>
      </trkpt>
      <trkpt lat="43.35635" lon="-1.56094">
        <ele>18</ele>
        <time>2026-02-28T09:55:34Z</time>
      </trkpt>
      <trkpt lat="43.35642" lon="-1.56085">
        <ele>17</ele>
        <time>2026-02-28T09:55:36Z</time>
      </trkpt>
      <trkpt lat="43.35648" lon="-1.5608">
        <ele>17</ele>
        <time>2026-02-28T09:55:37Z</time>
      </trkpt>
      <trkpt lat="43.35652" lon="-1.56086">
        <ele>18</ele>
        <time>2026-02-28T09:55:38Z</time>
      </trkpt>
      <trkpt lat="43.35721" lon="-1.56041">
        <ele>19</ele>
        <time>2026-02-28T09:55:52Z</time>
      </trkpt>
      <trkpt lat="43.3573" lon="-1.56032">
        <ele>19</ele>
        <time>2026-02-28T09:55:54Z</time>
      </trkpt>
      <trkpt lat="43.35734" lon="-1.56023">
        <ele>19</ele>
        <time>2026-02-28T09:55:55Z</time>
      </trkpt>
      <trkpt lat="43.35739" lon="-1.56006">
        <ele>18</ele>
        <time>2026-02-28T09:55:57Z</time>
      </trkpt>
      <trkpt lat="43.35737" lon="-1.55994">
        <ele>17</ele>
        <time>2026-02-28T09:55:59Z</time>
      </trkpt>
      <trkpt lat="43.35718" lon="-1.5597">
        <ele>16</ele>
        <time>2026-02-28T09:56:04Z</time>
      </trkpt>
      <trkpt lat="43.35682" lon="-1.55941">
        <ele>16</ele>
        <time>2026-02-28T09:56:11Z</time>
      </trkpt>
      <trkpt lat="43.35646" lon="-1.55913">
        <ele>16</ele>
        <time>2026-02-28T09:56:18Z</time>
      </trkpt>
      <trkpt lat="43.35632" lon="-1.55899">
        <ele>15</ele>
        <time>2026-02-28T09:56:21Z</time>
      </trkpt>
      <trkpt lat="43.35606" lon="-1.55857">
        <ele>15</ele>
        <time>2026-02-28T09:56:29Z</time>
      </trkpt>
      <trkpt lat="43.35592" lon="-1.55814">
        <ele>15</ele>
        <time>2026-02-28T09:56:35Z</time>
      </trkpt>
      <trkpt lat="43.35588" lon="-1.55791">
        <ele>16</ele>
        <time>2026-02-28T09:56:38Z</time>
      </trkpt>
      <trkpt lat="43.35585" lon="-1.55731">
        <ele>16</ele>
        <time>2026-02-28T09:56:46Z</time>
      </trkpt>
      <trkpt lat="43.35581" lon="-1.55514">
        <ele>13</ele>
        <time>2026-02-28T09:57:14Z</time>
      </trkpt>
      <trkpt lat="43.35579" lon="-1.55487">
        <ele>14</ele>
        <time>2026-02-28T09:57:17Z</time>
      </trkpt>
      <trkpt lat="43.35574" lon="-1.55465">
        <ele>14</ele>
        <time>2026-02-28T09:57:20Z</time>
      </trkpt>
      <trkpt lat="43.35563" lon="-1.55444">
        <ele>15</ele>
        <time>2026-02-28T09:57:23Z</time>
      </trkpt>
      <trkpt lat="43.35552" lon="-1.55434">
        <ele>15</ele>
        <time>2026-02-28T09:57:26Z</time>
      </trkpt>
      <trkpt lat="43.35547" lon="-1.55433">
        <ele>15</ele>
        <time>2026-02-28T09:57:27Z</time>
      </trkpt>
      <trkpt lat="43.3554" lon="-1.55426">
        <ele>15</ele>
        <time>2026-02-28T09:57:28Z</time>
      </trkpt>
      <trkpt lat="43.35537" lon="-1.55419">
        <ele>15</ele>
        <time>2026-02-28T09:57:29Z</time>
      </trkpt>
      <trkpt lat="43.35537" lon="-1.55411">
        <ele>16</ele>
        <time>2026-02-28T09:57:30Z</time>
      </trkpt>
      <trkpt lat="43.35523" lon="-1.55388">
        <ele>16</ele>
        <time>2026-02-28T09:57:34Z</time>
      </trkpt>
      <trkpt lat="43.35509" lon="-1.55378">
        <ele>16</ele>
        <time>2026-02-28T09:57:37Z</time>
      </trkpt>
      <trkpt lat="43.35496" lon="-1.55373">
        <ele>16</ele>
        <time>2026-02-28T09:57:39Z</time>
      </trkpt>
      <trkpt lat="43.35483" lon="-1.5537">
        <ele>16</ele>
        <time>2026-02-28T09:57:42Z</time>
      </trkpt>
      <trkpt lat="43.35456" lon="-1.55371">
        <ele>16</ele>
        <time>2026-02-28T09:57:47Z</time>
      </trkpt>
      <trkpt lat="43.35398" lon="-1.5538">
        <ele>16</ele>
        <time>2026-02-28T09:57:57Z</time>
      </trkpt>
      <trkpt lat="43.35369" lon="-1.55382">
        <ele>16</ele>
        <time>2026-02-28T09:58:02Z</time>
      </trkpt>
      <trkpt lat="43.35338" lon="-1.55377">
        <ele>16</ele>
        <time>2026-02-28T09:58:08Z</time>
      </trkpt>
      <trkpt lat="43.35313" lon="-1.55363">
        <ele>17</ele>
        <time>2026-02-28T09:58:13Z</time>
      </trkpt>
      <trkpt lat="43.35293" lon="-1.55347">
        <ele>17</ele>
        <time>2026-02-28T09:58:17Z</time>
      </trkpt>
      <trkpt lat="43.35274" lon="-1.55324">
        <ele>18</ele>
        <time>2026-02-28T09:58:21Z</time>
      </trkpt>
      <trkpt lat="43.35261" lon="-1.55301">
        <ele>17</ele>
        <time>2026-02-28T09:58:25Z</time>
      </trkpt>
      <trkpt lat="43.35241" lon="-1.55255">
        <ele>17</ele>
        <time>2026-02-28T09:58:32Z</time>
      </trkpt>
      <trkpt lat="43.35211" lon="-1.55188">
        <ele>16</ele>
        <time>2026-02-28T09:58:42Z</time>
      </trkpt>
      <trkpt lat="43.35123" lon="-1.5499">
        <ele>18</ele>
        <time>2026-02-28T09:59:12Z</time>
      </trkpt>
      <trkpt lat="43.35117" lon="-1.54993">
        <ele>18</ele>
        <time>2026-02-28T09:59:13Z</time>
      </trkpt>
      <trkpt lat="43.3511" lon="-1.54994">
        <ele>18</ele>
        <time>2026-02-28T09:59:14Z</time>
      </trkpt>
      <trkpt lat="43.35104" lon="-1.54993">
        <ele>18</ele>
        <time>2026-02-28T09:59:15Z</time>
      </trkpt>
      <trkpt lat="43.35098" lon="-1.54988">
        <ele>18</ele>
        <time>2026-02-28T09:59:17Z</time>
      </trkpt>
      <trkpt lat="43.35091" lon="-1.54976">
        <ele>18</ele>
        <time>2026-02-28T09:59:19Z</time>
      </trkpt>
      <trkpt lat="43.3509" lon="-1.54959">
        <ele>19</ele>
        <time>2026-02-28T09:59:21Z</time>
      </trkpt>
      <trkpt lat="43.35092" lon="-1.54951">
        <ele>19</ele>
        <time>2026-02-28T09:59:22Z</time>
      </trkpt>
      <trkpt lat="43.35085" lon="-1.5492">
        <ele>20</ele>
        <time>2026-02-28T09:59:26Z</time>
      </trkpt>
      <trkpt lat="43.35076" lon="-1.54912">
        <ele>20</ele>
        <time>2026-02-28T09:59:28Z</time>
      </trkpt>
      <trkpt lat="43.34941" lon="-1.54841">
        <ele>23</ele>
        <time>2026-02-28T09:59:54Z</time>
      </trkpt>
      <trkpt lat="43.34909" lon="-1.54821">
        <ele>24</ele>
        <time>2026-02-28T10:00:00Z</time>
      </trkpt>
      <trkpt lat="43.34888" lon="-1.548">
        <ele>25</ele>
        <time>2026-02-28T10:00:05Z</time>
      </trkpt>
      <trkpt lat="43.34869" lon="-1.54775">
        <ele>25</ele>
        <time>2026-02-28T10:00:09Z</time>
      </trkpt>
      <trkpt lat="43.347" lon="-1.54509">
        <ele>28</ele>
        <time>2026-02-28T10:00:55Z</time>
      </trkpt>
      <trkpt lat="43.34688" lon="-1.54483">
        <ele>28</ele>
        <time>2026-02-28T10:00:59Z</time>
      </trkpt>
      <trkpt lat="43.3468" lon="-1.5445">
        <ele>29</ele>
        <time>2026-02-28T10:01:04Z</time>
      </trkpt>
      <trkpt lat="43.34678" lon="-1.54431">
        <ele>30</ele>
        <time>2026-02-28T10:01:06Z</time>
      </trkpt>
      <trkpt lat="43.34674" lon="-1.54364">
        <ele>32</ele>
        <time>2026-02-28T10:01:15Z</time>
      </trkpt>
      <trkpt lat="43.34673" lon="-1.54279">
        <ele>35</ele>
        <time>2026-02-28T10:01:26Z</time>
      </trkpt>
      <trkpt lat="43.34667" lon="-1.54235">
        <ele>36</ele>
        <time>2026-02-28T10:01:32Z</time>
      </trkpt>
      <trkpt lat="43.34661" lon="-1.5421">
        <ele>37</ele>
        <time>2026-02-28T10:01:35Z</time>
      </trkpt>
      <trkpt lat="43.3465" lon="-1.54178">
        <ele>38</ele>
        <time>2026-02-28T10:01:40Z</time>
      </trkpt>
      <trkpt lat="43.34639" lon="-1.54155">
        <ele>37</ele>
        <time>2026-02-28T10:01:43Z</time>
      </trkpt>
      <trkpt lat="43.3459" lon="-1.54058">
        <ele>34</ele>
        <time>2026-02-28T10:01:58Z</time>
      </trkpt>
      <trkpt lat="43.34579" lon="-1.54025">
        <ele>34</ele>
        <time>2026-02-28T10:02:03Z</time>
      </trkpt>
      <trkpt lat="43.34572" lon="-1.53997">
        <ele>34</ele>
        <time>2026-02-28T10:02:07Z</time>
      </trkpt>
      <trkpt lat="43.34568" lon="-1.53959">
        <ele>34</ele>
        <time>2026-02-28T10:02:12Z</time>
      </trkpt>
      <trkpt lat="43.34567" lon="-1.53905">
        <ele>35</ele>
        <time>2026-02-28T10:02:19Z</time>
      </trkpt>
      <trkpt lat="43.34564" lon="-1.53862">
        <ele>37</ele>
        <time>2026-02-28T10:02:24Z</time>
      </trkpt>
      <trkpt lat="43.34557" lon="-1.53827">
        <ele>38</ele>
        <time>2026-02-28T10:02:29Z</time>
      </trkpt>
      <trkpt lat="43.34531" lon="-1.53721">
        <ele>38</ele>
        <time>2026-02-28T10:02:44Z</time>
      </trkpt>
      <trkpt lat="43.34523" lon="-1.53674">
        <ele>39</ele>
        <time>2026-02-28T10:02:50Z</time>
      </trkpt>
      <trkpt lat="43.34488" lon="-1.53413">
        <ele>43</ele>
        <time>2026-02-28T10:03:24Z</time>
      </trkpt>
      <trkpt lat="43.34461" lon="-1.53096">
        <ele>41</ele>
        <time>2026-02-28T10:04:06Z</time>
      </trkpt>
      <trkpt lat="43.34451" lon="-1.53016">
        <ele>38</ele>
        <time>2026-02-28T10:04:16Z</time>
      </trkpt>
      <trkpt lat="43.34439" lon="-1.5296">
        <ele>36</ele>
        <time>2026-02-28T10:04:24Z</time>
      </trkpt>
      <trkpt lat="43.34431" lon="-1.52938">
        <ele>36</ele>
        <time>2026-02-28T10:04:27Z</time>
      </trkpt>
      <trkpt lat="43.34359" lon="-1.52813">
        <ele>35</ele>
        <time>2026-02-28T10:04:47Z</time>
      </trkpt>
      <trkpt lat="43.34344" lon="-1.52803">
        <ele>36</ele>
        <time>2026-02-28T10:04:50Z</time>
      </trkpt>
      <trkpt lat="43.34338" lon="-1.52805">
        <ele>36</ele>
        <time>2026-02-28T10:04:51Z</time>
      </trkpt>
      <trkpt lat="43.3433" lon="-1.52804">
        <ele>36</ele>
        <time>2026-02-28T10:04:53Z</time>
      </trkpt>
      <trkpt lat="43.34323" lon="-1.52797">
        <ele>36</ele>
        <time>2026-02-28T10:04:54Z</time>
      </trkpt>
      <trkpt lat="43.3432" lon="-1.52789">
        <ele>36</ele>
        <time>2026-02-28T10:04:56Z</time>
      </trkpt>
      <trkpt lat="43.3432" lon="-1.52774">
        <ele>36</ele>
        <time>2026-02-28T10:04:58Z</time>
      </trkpt>
      <trkpt lat="43.34322" lon="-1.52767">
        <ele>36</ele>
        <time>2026-02-28T10:04:59Z</time>
      </trkpt>
      <trkpt lat="43.34321" lon="-1.52745">
        <ele>36</ele>
        <time>2026-02-28T10:05:01Z</time>
      </trkpt>
      <trkpt lat="43.34316" lon="-1.52737">
        <ele>37</ele>
        <time>2026-02-28T10:05:03Z</time>
      </trkpt>
      <trkpt lat="43.3431" lon="-1.52726">
        <ele>38</ele>
        <time>2026-02-28T10:05:05Z</time>
      </trkpt>
      <trkpt lat="43.34244" lon="-1.52614">
        <ele>41</ele>
        <time>2026-02-28T10:05:23Z</time>
      </trkpt>
      <trkpt lat="43.34166" lon="-1.52489">
        <ele>41</ele>
        <time>2026-02-28T10:05:44Z</time>
      </trkpt>
      <trkpt lat="43.34149" lon="-1.52453">
        <ele>42</ele>
        <time>2026-02-28T10:05:50Z</time>
      </trkpt>
      <trkpt lat="43.33834" lon="-1.51711">
        <ele>44</ele>
        <time>2026-02-28T10:07:41Z</time>
      </trkpt>
      <trkpt lat="43.33772" lon="-1.51561">
        <ele>47</ele>
        <time>2026-02-28T10:08:04Z</time>
      </trkpt>
      <trkpt lat="43.33747" lon="-1.51498">
        <ele>47</ele>
        <time>2026-02-28T10:08:13Z</time>
      </trkpt>
      <trkpt lat="43.33643" lon="-1.51157">
        <ele>52</ele>
        <time>2026-02-28T10:09:01Z</time>
      </trkpt>
      <trkpt lat="43.33637" lon="-1.51133">
        <ele>52</ele>
        <time>2026-02-28T10:09:04Z</time>
      </trkpt>
      <trkpt lat="43.3363" lon="-1.51094">
        <ele>53</ele>
        <time>2026-02-28T10:09:09Z</time>
      </trkpt>
      <trkpt lat="43.33589" lon="-1.5077">
        <ele>60</ele>
        <time>2026-02-28T10:09:52Z</time>
      </trkpt>
      <trkpt lat="43.33586" lon="-1.50738">
        <ele>62</ele>
        <time>2026-02-28T10:09:56Z</time>
      </trkpt>
      <trkpt lat="43.33588" lon="-1.50703">
        <ele>65</ele>
        <time>2026-02-28T10:10:00Z</time>
      </trkpt>
      <trkpt lat="43.33594" lon="-1.50663">
        <ele>70</ele>
        <time>2026-02-28T10:10:06Z</time>
      </trkpt>
      <trkpt lat="43.33612" lon="-1.5057">
        <ele>76</ele>
        <time>2026-02-28T10:10:18Z</time>
      </trkpt>
      <trkpt lat="43.33612" lon="-1.50548">
        <ele>76</ele>
        <time>2026-02-28T10:10:21Z</time>
      </trkpt>
      <trkpt lat="43.33599" lon="-1.50474">
        <ele>76</ele>
        <time>2026-02-28T10:10:31Z</time>
      </trkpt>
      <trkpt lat="43.33579" lon="-1.50425">
        <ele>74</ele>
        <time>2026-02-28T10:10:38Z</time>
      </trkpt>
      <trkpt lat="43.33551" lon="-1.50375">
        <ele>76</ele>
        <time>2026-02-28T10:10:46Z</time>
      </trkpt>
      <trkpt lat="43.33498" lon="-1.50311">
        <ele>75</ele>
        <time>2026-02-28T10:10:59Z</time>
      </trkpt>
      <trkpt lat="43.33479" lon="-1.50283">
        <ele>76</ele>
        <time>2026-02-28T10:11:04Z</time>
      </trkpt>
      <trkpt lat="43.3346" lon="-1.50244">
        <ele>77</ele>
        <time>2026-02-28T10:11:10Z</time>
      </trkpt>
      <trkpt lat="43.33329" lon="-1.4987">
        <ele>89</ele>
        <time>2026-02-28T10:12:04Z</time>
      </trkpt>
      <trkpt lat="43.3332" lon="-1.49838">
        <ele>92</ele>
        <time>2026-02-28T10:12:08Z</time>
      </trkpt>
      <trkpt lat="43.33313" lon="-1.49796">
        <ele>93</ele>
        <time>2026-02-28T10:12:14Z</time>
      </trkpt>
      <trkpt lat="43.33312" lon="-1.49747">
        <ele>94</ele>
        <time>2026-02-28T10:12:20Z</time>
      </trkpt>
      <trkpt lat="43.33314" lon="-1.49693">
        <ele>96</ele>
        <time>2026-02-28T10:12:27Z</time>
      </trkpt>
      <trkpt lat="43.33336" lon="-1.49514">
        <ele>105</ele>
        <time>2026-02-28T10:12:50Z</time>
      </trkpt>
      <trkpt lat="43.33338" lon="-1.49433">
        <ele>104</ele>
        <time>2026-02-28T10:13:01Z</time>
      </trkpt>
      <trkpt lat="43.33336" lon="-1.49374">
        <ele>105</ele>
        <time>2026-02-28T10:13:09Z</time>
      </trkpt>
      <trkpt lat="43.33314" lon="-1.49049">
        <ele>120</ele>
        <time>2026-02-28T10:13:51Z</time>
      </trkpt>
      <trkpt lat="43.33309" lon="-1.49012">
        <ele>122</ele>
        <time>2026-02-28T10:13:56Z</time>
      </trkpt>
      <trkpt lat="43.33304" lon="-1.48993">
        <ele>124</ele>
        <time>2026-02-28T10:13:58Z</time>
      </trkpt>
      <trkpt lat="43.33294" lon="-1.48966">
        <ele>124</ele>
        <time>2026-02-28T10:14:02Z</time>
      </trkpt>
      <trkpt lat="43.33284" lon="-1.48952">
        <ele>125</ele>
        <time>2026-02-28T10:14:05Z</time>
      </trkpt>
      <trkpt lat="43.33279" lon="-1.48951">
        <ele>125</ele>
        <time>2026-02-28T10:14:06Z</time>
      </trkpt>
      <trkpt lat="43.33273" lon="-1.48943">
        <ele>125</ele>
        <time>2026-02-28T10:14:07Z</time>
      </trkpt>
      <trkpt lat="43.33272" lon="-1.48935">
        <ele>124</ele>
        <time>2026-02-28T10:14:08Z</time>
      </trkpt>
      <trkpt lat="43.33277" lon="-1.48926">
        <ele>124</ele>
        <time>2026-02-28T10:14:10Z</time>
      </trkpt>
      <trkpt lat="43.33283" lon="-1.48892">
        <ele>122</ele>
        <time>2026-02-28T10:14:14Z</time>
      </trkpt>
      <trkpt lat="43.33285" lon="-1.48866">
        <ele>122</ele>
        <time>2026-02-28T10:14:18Z</time>
      </trkpt>
      <trkpt lat="43.33289" lon="-1.48848">
        <ele>122</ele>
        <time>2026-02-28T10:14:20Z</time>
      </trkpt>
      <trkpt lat="43.33301" lon="-1.48815">
        <ele>121</ele>
        <time>2026-02-28T10:14:25Z</time>
      </trkpt>
      <trkpt lat="43.33316" lon="-1.48784">
        <ele>120</ele>
        <time>2026-02-28T10:14:30Z</time>
      </trkpt>
      <trkpt lat="43.33343" lon="-1.48738">
        <ele>117</ele>
        <time>2026-02-28T10:14:37Z</time>
      </trkpt>
      <trkpt lat="43.3336" lon="-1.48717">
        <ele>114</ele>
        <time>2026-02-28T10:14:41Z</time>
      </trkpt>
      <trkpt lat="43.334" lon="-1.48674">
        <ele>111</ele>
        <time>2026-02-28T10:14:50Z</time>
      </trkpt>
      <trkpt lat="43.33412" lon="-1.48655">
        <ele>110</ele>
        <time>2026-02-28T10:14:54Z</time>
      </trkpt>
      <trkpt lat="43.33422" lon="-1.48636">
        <ele>110</ele>
        <time>2026-02-28T10:14:57Z</time>
      </trkpt>
      <trkpt lat="43.3343" lon="-1.48616">
        <ele>111</ele>
        <time>2026-02-28T10:15:00Z</time>
      </trkpt>
      <trkpt lat="43.33436" lon="-1.48594">
        <ele>111</ele>
        <time>2026-02-28T10:15:03Z</time>
      </trkpt>
      <trkpt lat="43.3345" lon="-1.48502">
        <ele>107</ele>
        <time>2026-02-28T10:15:15Z</time>
      </trkpt>
      <trkpt lat="43.33458" lon="-1.48476">
        <ele>106</ele>
        <time>2026-02-28T10:15:19Z</time>
      </trkpt>
      <trkpt lat="43.33476" lon="-1.4843">
        <ele>103</ele>
        <time>2026-02-28T10:15:25Z</time>
      </trkpt>
      <trkpt lat="43.33532" lon="-1.48328">
        <ele>98</ele>
        <time>2026-02-28T10:15:42Z</time>
      </trkpt>
      <trkpt lat="43.3355" lon="-1.48289">
        <ele>98</ele>
        <time>2026-02-28T10:15:48Z</time>
      </trkpt>
      <trkpt lat="43.33562" lon="-1.48253">
        <ele>96</ele>
        <time>2026-02-28T10:15:53Z</time>
      </trkpt>
      <trkpt lat="43.33574" lon="-1.48188">
        <ele>94</ele>
        <time>2026-02-28T10:16:02Z</time>
      </trkpt>
      <trkpt lat="43.33619" lon="-1.47846">
        <ele>75</ele>
        <time>2026-02-28T10:16:47Z</time>
      </trkpt>
      <trkpt lat="43.33623" lon="-1.47822">
        <ele>74</ele>
        <time>2026-02-28T10:16:50Z</time>
      </trkpt>
      <trkpt lat="43.3363" lon="-1.47802">
        <ele>74</ele>
        <time>2026-02-28T10:16:53Z</time>
      </trkpt>
      <trkpt lat="43.33636" lon="-1.47788">
        <ele>73</ele>
        <time>2026-02-28T10:16:55Z</time>
      </trkpt>
      <trkpt lat="43.33649" lon="-1.47767">
        <ele>72</ele>
        <time>2026-02-28T10:16:58Z</time>
      </trkpt>
      <trkpt lat="43.33662" lon="-1.47753">
        <ele>71</ele>
        <time>2026-02-28T10:17:01Z</time>
      </trkpt>
      <trkpt lat="43.33678" lon="-1.4774">
        <ele>70</ele>
        <time>2026-02-28T10:17:05Z</time>
      </trkpt>
      <trkpt lat="43.33696" lon="-1.47733">
        <ele>69</ele>
        <time>2026-02-28T10:17:08Z</time>
      </trkpt>
      <trkpt lat="43.33717" lon="-1.47729">
        <ele>68</ele>
        <time>2026-02-28T10:17:12Z</time>
      </trkpt>
      <trkpt lat="43.33732" lon="-1.47729">
        <ele>68</ele>
        <time>2026-02-28T10:17:14Z</time>
      </trkpt>
      <trkpt lat="43.33815" lon="-1.47753">
        <ele>66</ele>
        <time>2026-02-28T10:17:29Z</time>
      </trkpt>
      <trkpt lat="43.33845" lon="-1.47758">
        <ele>65</ele>
        <time>2026-02-28T10:17:35Z</time>
      </trkpt>
      <trkpt lat="43.33885" lon="-1.47757">
        <ele>65</ele>
        <time>2026-02-28T10:17:42Z</time>
      </trkpt>
      <trkpt lat="43.33898" lon="-1.47752">
        <ele>65</ele>
        <time>2026-02-28T10:17:44Z</time>
      </trkpt>
      <trkpt lat="43.33921" lon="-1.47742">
        <ele>65</ele>
        <time>2026-02-28T10:17:49Z</time>
      </trkpt>
      <trkpt lat="43.33946" lon="-1.47725">
        <ele>67</ele>
        <time>2026-02-28T10:17:54Z</time>
      </trkpt>
      <trkpt lat="43.33969" lon="-1.47701">
        <ele>68</ele>
        <time>2026-02-28T10:17:59Z</time>
      </trkpt>
      <trkpt lat="43.34002" lon="-1.47662">
        <ele>67</ele>
        <time>2026-02-28T10:18:06Z</time>
      </trkpt>
      <trkpt lat="43.34031" lon="-1.47624">
        <ele>68</ele>
        <time>2026-02-28T10:18:14Z</time>
      </trkpt>
      <trkpt lat="43.34042" lon="-1.47604">
        <ele>68</ele>
        <time>2026-02-28T10:18:17Z</time>
      </trkpt>
      <trkpt lat="43.34071" lon="-1.47543">
        <ele>66</ele>
        <time>2026-02-28T10:18:26Z</time>
      </trkpt>
      <trkpt lat="43.34068" lon="-1.47534">
        <ele>66</ele>
        <time>2026-02-28T10:18:28Z</time>
      </trkpt>
      <trkpt lat="43.34069" lon="-1.47529">
        <ele>66</ele>
        <time>2026-02-28T10:18:28Z</time>
      </trkpt>
      <trkpt lat="43.34073" lon="-1.47521">
        <ele>65</ele>
        <time>2026-02-28T10:18:29Z</time>
      </trkpt>
      <trkpt lat="43.34079" lon="-1.47518">
        <ele>65</ele>
        <time>2026-02-28T10:18:31Z</time>
      </trkpt>
      <trkpt lat="43.34084" lon="-1.47468">
        <ele>64</ele>
        <time>2026-02-28T10:18:37Z</time>
      </trkpt>
      <trkpt lat="43.34083" lon="-1.47434">
        <ele>65</ele>
        <time>2026-02-28T10:18:42Z</time>
      </trkpt>
      <trkpt lat="43.3407" lon="-1.47328">
        <ele>67</ele>
        <time>2026-02-28T10:18:55Z</time>
      </trkpt>
      <trkpt lat="43.34071" lon="-1.47314">
        <ele>66</ele>
        <time>2026-02-28T10:18:57Z</time>
      </trkpt>
      <trkpt lat="43.34068" lon="-1.473">
        <ele>66</ele>
        <time>2026-02-28T10:18:59Z</time>
      </trkpt>
      <trkpt lat="43.34063" lon="-1.47293">
        <ele>66</ele>
        <time>2026-02-28T10:19:00Z</time>
      </trkpt>
      <trkpt lat="43.34062" lon="-1.47282">
        <ele>66</ele>
        <time>2026-02-28T10:19:02Z</time>
      </trkpt>
      <trkpt lat="43.34064" lon="-1.47274">
        <ele>65</ele>
        <time>2026-02-28T10:19:03Z</time>
      </trkpt>
      <trkpt lat="43.34061" lon="-1.47249">
        <ele>65</ele>
        <time>2026-02-28T10:19:06Z</time>
      </trkpt>
      <trkpt lat="43.34043" lon="-1.47206">
        <ele>65</ele>
        <time>2026-02-28T10:19:13Z</time>
      </trkpt>
      <trkpt lat="43.33978" lon="-1.47069">
        <ele>64</ele>
        <time>2026-02-28T10:19:34Z</time>
      </trkpt>
      <trkpt lat="43.3396" lon="-1.47043">
        <ele>63</ele>
        <time>2026-02-28T10:19:38Z</time>
      </trkpt>
      <trkpt lat="43.33897" lon="-1.46973">
        <ele>64</ele>
        <time>2026-02-28T10:19:53Z</time>
      </trkpt>
      <trkpt lat="43.33876" lon="-1.46955">
        <ele>65</ele>
        <time>2026-02-28T10:19:57Z</time>
      </trkpt>
      <trkpt lat="43.33788" lon="-1.46898">
        <ele>67</ele>
        <time>2026-02-28T10:20:15Z</time>
      </trkpt>
      <trkpt lat="43.33765" lon="-1.46879">
        <ele>67</ele>
        <time>2026-02-28T10:20:19Z</time>
      </trkpt>
      <trkpt lat="43.3374" lon="-1.46847">
        <ele>67</ele>
        <time>2026-02-28T10:20:25Z</time>
      </trkpt>
      <trkpt lat="43.33729" lon="-1.46825">
        <ele>67</ele>
        <time>2026-02-28T10:20:29Z</time>
      </trkpt>
      <trkpt lat="43.33719" lon="-1.46803">
        <ele>67</ele>
        <time>2026-02-28T10:20:32Z</time>
      </trkpt>
      <trkpt lat="43.33702" lon="-1.46745">
        <ele>66</ele>
        <time>2026-02-28T10:20:40Z</time>
      </trkpt>
      <trkpt lat="43.33697" lon="-1.46717">
        <ele>66</ele>
        <time>2026-02-28T10:20:44Z</time>
      </trkpt>
      <trkpt lat="43.33695" lon="-1.46682">
        <ele>65</ele>
        <time>2026-02-28T10:20:49Z</time>
      </trkpt>
      <trkpt lat="43.33699" lon="-1.46592">
        <ele>64</ele>
        <time>2026-02-28T10:21:00Z</time>
      </trkpt>
      <trkpt lat="43.33698" lon="-1.46555">
        <ele>64</ele>
        <time>2026-02-28T10:21:05Z</time>
      </trkpt>
      <trkpt lat="43.33649" lon="-1.46259">
        <ele>56</ele>
        <time>2026-02-28T10:21:44Z</time>
      </trkpt>
      <trkpt lat="43.33637" lon="-1.46212">
        <ele>56</ele>
        <time>2026-02-28T10:21:51Z</time>
      </trkpt>
      <trkpt lat="43.33623" lon="-1.46179">
        <ele>56</ele>
        <time>2026-02-28T10:21:56Z</time>
      </trkpt>
      <trkpt lat="43.33583" lon="-1.46106">
        <ele>57</ele>
        <time>2026-02-28T10:22:08Z</time>
      </trkpt>
      <trkpt lat="43.33575" lon="-1.46087">
        <ele>57</ele>
        <time>2026-02-28T10:22:10Z</time>
      </trkpt>
      <trkpt lat="43.33557" lon="-1.46026">
        <ele>58</ele>
        <time>2026-02-28T10:22:19Z</time>
      </trkpt>
      <trkpt lat="43.33551" lon="-1.45999">
        <ele>58</ele>
        <time>2026-02-28T10:22:23Z</time>
      </trkpt>
      <trkpt lat="43.33547" lon="-1.45974">
        <ele>61</ele>
        <time>2026-02-28T10:22:26Z</time>
      </trkpt>
      <trkpt lat="43.33546" lon="-1.45957">
        <ele>62</ele>
        <time>2026-02-28T10:22:28Z</time>
      </trkpt>
      <trkpt lat="43.33547" lon="-1.45937">
        <ele>64</ele>
        <time>2026-02-28T10:22:31Z</time>
      </trkpt>
      <trkpt lat="43.33549" lon="-1.45924">
        <ele>65</ele>
        <time>2026-02-28T10:22:32Z</time>
      </trkpt>
      <trkpt lat="43.33557" lon="-1.45894">
        <ele>67</ele>
        <time>2026-02-28T10:22:37Z</time>
      </trkpt>
      <trkpt lat="43.33573" lon="-1.45862">
        <ele>67</ele>
        <time>2026-02-28T10:22:42Z</time>
      </trkpt>
      <trkpt lat="43.33733" lon="-1.45627">
        <ele>63</ele>
        <time>2026-02-28T10:23:23Z</time>
      </trkpt>
      <trkpt lat="43.33767" lon="-1.45574">
        <ele>62</ele>
        <time>2026-02-28T10:23:32Z</time>
      </trkpt>
      <trkpt lat="43.33792" lon="-1.45523">
        <ele>63</ele>
        <time>2026-02-28T10:23:40Z</time>
      </trkpt>
      <trkpt lat="43.33826" lon="-1.45431">
        <ele>60</ele>
        <time>2026-02-28T10:23:54Z</time>
      </trkpt>
      <trkpt lat="43.33838" lon="-1.45406">
        <ele>59</ele>
        <time>2026-02-28T10:23:58Z</time>
      </trkpt>
      <trkpt lat="43.33858" lon="-1.45379">
        <ele>59</ele>
        <time>2026-02-28T10:24:03Z</time>
      </trkpt>
      <trkpt lat="43.33876" lon="-1.45358">
        <ele>60</ele>
        <time>2026-02-28T10:24:07Z</time>
      </trkpt>
      <trkpt lat="43.33958" lon="-1.45277">
        <ele>60</ele>
        <time>2026-02-28T10:24:25Z</time>
      </trkpt>
      <trkpt lat="43.33973" lon="-1.45255">
        <ele>60</ele>
        <time>2026-02-28T10:24:29Z</time>
      </trkpt>
      <trkpt lat="43.33983" lon="-1.4523">
        <ele>60</ele>
        <time>2026-02-28T10:24:32Z</time>
      </trkpt>
      <trkpt lat="43.33989" lon="-1.45195">
        <ele>60</ele>
        <time>2026-02-28T10:24:37Z</time>
      </trkpt>
      <trkpt lat="43.33992" lon="-1.45166">
        <ele>61</ele>
        <time>2026-02-28T10:24:41Z</time>
      </trkpt>
      <trkpt lat="43.33989" lon="-1.45157">
        <ele>61</ele>
        <time>2026-02-28T10:24:42Z</time>
      </trkpt>
      <trkpt lat="43.3399" lon="-1.45147">
        <ele>62</ele>
        <time>2026-02-28T10:24:43Z</time>
      </trkpt>
      <trkpt lat="43.33984" lon="-1.45122">
        <ele>63</ele>
        <time>2026-02-28T10:24:47Z</time>
      </trkpt>
      <trkpt lat="43.33866" lon="-1.44918">
        <ele>72</ele>
        <time>2026-02-28T10:25:20Z</time>
      </trkpt>
      <trkpt lat="43.33848" lon="-1.44879">
        <ele>73</ele>
        <time>2026-02-28T10:25:26Z</time>
      </trkpt>
      <trkpt lat="43.33842" lon="-1.44857">
        <ele>73</ele>
        <time>2026-02-28T10:25:30Z</time>
      </trkpt>
      <trkpt lat="43.33839" lon="-1.44838">
        <ele>73</ele>
        <time>2026-02-28T10:25:32Z</time>
      </trkpt>
      <trkpt lat="43.33838" lon="-1.44749">
        <ele>77</ele>
        <time>2026-02-28T10:25:44Z</time>
      </trkpt>
      <trkpt lat="43.33836" lon="-1.44705">
        <ele>78</ele>
        <time>2026-02-28T10:25:49Z</time>
      </trkpt>
      <trkpt lat="43.33828" lon="-1.44676">
        <ele>79</ele>
        <time>2026-02-28T10:25:53Z</time>
      </trkpt>
      <trkpt lat="43.33824" lon="-1.4467">
        <ele>79</ele>
        <time>2026-02-28T10:25:54Z</time>
      </trkpt>
      <trkpt lat="43.33823" lon="-1.44662">
        <ele>79</ele>
        <time>2026-02-28T10:25:55Z</time>
      </trkpt>
      <trkpt lat="43.33816" lon="-1.44647">
        <ele>79</ele>
        <time>2026-02-28T10:25:58Z</time>
      </trkpt>
      <trkpt lat="43.33809" lon="-1.4464">
        <ele>79</ele>
        <time>2026-02-28T10:25:59Z</time>
      </trkpt>
      <trkpt lat="43.33784" lon="-1.44625">
        <ele>78</ele>
        <time>2026-02-28T10:26:04Z</time>
      </trkpt>
      <trkpt lat="43.33753" lon="-1.44617">
        <ele>78</ele>
        <time>2026-02-28T10:26:10Z</time>
      </trkpt>
      <trkpt lat="43.33699" lon="-1.44618">
        <ele>79</ele>
        <time>2026-02-28T10:26:19Z</time>
      </trkpt>
      <trkpt lat="43.33692" lon="-1.44668">
        <ele>81</ele>
        <time>2026-02-28T10:26:26Z</time>
      </trkpt>
      <trkpt lat="43.33692" lon="-1.44724">
        <ele>81</ele>
        <time>2026-02-28T10:26:33Z</time>
      </trkpt>
      <trkpt lat="43.33694" lon="-1.44781">
        <ele>81</ele>
        <time>2026-02-28T10:26:41Z</time>
      </trkpt>
      <trkpt lat="43.3371" lon="-1.44888">
        <ele>84</ele>
        <time>2026-02-28T10:26:55Z</time>
      </trkpt>
      <trkpt lat="43.33731" lon="-1.44971">
        <ele>85</ele>
        <time>2026-02-28T10:27:06Z</time>
      </trkpt>
      <trkpt lat="43.33748" lon="-1.45018">
        <ele>86</ele>
        <time>2026-02-28T10:27:13Z</time>
      </trkpt>
      <trkpt lat="43.33777" lon="-1.45078">
        <ele>84</ele>
        <time>2026-02-28T10:27:22Z</time>
      </trkpt>
      <trkpt lat="43.33828" lon="-1.45162">
        <ele>73</ele>
        <time>2026-02-28T10:27:36Z</time>
      </trkpt>
      <trkpt lat="43.33822" lon="-1.45167">
        <ele>73</ele>
        <time>2026-02-28T10:27:38Z</time>
      </trkpt>
      <trkpt lat="43.33814" lon="-1.45168">
        <ele>74</ele>
        <time>2026-02-28T10:27:39Z</time>
      </trkpt>
      <trkpt lat="43.33795" lon="-1.45168">
        <ele>77</ele>
        <time>2026-02-28T10:27:42Z</time>
      </trkpt>
      <trkpt lat="43.33722" lon="-1.45177">
        <ele>85</ele>
        <time>2026-02-28T10:27:55Z</time>
      </trkpt>
      <trkpt lat="43.33681" lon="-1.45173">
        <ele>91</ele>
        <time>2026-02-28T10:28:03Z</time>
      </trkpt>
      <trkpt lat="43.3367" lon="-1.45176">
        <ele>92</ele>
        <time>2026-02-28T10:28:05Z</time>
      </trkpt>
      <trkpt lat="43.33584" lon="-1.45224">
        <ele>97</ele>
        <time>2026-02-28T10:28:21Z</time>
      </trkpt>
      <trkpt lat="43.3355" lon="-1.45238">
        <ele>96</ele>
        <time>2026-02-28T10:28:28Z</time>
      </trkpt>
      <trkpt lat="43.33535" lon="-1.45239">
        <ele>97</ele>
        <time>2026-02-28T10:28:30Z</time>
      </trkpt>
      <trkpt lat="43.33488" lon="-1.45234">
        <ele>100</ele>
        <time>2026-02-28T10:28:39Z</time>
      </trkpt>
      <trkpt lat="43.33459" lon="-1.4524">
        <ele>102</ele>
        <time>2026-02-28T10:28:44Z</time>
      </trkpt>
      <trkpt lat="43.33416" lon="-1.4526">
        <ele>104</ele>
        <time>2026-02-28T10:28:52Z</time>
      </trkpt>
      <trkpt lat="43.33359" lon="-1.45297">
        <ele>108</ele>
        <time>2026-02-28T10:29:03Z</time>
      </trkpt>
      <trkpt lat="43.33321" lon="-1.45319">
        <ele>109</ele>
        <time>2026-02-28T10:29:10Z</time>
      </trkpt>
      <trkpt lat="43.33314" lon="-1.45325">
        <ele>108</ele>
        <time>2026-02-28T10:29:12Z</time>
      </trkpt>
      <trkpt lat="43.33315" lon="-1.45258">
        <ele>109</ele>
        <time>2026-02-28T10:29:21Z</time>
      </trkpt>
      <trkpt lat="43.3331" lon="-1.45232">
        <ele>110</ele>
        <time>2026-02-28T10:29:24Z</time>
      </trkpt>
      <trkpt lat="43.33293" lon="-1.45213">
        <ele>111</ele>
        <time>2026-02-28T10:29:28Z</time>
      </trkpt>
      <trkpt lat="43.3331" lon="-1.45232">
        <ele>110</ele>
        <time>2026-02-28T10:29:32Z</time>
      </trkpt>
      <trkpt lat="43.33315" lon="-1.45258">
        <ele>109</ele>
        <time>2026-02-28T10:29:35Z</time>
      </trkpt>
      <trkpt lat="43.33314" lon="-1.45325">
        <ele>108</ele>
        <time>2026-02-28T10:29:44Z</time>
      </trkpt>
      <trkpt lat="43.33309" lon="-1.45336">
        <ele>108</ele>
        <time>2026-02-28T10:29:46Z</time>
      </trkpt>
      <trkpt lat="43.33304" lon="-1.45354">
        <ele>108</ele>
        <time>2026-02-28T10:29:48Z</time>
      </trkpt>
      <trkpt lat="43.33293" lon="-1.45407">
        <ele>108</ele>
        <time>2026-02-28T10:29:55Z</time>
      </trkpt>
      <trkpt lat="43.33278" lon="-1.45487">
        <ele>113</ele>
        <time>2026-02-28T10:30:06Z</time>
      </trkpt>
      <trkpt lat="43.33262" lon="-1.45543">
        <ele>117</ele>
        <time>2026-02-28T10:30:14Z</time>
      </trkpt>
      <trkpt lat="43.3326" lon="-1.45559">
        <ele>119</ele>
        <time>2026-02-28T10:30:16Z</time>
      </trkpt>
      <trkpt lat="43.33258" lon="-1.45571">
        <ele>120</ele>
        <time>2026-02-28T10:30:17Z</time>
      </trkpt>
      <trkpt lat="43.33259" lon="-1.45592">
        <ele>121</ele>
        <time>2026-02-28T10:30:20Z</time>
      </trkpt>
      <trkpt lat="43.33264" lon="-1.45629">
        <ele>124</ele>
        <time>2026-02-28T10:30:25Z</time>
      </trkpt>
      <trkpt lat="43.33264" lon="-1.45649">
        <ele>125</ele>
        <time>2026-02-28T10:30:28Z</time>
      </trkpt>
      <trkpt lat="43.33262" lon="-1.45667">
        <ele>126</ele>
        <time>2026-02-28T10:30:30Z</time>
      </trkpt>
      <trkpt lat="43.33246" lon="-1.45727">
        <ele>129</ele>
        <time>2026-02-28T10:30:38Z</time>
      </trkpt>
      <trkpt lat="43.33236" lon="-1.45755">
        <ele>130</ele>
        <time>2026-02-28T10:30:42Z</time>
      </trkpt>
      <trkpt lat="43.33233" lon="-1.45772">
        <ele>130</ele>
        <time>2026-02-28T10:30:45Z</time>
      </trkpt>
      <trkpt lat="43.33232" lon="-1.45798">
        <ele>132</ele>
        <time>2026-02-28T10:30:48Z</time>
      </trkpt>
      <trkpt lat="43.33234" lon="-1.4583">
        <ele>134</ele>
        <time>2026-02-28T10:30:52Z</time>
      </trkpt>
      <trkpt lat="43.33239" lon="-1.45872">
        <ele>137</ele>
        <time>2026-02-28T10:30:58Z</time>
      </trkpt>
      <trkpt lat="43.33237" lon="-1.45903">
        <ele>138</ele>
        <time>2026-02-28T10:31:02Z</time>
      </trkpt>
      <trkpt lat="43.33231" lon="-1.45925">
        <ele>138</ele>
        <time>2026-02-28T10:31:05Z</time>
      </trkpt>
      <trkpt lat="43.33226" lon="-1.4594">
        <ele>138</ele>
        <time>2026-02-28T10:31:07Z</time>
      </trkpt>
      <trkpt lat="43.33196" lon="-1.45998">
        <ele>142</ele>
        <time>2026-02-28T10:31:16Z</time>
      </trkpt>
      <trkpt lat="43.33182" lon="-1.46016">
        <ele>145</ele>
        <time>2026-02-28T10:31:19Z</time>
      </trkpt>
      <trkpt lat="43.33133" lon="-1.46059">
        <ele>154</ele>
        <time>2026-02-28T10:31:30Z</time>
      </trkpt>
      <trkpt lat="43.33121" lon="-1.46073">
        <ele>156</ele>
        <time>2026-02-28T10:31:33Z</time>
      </trkpt>
      <trkpt lat="43.33116" lon="-1.46082">
        <ele>158</ele>
        <time>2026-02-28T10:31:34Z</time>
      </trkpt>
      <trkpt lat="43.3311" lon="-1.46102">
        <ele>160</ele>
        <time>2026-02-28T10:31:37Z</time>
      </trkpt>
      <trkpt lat="43.33098" lon="-1.46162">
        <ele>164</ele>
        <time>2026-02-28T10:31:45Z</time>
      </trkpt>
      <trkpt lat="43.33072" lon="-1.46241">
        <ele>164</ele>
        <time>2026-02-28T10:31:56Z</time>
      </trkpt>
      <trkpt lat="43.33043" lon="-1.46342">
        <ele>167</ele>
        <time>2026-02-28T10:32:10Z</time>
      </trkpt>
      <trkpt lat="43.33032" lon="-1.46377">
        <ele>168</ele>
        <time>2026-02-28T10:32:15Z</time>
      </trkpt>
      <trkpt lat="43.33014" lon="-1.46401">
        <ele>172</ele>
        <time>2026-02-28T10:32:20Z</time>
      </trkpt>
      <trkpt lat="43.32983" lon="-1.46427">
        <ele>174</ele>
        <time>2026-02-28T10:32:26Z</time>
      </trkpt>
      <trkpt lat="43.32945" lon="-1.46467">
        <ele>176</ele>
        <time>2026-02-28T10:32:35Z</time>
      </trkpt>
      <trkpt lat="43.32936" lon="-1.46487">
        <ele>178</ele>
        <time>2026-02-28T10:32:38Z</time>
      </trkpt>
      <trkpt lat="43.32934" lon="-1.46494">
        <ele>179</ele>
        <time>2026-02-28T10:32:39Z</time>
      </trkpt>
      <trkpt lat="43.32934" lon="-1.4651">
        <ele>179</ele>
        <time>2026-02-28T10:32:41Z</time>
      </trkpt>
      <trkpt lat="43.32939" lon="-1.46538">
        <ele>177</ele>
        <time>2026-02-28T10:32:44Z</time>
      </trkpt>
      <trkpt lat="43.32951" lon="-1.46575">
        <ele>173</ele>
        <time>2026-02-28T10:32:50Z</time>
      </trkpt>
      <trkpt lat="43.32952" lon="-1.4659">
        <ele>171</ele>
        <time>2026-02-28T10:32:52Z</time>
      </trkpt>
      <trkpt lat="43.3295" lon="-1.46608">
        <ele>170</ele>
        <time>2026-02-28T10:32:54Z</time>
      </trkpt>
      <trkpt lat="43.32943" lon="-1.46634">
        <ele>170</ele>
        <time>2026-02-28T10:32:58Z</time>
      </trkpt>
      <trkpt lat="43.32882" lon="-1.46773">
        <ele>172</ele>
        <time>2026-02-28T10:33:19Z</time>
      </trkpt>
      <trkpt lat="43.32874" lon="-1.468">
        <ele>175</ele>
        <time>2026-02-28T10:33:22Z</time>
      </trkpt>
      <trkpt lat="43.3287" lon="-1.46825">
        <ele>178</ele>
        <time>2026-02-28T10:33:26Z</time>
      </trkpt>
      <trkpt lat="43.32865" lon="-1.46842">
        <ele>180</ele>
        <time>2026-02-28T10:33:28Z</time>
      </trkpt>
      <trkpt lat="43.32841" lon="-1.46881">
        <ele>184</ele>
        <time>2026-02-28T10:33:35Z</time>
      </trkpt>
      <trkpt lat="43.32826" lon="-1.46913">
        <ele>187</ele>
        <time>2026-02-28T10:33:40Z</time>
      </trkpt>
      <trkpt lat="43.3281" lon="-1.46994">
        <ele>186</ele>
        <time>2026-02-28T10:33:50Z</time>
      </trkpt>
      <trkpt lat="43.32797" lon="-1.47101">
        <ele>186</ele>
        <time>2026-02-28T10:34:04Z</time>
      </trkpt>
      <trkpt lat="43.32795" lon="-1.47144">
        <ele>186</ele>
        <time>2026-02-28T10:34:10Z</time>
      </trkpt>
      <trkpt lat="43.32808" lon="-1.47272">
        <ele>178</ele>
        <time>2026-02-28T10:34:27Z</time>
      </trkpt>
      <trkpt lat="43.32808" lon="-1.47303">
        <ele>176</ele>
        <time>2026-02-28T10:34:31Z</time>
      </trkpt>
      <trkpt lat="43.32805" lon="-1.47317">
        <ele>175</ele>
        <time>2026-02-28T10:34:33Z</time>
      </trkpt>
      <trkpt lat="43.32766" lon="-1.47426">
        <ele>175</ele>
        <time>2026-02-28T10:34:48Z</time>
      </trkpt>
      <trkpt lat="43.32723" lon="-1.47442">
        <ele>175</ele>
        <time>2026-02-28T10:34:56Z</time>
      </trkpt>
      <trkpt lat="43.32707" lon="-1.47454">
        <ele>174</ele>
        <time>2026-02-28T10:35:00Z</time>
      </trkpt>
      <trkpt lat="43.32699" lon="-1.47464">
        <ele>173</ele>
        <time>2026-02-28T10:35:01Z</time>
      </trkpt>
      <trkpt lat="43.32678" lon="-1.475">
        <ele>170</ele>
        <time>2026-02-28T10:35:07Z</time>
      </trkpt>
      <trkpt lat="43.32602" lon="-1.47637">
        <ele>166</ele>
        <time>2026-02-28T10:35:30Z</time>
      </trkpt>
      <trkpt lat="43.32591" lon="-1.47653">
        <ele>164</ele>
        <time>2026-02-28T10:35:33Z</time>
      </trkpt>
      <trkpt lat="43.32544" lon="-1.47707">
        <ele>163</ele>
        <time>2026-02-28T10:35:43Z</time>
      </trkpt>
      <trkpt lat="43.3253" lon="-1.47728">
        <ele>162</ele>
        <time>2026-02-28T10:35:47Z</time>
      </trkpt>
      <trkpt lat="43.32467" lon="-1.47857">
        <ele>161</ele>
        <time>2026-02-28T10:36:07Z</time>
      </trkpt>
      <trkpt lat="43.32402" lon="-1.47996">
        <ele>154</ele>
        <time>2026-02-28T10:36:29Z</time>
      </trkpt>
      <trkpt lat="43.32384" lon="-1.4803">
        <ele>155</ele>
        <time>2026-02-28T10:36:34Z</time>
      </trkpt>
      <trkpt lat="43.32366" lon="-1.4805">
        <ele>154</ele>
        <time>2026-02-28T10:36:38Z</time>
      </trkpt>
      <trkpt lat="43.32312" lon="-1.48087">
        <ele>152</ele>
        <time>2026-02-28T10:36:49Z</time>
      </trkpt>
      <trkpt lat="43.3229" lon="-1.48106">
        <ele>151</ele>
        <time>2026-02-28T10:36:54Z</time>
      </trkpt>
      <trkpt lat="43.32272" lon="-1.48128">
        <ele>149</ele>
        <time>2026-02-28T10:36:58Z</time>
      </trkpt>
      <trkpt lat="43.32221" lon="-1.48194">
        <ele>146</ele>
        <time>2026-02-28T10:37:10Z</time>
      </trkpt>
      <trkpt lat="43.32208" lon="-1.48214">
        <ele>148</ele>
        <time>2026-02-28T10:37:14Z</time>
      </trkpt>
      <trkpt lat="43.32202" lon="-1.48227">
        <ele>149</ele>
        <time>2026-02-28T10:37:16Z</time>
      </trkpt>
      <trkpt lat="43.32186" lon="-1.48282">
        <ele>149</ele>
        <time>2026-02-28T10:37:23Z</time>
      </trkpt>
      <trkpt lat="43.32174" lon="-1.48315">
        <ele>145</ele>
        <time>2026-02-28T10:37:28Z</time>
      </trkpt>
      <trkpt lat="43.32141" lon="-1.48391">
        <ele>146</ele>
        <time>2026-02-28T10:37:40Z</time>
      </trkpt>
      <trkpt lat="43.32086" lon="-1.48499">
        <ele>137</ele>
        <time>2026-02-28T10:37:57Z</time>
      </trkpt>
      <trkpt lat="43.32051" lon="-1.48556">
        <ele>135</ele>
        <time>2026-02-28T10:38:06Z</time>
      </trkpt>
      <trkpt lat="43.32029" lon="-1.4859">
        <ele>132</ele>
        <time>2026-02-28T10:38:12Z</time>
      </trkpt>
      <trkpt lat="43.32011" lon="-1.48613">
        <ele>130</ele>
        <time>2026-02-28T10:38:17Z</time>
      </trkpt>
      <trkpt lat="43.31989" lon="-1.48637">
        <ele>128</ele>
        <time>2026-02-28T10:38:22Z</time>
      </trkpt>
      <trkpt lat="43.31968" lon="-1.48653">
        <ele>127</ele>
        <time>2026-02-28T10:38:26Z</time>
      </trkpt>
      <trkpt lat="43.31887" lon="-1.48709">
        <ele>122</ele>
        <time>2026-02-28T10:38:42Z</time>
      </trkpt>
      <trkpt lat="43.31865" lon="-1.48729">
        <ele>120</ele>
        <time>2026-02-28T10:38:47Z</time>
      </trkpt>
      <trkpt lat="43.31849" lon="-1.48752">
        <ele>117</ele>
        <time>2026-02-28T10:38:51Z</time>
      </trkpt>
      <trkpt lat="43.31802" lon="-1.48835">
        <ele>115</ele>
        <time>2026-02-28T10:39:05Z</time>
      </trkpt>
      <trkpt lat="43.3174" lon="-1.48919">
        <ele>112</ele>
        <time>2026-02-28T10:39:20Z</time>
      </trkpt>
      <trkpt lat="43.31724" lon="-1.48934">
        <ele>112</ele>
        <time>2026-02-28T10:39:23Z</time>
      </trkpt>
      <trkpt lat="43.31674" lon="-1.48975">
        <ele>109</ele>
        <time>2026-02-28T10:39:34Z</time>
      </trkpt>
      <trkpt lat="43.31664" lon="-1.48987">
        <ele>108</ele>
        <time>2026-02-28T10:39:36Z</time>
      </trkpt>
      <trkpt lat="43.31656" lon="-1.48998">
        <ele>108</ele>
        <time>2026-02-28T10:39:38Z</time>
      </trkpt>
      <trkpt lat="43.31645" lon="-1.49023">
        <ele>107</ele>
        <time>2026-02-28T10:39:42Z</time>
      </trkpt>
      <trkpt lat="43.31554" lon="-1.49261">
        <ele>103</ele>
        <time>2026-02-28T10:40:17Z</time>
      </trkpt>
      <trkpt lat="43.31534" lon="-1.49304">
        <ele>102</ele>
        <time>2026-02-28T10:40:23Z</time>
      </trkpt>
      <trkpt lat="43.31449" lon="-1.49443">
        <ele>98</ele>
        <time>2026-02-28T10:40:47Z</time>
      </trkpt>
      <trkpt lat="43.31426" lon="-1.49471">
        <ele>96</ele>
        <time>2026-02-28T10:40:52Z</time>
      </trkpt>
      <trkpt lat="43.31354" lon="-1.49552">
        <ele>94</ele>
        <time>2026-02-28T10:41:09Z</time>
      </trkpt>
      <trkpt lat="43.31307" lon="-1.49593">
        <ele>92</ele>
        <time>2026-02-28T10:41:19Z</time>
      </trkpt>
      <trkpt lat="43.31215" lon="-1.49711">
        <ele>87</ele>
        <time>2026-02-28T10:41:41Z</time>
      </trkpt>
      <trkpt lat="43.31159" lon="-1.49767">
        <ele>91</ele>
        <time>2026-02-28T10:41:54Z</time>
      </trkpt>
      <trkpt lat="43.31144" lon="-1.49792">
        <ele>93</ele>
        <time>2026-02-28T10:41:58Z</time>
      </trkpt>
      <trkpt lat="43.31134" lon="-1.49819">
        <ele>94</ele>
        <time>2026-02-28T10:42:02Z</time>
      </trkpt>
      <trkpt lat="43.31129" lon="-1.49853">
        <ele>95</ele>
        <time>2026-02-28T10:42:06Z</time>
      </trkpt>
      <trkpt lat="43.31127" lon="-1.49997">
        <ele>95</ele>
        <time>2026-02-28T10:42:25Z</time>
      </trkpt>
      <trkpt lat="43.31135" lon="-1.50043">
        <ele>97</ele>
        <time>2026-02-28T10:42:31Z</time>
      </trkpt>
      <trkpt lat="43.31115" lon="-1.50053">
        <ele>98</ele>
        <time>2026-02-28T10:42:35Z</time>
      </trkpt>
      <trkpt lat="43.31087" lon="-1.50057">
        <ele>101</ele>
        <time>2026-02-28T10:42:40Z</time>
      </trkpt>
      <trkpt lat="43.31073" lon="-1.50055">
        <ele>102</ele>
        <time>2026-02-28T10:42:42Z</time>
      </trkpt>
      <trkpt lat="43.31059" lon="-1.50046">
        <ele>103</ele>
        <time>2026-02-28T10:42:45Z</time>
      </trkpt>
      <trkpt lat="43.31048" lon="-1.50028">
        <ele>103</ele>
        <time>2026-02-28T10:42:48Z</time>
      </trkpt>
      <trkpt lat="43.31014" lon="-1.49939">
        <ele>108</ele>
        <time>2026-02-28T10:43:01Z</time>
      </trkpt>
      <trkpt lat="43.30997" lon="-1.49903">
        <ele>109</ele>
        <time>2026-02-28T10:43:07Z</time>
      </trkpt>
      <trkpt lat="43.30981" lon="-1.499">
        <ele>110</ele>
        <time>2026-02-28T10:43:09Z</time>
      </trkpt>
      <trkpt lat="43.30933" lon="-1.49904">
        <ele>112</ele>
        <time>2026-02-28T10:43:18Z</time>
      </trkpt>
      <trkpt lat="43.30812" lon="-1.49905">
        <ele>115</ele>
        <time>2026-02-28T10:43:40Z</time>
      </trkpt>
      <trkpt lat="43.30751" lon="-1.49901">
        <ele>116</ele>
        <time>2026-02-28T10:43:50Z</time>
      </trkpt>
      <trkpt lat="43.30723" lon="-1.49897">
        <ele>119</ele>
        <time>2026-02-28T10:43:55Z</time>
      </trkpt>
      <trkpt lat="43.30679" lon="-1.49877">
        <ele>123</ele>
        <time>2026-02-28T10:44:04Z</time>
      </trkpt>
      <trkpt lat="43.30657" lon="-1.49875">
        <ele>125</ele>
        <time>2026-02-28T10:44:08Z</time>
      </trkpt>
      <trkpt lat="43.30542" lon="-1.49903">
        <ele>123</ele>
        <time>2026-02-28T10:44:28Z</time>
      </trkpt>
      <trkpt lat="43.30524" lon="-1.49905">
        <ele>122</ele>
        <time>2026-02-28T10:44:32Z</time>
      </trkpt>
      <trkpt lat="43.30519" lon="-1.49904">
        <ele>121</ele>
        <time>2026-02-28T10:44:32Z</time>
      </trkpt>
      <trkpt lat="43.30509" lon="-1.49891">
        <ele>120</ele>
        <time>2026-02-28T10:44:35Z</time>
      </trkpt>
      <trkpt lat="43.30501" lon="-1.49874">
        <ele>120</ele>
        <time>2026-02-28T10:44:38Z</time>
      </trkpt>
      <trkpt lat="43.30489" lon="-1.49837">
        <ele>119</ele>
        <time>2026-02-28T10:44:43Z</time>
      </trkpt>
      <trkpt lat="43.30475" lon="-1.498">
        <ele>119</ele>
        <time>2026-02-28T10:44:48Z</time>
      </trkpt>
      <trkpt lat="43.30452" lon="-1.49721">
        <ele>121</ele>
        <time>2026-02-28T10:44:59Z</time>
      </trkpt>
      <trkpt lat="43.3044" lon="-1.49684">
        <ele>122</ele>
        <time>2026-02-28T10:45:04Z</time>
      </trkpt>
      <trkpt lat="43.30424" lon="-1.49652">
        <ele>124</ele>
        <time>2026-02-28T10:45:09Z</time>
      </trkpt>
      <trkpt lat="43.30405" lon="-1.49627">
        <ele>124</ele>
        <time>2026-02-28T10:45:14Z</time>
      </trkpt>
      <trkpt lat="43.30381" lon="-1.49605">
        <ele>125</ele>
        <time>2026-02-28T10:45:19Z</time>
      </trkpt>
      <trkpt lat="43.30355" lon="-1.49589">
        <ele>124</ele>
        <time>2026-02-28T10:45:24Z</time>
      </trkpt>
      <trkpt lat="43.30334" lon="-1.49568">
        <ele>124</ele>
        <time>2026-02-28T10:45:29Z</time>
      </trkpt>
      <trkpt lat="43.30325" lon="-1.49545">
        <ele>124</ele>
        <time>2026-02-28T10:45:32Z</time>
      </trkpt>
      <trkpt lat="43.3028" lon="-1.49377">
        <ele>129</ele>
        <time>2026-02-28T10:45:56Z</time>
      </trkpt>
      <trkpt lat="43.30274" lon="-1.49364">
        <ele>131</ele>
        <time>2026-02-28T10:45:58Z</time>
      </trkpt>
      <trkpt lat="43.30267" lon="-1.49355">
        <ele>131</ele>
        <time>2026-02-28T10:45:59Z</time>
      </trkpt>
      <trkpt lat="43.30258" lon="-1.49349">
        <ele>131</ele>
        <time>2026-02-28T10:46:01Z</time>
      </trkpt>
      <trkpt lat="43.3025" lon="-1.49347">
        <ele>130</ele>
        <time>2026-02-28T10:46:02Z</time>
      </trkpt>
      <trkpt lat="43.30235" lon="-1.49349">
        <ele>131</ele>
        <time>2026-02-28T10:46:05Z</time>
      </trkpt>
      <trkpt lat="43.30222" lon="-1.49354">
        <ele>131</ele>
        <time>2026-02-28T10:46:08Z</time>
      </trkpt>
      <trkpt lat="43.30104" lon="-1.49427">
        <ele>127</ele>
        <time>2026-02-28T10:46:31Z</time>
      </trkpt>
      <trkpt lat="43.30092" lon="-1.49432">
        <ele>126</ele>
        <time>2026-02-28T10:46:33Z</time>
      </trkpt>
      <trkpt lat="43.30073" lon="-1.49438">
        <ele>126</ele>
        <time>2026-02-28T10:46:36Z</time>
      </trkpt>
      <trkpt lat="43.30054" lon="-1.49441">
        <ele>127</ele>
        <time>2026-02-28T10:46:40Z</time>
      </trkpt>
      <trkpt lat="43.30021" lon="-1.49441">
        <ele>129</ele>
        <time>2026-02-28T10:46:46Z</time>
      </trkpt>
      <trkpt lat="43.29985" lon="-1.49434">
        <ele>131</ele>
        <time>2026-02-28T10:46:52Z</time>
      </trkpt>
      <trkpt lat="43.2996" lon="-1.49425">
        <ele>133</ele>
        <time>2026-02-28T10:46:57Z</time>
      </trkpt>
      <trkpt lat="43.29939" lon="-1.49413">
        <ele>134</ele>
        <time>2026-02-28T10:47:01Z</time>
      </trkpt>
      <trkpt lat="43.29917" lon="-1.49397">
        <ele>135</ele>
        <time>2026-02-28T10:47:05Z</time>
      </trkpt>
      <trkpt lat="43.29891" lon="-1.49371">
        <ele>136</ele>
        <time>2026-02-28T10:47:11Z</time>
      </trkpt>
      <trkpt lat="43.29845" lon="-1.4932">
        <ele>132</ele>
        <time>2026-02-28T10:47:21Z</time>
      </trkpt>
      <trkpt lat="43.29821" lon="-1.49304">
        <ele>129</ele>
        <time>2026-02-28T10:47:26Z</time>
      </trkpt>
      <trkpt lat="43.29798" lon="-1.49296">
        <ele>127</ele>
        <time>2026-02-28T10:47:30Z</time>
      </trkpt>
      <trkpt lat="43.29765" lon="-1.49293">
        <ele>125</ele>
        <time>2026-02-28T10:47:36Z</time>
      </trkpt>
      <trkpt lat="43.29736" lon="-1.49301">
        <ele>123</ele>
        <time>2026-02-28T10:47:41Z</time>
      </trkpt>
      <trkpt lat="43.29712" lon="-1.49316">
        <ele>121</ele>
        <time>2026-02-28T10:47:46Z</time>
      </trkpt>
      <trkpt lat="43.29691" lon="-1.49333">
        <ele>118</ele>
        <time>2026-02-28T10:47:50Z</time>
      </trkpt>
      <trkpt lat="43.29653" lon="-1.49374">
        <ele>116</ele>
        <time>2026-02-28T10:47:59Z</time>
      </trkpt>
      <trkpt lat="43.29631" lon="-1.49405">
        <ele>114</ele>
        <time>2026-02-28T10:48:05Z</time>
      </trkpt>
      <trkpt lat="43.29613" lon="-1.49433">
        <ele>112</ele>
        <time>2026-02-28T10:48:10Z</time>
      </trkpt>
      <trkpt lat="43.29606" lon="-1.49449">
        <ele>112</ele>
        <time>2026-02-28T10:48:12Z</time>
      </trkpt>
      <trkpt lat="43.29584" lon="-1.49514">
        <ele>113</ele>
        <time>2026-02-28T10:48:21Z</time>
      </trkpt>
      <trkpt lat="43.29576" lon="-1.4953">
        <ele>113</ele>
        <time>2026-02-28T10:48:24Z</time>
      </trkpt>
      <trkpt lat="43.29566" lon="-1.49546">
        <ele>113</ele>
        <time>2026-02-28T10:48:26Z</time>
      </trkpt>
      <trkpt lat="43.29554" lon="-1.4956">
        <ele>113</ele>
        <time>2026-02-28T10:48:29Z</time>
      </trkpt>
      <trkpt lat="43.29533" lon="-1.49573">
        <ele>112</ele>
        <time>2026-02-28T10:48:33Z</time>
      </trkpt>
      <trkpt lat="43.29485" lon="-1.49597">
        <ele>107</ele>
        <time>2026-02-28T10:48:42Z</time>
      </trkpt>
      <trkpt lat="43.29456" lon="-1.4962">
        <ele>103</ele>
        <time>2026-02-28T10:48:48Z</time>
      </trkpt>
      <trkpt lat="43.29428" lon="-1.49659">
        <ele>100</ele>
        <time>2026-02-28T10:48:56Z</time>
      </trkpt>
      <trkpt lat="43.2942" lon="-1.49673">
        <ele>99</ele>
        <time>2026-02-28T10:48:58Z</time>
      </trkpt>
      <trkpt lat="43.29407" lon="-1.49712">
        <ele>101</ele>
        <time>2026-02-28T10:49:03Z</time>
      </trkpt>
      <trkpt lat="43.29404" lon="-1.49753">
        <ele>103</ele>
        <time>2026-02-28T10:49:09Z</time>
      </trkpt>
      <trkpt lat="43.29407" lon="-1.49805">
        <ele>101</ele>
        <time>2026-02-28T10:49:15Z</time>
      </trkpt>
      <trkpt lat="43.2942" lon="-1.4994">
        <ele>91</ele>
        <time>2026-02-28T10:49:33Z</time>
      </trkpt>
      <trkpt lat="43.29423" lon="-1.49996">
        <ele>88</ele>
        <time>2026-02-28T10:49:40Z</time>
      </trkpt>
      <trkpt lat="43.2942" lon="-1.50027">
        <ele>88</ele>
        <time>2026-02-28T10:49:44Z</time>
      </trkpt>
      <trkpt lat="43.29412" lon="-1.50058">
        <ele>88</ele>
        <time>2026-02-28T10:49:49Z</time>
      </trkpt>
      <trkpt lat="43.2938" lon="-1.5013">
        <ele>86</ele>
        <time>2026-02-28T10:50:00Z</time>
      </trkpt>
      <trkpt lat="43.29367" lon="-1.50183">
        <ele>84</ele>
        <time>2026-02-28T10:50:07Z</time>
      </trkpt>
      <trkpt lat="43.29343" lon="-1.50313">
        <ele>77</ele>
        <time>2026-02-28T10:50:24Z</time>
      </trkpt>
      <trkpt lat="43.29343" lon="-1.50331">
        <ele>77</ele>
        <time>2026-02-28T10:50:27Z</time>
      </trkpt>
      <trkpt lat="43.2935" lon="-1.50406">
        <ele>76</ele>
        <time>2026-02-28T10:50:36Z</time>
      </trkpt>
      <trkpt lat="43.29351" lon="-1.50432">
        <ele>75</ele>
        <time>2026-02-28T10:50:40Z</time>
      </trkpt>
      <trkpt lat="43.29349" lon="-1.50458">
        <ele>74</ele>
        <time>2026-02-28T10:50:43Z</time>
      </trkpt>
      <trkpt lat="43.29342" lon="-1.50487">
        <ele>72</ele>
        <time>2026-02-28T10:50:47Z</time>
      </trkpt>
      <trkpt lat="43.29334" lon="-1.50511">
        <ele>71</ele>
        <time>2026-02-28T10:50:50Z</time>
      </trkpt>
      <trkpt lat="43.29337" lon="-1.50519">
        <ele>71</ele>
        <time>2026-02-28T10:50:52Z</time>
      </trkpt>
      <trkpt lat="43.29342" lon="-1.50525">
        <ele>70</ele>
        <time>2026-02-28T10:50:53Z</time>
      </trkpt>
      <trkpt lat="43.2938" lon="-1.50566">
        <ele>68</ele>
        <time>2026-02-28T10:51:01Z</time>
      </trkpt>
      <trkpt lat="43.29393" lon="-1.50581">
        <ele>66</ele>
        <time>2026-02-28T10:51:04Z</time>
      </trkpt>
      <trkpt lat="43.29409" lon="-1.50601">
        <ele>68</ele>
        <time>2026-02-28T10:51:08Z</time>
      </trkpt>
      <trkpt lat="43.29417" lon="-1.50598">
        <ele>68</ele>
        <time>2026-02-28T10:51:10Z</time>
      </trkpt>
      <trkpt lat="43.29424" lon="-1.50602">
        <ele>68</ele>
        <time>2026-02-28T10:51:11Z</time>
      </trkpt>
      <trkpt lat="43.29428" lon="-1.50612">
        <ele>69</ele>
        <time>2026-02-28T10:51:13Z</time>
      </trkpt>
      <trkpt lat="43.29427" lon="-1.50623">
        <ele>71</ele>
        <time>2026-02-28T10:51:14Z</time>
      </trkpt>
      <trkpt lat="43.29449" lon="-1.50636">
        <ele>72</ele>
        <time>2026-02-28T10:51:18Z</time>
      </trkpt>
      <trkpt lat="43.29465" lon="-1.50635">
        <ele>72</ele>
        <time>2026-02-28T10:51:21Z</time>
      </trkpt>
      <trkpt lat="43.29546" lon="-1.50602">
        <ele>71</ele>
        <time>2026-02-28T10:51:36Z</time>
      </trkpt>
      <trkpt lat="43.29559" lon="-1.50605">
        <ele>71</ele>
        <time>2026-02-28T10:51:39Z</time>
      </trkpt>
      <trkpt lat="43.29586" lon="-1.50623">
        <ele>71</ele>
        <time>2026-02-28T10:51:44Z</time>
      </trkpt>
      <trkpt lat="43.29597" lon="-1.50635">
        <ele>72</ele>
        <time>2026-02-28T10:51:46Z</time>
      </trkpt>
      <trkpt lat="43.29631" lon="-1.50688">
        <ele>73</ele>
        <time>2026-02-28T10:51:55Z</time>
      </trkpt>
      <trkpt lat="43.29648" lon="-1.507">
        <ele>73</ele>
        <time>2026-02-28T10:51:59Z</time>
      </trkpt>
      <trkpt lat="43.29711" lon="-1.50736">
        <ele>73</ele>
        <time>2026-02-28T10:52:11Z</time>
      </trkpt>
      <trkpt lat="43.29752" lon="-1.50765">
        <ele>72</ele>
        <time>2026-02-28T10:52:19Z</time>
      </trkpt>
      <trkpt lat="43.29788" lon="-1.50796">
        <ele>72</ele>
        <time>2026-02-28T10:52:27Z</time>
      </trkpt>
      <trkpt lat="43.29901" lon="-1.50908">
        <ele>69</ele>
        <time>2026-02-28T10:52:52Z</time>
      </trkpt>
      <trkpt lat="43.30006" lon="-1.5108">
        <ele>66</ele>
        <time>2026-02-28T10:53:21Z</time>
      </trkpt>
      <trkpt lat="43.30016" lon="-1.51107">
        <ele>67</ele>
        <time>2026-02-28T10:53:25Z</time>
      </trkpt>
      <trkpt lat="43.30015" lon="-1.51135">
        <ele>68</ele>
        <time>2026-02-28T10:53:28Z</time>
      </trkpt>
      <trkpt lat="43.3" lon="-1.51177">
        <ele>71</ele>
        <time>2026-02-28T10:53:34Z</time>
      </trkpt>
      <trkpt lat="43.2998" lon="-1.51206">
        <ele>75</ele>
        <time>2026-02-28T10:53:39Z</time>
      </trkpt>
      <trkpt lat="43.29971" lon="-1.51238">
        <ele>76</ele>
        <time>2026-02-28T10:53:44Z</time>
      </trkpt>
      <trkpt lat="43.29974" lon="-1.5125">
        <ele>76</ele>
        <time>2026-02-28T10:53:46Z</time>
      </trkpt>
      <trkpt lat="43.29983" lon="-1.51259">
        <ele>75</ele>
        <time>2026-02-28T10:53:48Z</time>
      </trkpt>
      <trkpt lat="43.29992" lon="-1.51256">
        <ele>73</ele>
        <time>2026-02-28T10:53:49Z</time>
      </trkpt>
      <trkpt lat="43.30025" lon="-1.51235">
        <ele>70</ele>
        <time>2026-02-28T10:53:56Z</time>
      </trkpt>
      <trkpt lat="43.3004" lon="-1.51235">
        <ele>69</ele>
        <time>2026-02-28T10:53:58Z</time>
      </trkpt>
      <trkpt lat="43.30052" lon="-1.51244">
        <ele>68</ele>
        <time>2026-02-28T10:54:01Z</time>
      </trkpt>
      <trkpt lat="43.30068" lon="-1.51265">
        <ele>69</ele>
        <time>2026-02-28T10:54:05Z</time>
      </trkpt>
      <trkpt lat="43.30081" lon="-1.51277">
        <ele>69</ele>
        <time>2026-02-28T10:54:07Z</time>
      </trkpt>
      <trkpt lat="43.30098" lon="-1.51281">
        <ele>69</ele>
        <time>2026-02-28T10:54:11Z</time>
      </trkpt>
      <trkpt lat="43.30151" lon="-1.51282">
        <ele>66</ele>
        <time>2026-02-28T10:54:20Z</time>
      </trkpt>
      <trkpt lat="43.30169" lon="-1.51286">
        <ele>66</ele>
        <time>2026-02-28T10:54:23Z</time>
      </trkpt>
      <trkpt lat="43.30187" lon="-1.51295">
        <ele>66</ele>
        <time>2026-02-28T10:54:27Z</time>
      </trkpt>
      <trkpt lat="43.30211" lon="-1.51312">
        <ele>67</ele>
        <time>2026-02-28T10:54:31Z</time>
      </trkpt>
      <trkpt lat="43.30373" lon="-1.51474">
        <ele>74</ele>
        <time>2026-02-28T10:55:07Z</time>
      </trkpt>
      <trkpt lat="43.3054" lon="-1.51663">
        <ele>70</ele>
        <time>2026-02-28T10:55:46Z</time>
      </trkpt>
      <trkpt lat="43.30565" lon="-1.517">
        <ele>71</ele>
        <time>2026-02-28T10:55:52Z</time>
      </trkpt>
      <trkpt lat="43.30598" lon="-1.51764">
        <ele>71</ele>
        <time>2026-02-28T10:56:02Z</time>
      </trkpt>
      <trkpt lat="43.30674" lon="-1.51854">
        <ele>68</ele>
        <time>2026-02-28T10:56:20Z</time>
      </trkpt>
      <trkpt lat="43.30685" lon="-1.51877">
        <ele>67</ele>
        <time>2026-02-28T10:56:24Z</time>
      </trkpt>
      <trkpt lat="43.30709" lon="-1.51968">
        <ele>65</ele>
        <time>2026-02-28T10:56:36Z</time>
      </trkpt>
      <trkpt lat="43.30718" lon="-1.52015">
        <ele>64</ele>
        <time>2026-02-28T10:56:42Z</time>
      </trkpt>
      <trkpt lat="43.30719" lon="-1.52035">
        <ele>63</ele>
        <time>2026-02-28T10:56:45Z</time>
      </trkpt>
      <trkpt lat="43.30715" lon="-1.52071">
        <ele>63</ele>
        <time>2026-02-28T10:56:50Z</time>
      </trkpt>
      <trkpt lat="43.30701" lon="-1.52105">
        <ele>63</ele>
        <time>2026-02-28T10:56:55Z</time>
      </trkpt>
      <trkpt lat="43.30642" lon="-1.52178">
        <ele>62</ele>
        <time>2026-02-28T10:57:09Z</time>
      </trkpt>
      <trkpt lat="43.30623" lon="-1.52217">
        <ele>61</ele>
        <time>2026-02-28T10:57:15Z</time>
      </trkpt>
      <trkpt lat="43.30622" lon="-1.52278">
        <ele>58</ele>
        <time>2026-02-28T10:57:23Z</time>
      </trkpt>
      <trkpt lat="43.30624" lon="-1.52309">
        <ele>58</ele>
        <time>2026-02-28T10:57:27Z</time>
      </trkpt>
      <trkpt lat="43.30624" lon="-1.52336">
        <ele>57</ele>
        <time>2026-02-28T10:57:30Z</time>
      </trkpt>
      <trkpt lat="43.30625" lon="-1.52436">
        <ele>60</ele>
        <time>2026-02-28T10:57:43Z</time>
      </trkpt>
      <trkpt lat="43.30632" lon="-1.52475">
        <ele>59</ele>
        <time>2026-02-28T10:57:49Z</time>
      </trkpt>
      <trkpt lat="43.30651" lon="-1.52556">
        <ele>56</ele>
        <time>2026-02-28T10:58:00Z</time>
      </trkpt>
      <trkpt lat="43.30674" lon="-1.52595">
        <ele>55</ele>
        <time>2026-02-28T10:58:06Z</time>
      </trkpt>
      <trkpt lat="43.30723" lon="-1.52653">
        <ele>57</ele>
        <time>2026-02-28T10:58:18Z</time>
      </trkpt>
      <trkpt lat="43.30798" lon="-1.52725">
        <ele>55</ele>
        <time>2026-02-28T10:58:34Z</time>
      </trkpt>
      <trkpt lat="43.3082" lon="-1.52736">
        <ele>56</ele>
        <time>2026-02-28T10:58:38Z</time>
      </trkpt>
      <trkpt lat="43.30866" lon="-1.52747">
        <ele>57</ele>
        <time>2026-02-28T10:58:46Z</time>
      </trkpt>
      <trkpt lat="43.3089" lon="-1.52756">
        <ele>58</ele>
        <time>2026-02-28T10:58:51Z</time>
      </trkpt>
      <trkpt lat="43.30919" lon="-1.52771">
        <ele>59</ele>
        <time>2026-02-28T10:58:56Z</time>
      </trkpt>
      <trkpt lat="43.30939" lon="-1.52787">
        <ele>58</ele>
        <time>2026-02-28T10:59:00Z</time>
      </trkpt>
      <trkpt lat="43.3095" lon="-1.52809">
        <ele>56</ele>
        <time>2026-02-28T10:59:04Z</time>
      </trkpt>
      <trkpt lat="43.3096" lon="-1.52853">
        <ele>54</ele>
        <time>2026-02-28T10:59:10Z</time>
      </trkpt>
      <trkpt lat="43.30986" lon="-1.5291">
        <ele>52</ele>
        <time>2026-02-28T10:59:19Z</time>
      </trkpt>
      <trkpt lat="43.31004" lon="-1.52932">
        <ele>52</ele>
        <time>2026-02-28T10:59:23Z</time>
      </trkpt>
      <trkpt lat="43.31023" lon="-1.52946">
        <ele>51</ele>
        <time>2026-02-28T10:59:27Z</time>
      </trkpt>
      <trkpt lat="43.31045" lon="-1.52955">
        <ele>51</ele>
        <time>2026-02-28T10:59:31Z</time>
      </trkpt>
      <trkpt lat="43.31079" lon="-1.52962">
        <ele>51</ele>
        <time>2026-02-28T10:59:37Z</time>
      </trkpt>
      <trkpt lat="43.31097" lon="-1.52971">
        <ele>51</ele>
        <time>2026-02-28T10:59:40Z</time>
      </trkpt>
      <trkpt lat="43.31124" lon="-1.52993">
        <ele>50</ele>
        <time>2026-02-28T10:59:46Z</time>
      </trkpt>
      <trkpt lat="43.31152" lon="-1.53005">
        <ele>49</ele>
        <time>2026-02-28T10:59:51Z</time>
      </trkpt>
      <trkpt lat="43.31173" lon="-1.53009">
        <ele>49</ele>
        <time>2026-02-28T10:59:55Z</time>
      </trkpt>
      <trkpt lat="43.31191" lon="-1.53009">
        <ele>49</ele>
        <time>2026-02-28T10:59:58Z</time>
      </trkpt>
      <trkpt lat="43.31203" lon="-1.53007">
        <ele>49</ele>
        <time>2026-02-28T11:00:00Z</time>
      </trkpt>
      <trkpt lat="43.3123" lon="-1.52994">
        <ele>51</ele>
        <time>2026-02-28T11:00:05Z</time>
      </trkpt>
      <trkpt lat="43.31266" lon="-1.5296">
        <ele>54</ele>
        <time>2026-02-28T11:00:13Z</time>
      </trkpt>
      <trkpt lat="43.31279" lon="-1.52951">
        <ele>55</ele>
        <time>2026-02-28T11:00:16Z</time>
      </trkpt>
      <trkpt lat="43.31304" lon="-1.52941">
        <ele>57</ele>
        <time>2026-02-28T11:00:20Z</time>
      </trkpt>
      <trkpt lat="43.31325" lon="-1.52939">
        <ele>57</ele>
        <time>2026-02-28T11:00:24Z</time>
      </trkpt>
      <trkpt lat="43.31343" lon="-1.52942">
        <ele>58</ele>
        <time>2026-02-28T11:00:27Z</time>
      </trkpt>
      <trkpt lat="43.31357" lon="-1.52947">
        <ele>59</ele>
        <time>2026-02-28T11:00:30Z</time>
      </trkpt>
      <trkpt lat="43.31401" lon="-1.52976">
        <ele>60</ele>
        <time>2026-02-28T11:00:39Z</time>
      </trkpt>
      <trkpt lat="43.31423" lon="-1.52988">
        <ele>60</ele>
        <time>2026-02-28T11:00:43Z</time>
      </trkpt>
      <trkpt lat="43.31454" lon="-1.52999">
        <ele>59</ele>
        <time>2026-02-28T11:00:48Z</time>
      </trkpt>
      <trkpt lat="43.31492" lon="-1.53005">
        <ele>59</ele>
        <time>2026-02-28T11:00:55Z</time>
      </trkpt>
      <trkpt lat="43.31548" lon="-1.53004">
        <ele>59</ele>
        <time>2026-02-28T11:01:05Z</time>
      </trkpt>
      <trkpt lat="43.31583" lon="-1.53012">
        <ele>58</ele>
        <time>2026-02-28T11:01:12Z</time>
      </trkpt>
      <trkpt lat="43.31606" lon="-1.53023">
        <ele>56</ele>
        <time>2026-02-28T11:01:16Z</time>
      </trkpt>
      <trkpt lat="43.31632" lon="-1.53044">
        <ele>53</ele>
        <time>2026-02-28T11:01:21Z</time>
      </trkpt>
      <trkpt lat="43.31657" lon="-1.53075">
        <ele>51</ele>
        <time>2026-02-28T11:01:27Z</time>
      </trkpt>
      <trkpt lat="43.31773" lon="-1.53258">
        <ele>47</ele>
        <time>2026-02-28T11:01:59Z</time>
      </trkpt>
      <trkpt lat="43.31914" lon="-1.53472">
        <ele>41</ele>
        <time>2026-02-28T11:02:36Z</time>
      </trkpt>
      <trkpt lat="43.31979" lon="-1.53573">
        <ele>40</ele>
        <time>2026-02-28T11:02:54Z</time>
      </trkpt>
      <trkpt lat="43.31987" lon="-1.53592">
        <ele>39</ele>
        <time>2026-02-28T11:02:56Z</time>
      </trkpt>
      <trkpt lat="43.31995" lon="-1.53625">
        <ele>40</ele>
        <time>2026-02-28T11:03:01Z</time>
      </trkpt>
      <trkpt lat="43.31997" lon="-1.53637">
        <ele>40</ele>
        <time>2026-02-28T11:03:02Z</time>
      </trkpt>
      <trkpt lat="43.3201" lon="-1.5392">
        <ele>39</ele>
        <time>2026-02-28T11:03:39Z</time>
      </trkpt>
      <trkpt lat="43.32008" lon="-1.53954">
        <ele>39</ele>
        <time>2026-02-28T11:03:44Z</time>
      </trkpt>
      <trkpt lat="43.32" lon="-1.5399">
        <ele>38</ele>
        <time>2026-02-28T11:03:48Z</time>
      </trkpt>
      <trkpt lat="43.31883" lon="-1.54413">
        <ele>42</ele>
        <time>2026-02-28T11:04:47Z</time>
      </trkpt>
      <trkpt lat="43.31878" lon="-1.54436">
        <ele>41</ele>
        <time>2026-02-28T11:04:50Z</time>
      </trkpt>
      <trkpt lat="43.31875" lon="-1.54475">
        <ele>41</ele>
        <time>2026-02-28T11:04:55Z</time>
      </trkpt>
      <trkpt lat="43.31875" lon="-1.54516">
        <ele>40</ele>
        <time>2026-02-28T11:05:01Z</time>
      </trkpt>
      <trkpt lat="43.31881" lon="-1.54558">
        <ele>40</ele>
        <time>2026-02-28T11:05:06Z</time>
      </trkpt>
      <trkpt lat="43.31896" lon="-1.54605">
        <ele>40</ele>
        <time>2026-02-28T11:05:13Z</time>
      </trkpt>
      <trkpt lat="43.31912" lon="-1.5464">
        <ele>39</ele>
        <time>2026-02-28T11:05:18Z</time>
      </trkpt>
      <trkpt lat="43.31936" lon="-1.54676">
        <ele>40</ele>
        <time>2026-02-28T11:05:24Z</time>
      </trkpt>
      <trkpt lat="43.32116" lon="-1.54902">
        <ele>30</ele>
        <time>2026-02-28T11:06:08Z</time>
      </trkpt>
      <trkpt lat="43.32123" lon="-1.54913">
        <ele>30</ele>
        <time>2026-02-28T11:06:10Z</time>
      </trkpt>
      <trkpt lat="43.3213" lon="-1.54933">
        <ele>30</ele>
        <time>2026-02-28T11:06:13Z</time>
      </trkpt>
      <trkpt lat="43.32135" lon="-1.54965">
        <ele>30</ele>
        <time>2026-02-28T11:06:17Z</time>
      </trkpt>
      <trkpt lat="43.32141" lon="-1.55007">
        <ele>30</ele>
        <time>2026-02-28T11:06:22Z</time>
      </trkpt>
      <trkpt lat="43.32145" lon="-1.55031">
        <ele>31</ele>
        <time>2026-02-28T11:06:25Z</time>
      </trkpt>
      <trkpt lat="43.32152" lon="-1.55048">
        <ele>31</ele>
        <time>2026-02-28T11:06:28Z</time>
      </trkpt>
      <trkpt lat="43.32146" lon="-1.55058">
        <ele>31</ele>
        <time>2026-02-28T11:06:30Z</time>
      </trkpt>
      <trkpt lat="43.3214" lon="-1.55075">
        <ele>32</ele>
        <time>2026-02-28T11:06:32Z</time>
      </trkpt>
      <trkpt lat="43.32091" lon="-1.55274">
        <ele>33</ele>
        <time>2026-02-28T11:06:59Z</time>
      </trkpt>
      <trkpt lat="43.32078" lon="-1.55312">
        <ele>33</ele>
        <time>2026-02-28T11:07:05Z</time>
      </trkpt>
      <trkpt lat="43.32064" lon="-1.55338">
        <ele>34</ele>
        <time>2026-02-28T11:07:09Z</time>
      </trkpt>
      <trkpt lat="43.32054" lon="-1.5535">
        <ele>34</ele>
        <time>2026-02-28T11:07:11Z</time>
      </trkpt>
      <trkpt lat="43.32007" lon="-1.55395">
        <ele>35</ele>
        <time>2026-02-28T11:07:22Z</time>
      </trkpt>
      <trkpt lat="43.31996" lon="-1.55417">
        <ele>35</ele>
        <time>2026-02-28T11:07:25Z</time>
      </trkpt>
      <trkpt lat="43.3199" lon="-1.55439">
        <ele>35</ele>
        <time>2026-02-28T11:07:28Z</time>
      </trkpt>
      <trkpt lat="43.31962" lon="-1.55573">
        <ele>37</ele>
        <time>2026-02-28T11:07:46Z</time>
      </trkpt>
      <trkpt lat="43.31948" lon="-1.55631">
        <ele>40</ele>
        <time>2026-02-28T11:07:54Z</time>
      </trkpt>
      <trkpt lat="43.31941" lon="-1.55653">
        <ele>41</ele>
        <time>2026-02-28T11:07:57Z</time>
      </trkpt>
      <trkpt lat="43.3192" lon="-1.55689">
        <ele>43</ele>
        <time>2026-02-28T11:08:03Z</time>
      </trkpt>
      <trkpt lat="43.31864" lon="-1.55764">
        <ele>46</ele>
        <time>2026-02-28T11:08:17Z</time>
      </trkpt>
      <trkpt lat="43.31836" lon="-1.5581">
        <ele>46</ele>
        <time>2026-02-28T11:08:25Z</time>
      </trkpt>
      <trkpt lat="43.31809" lon="-1.55859">
        <ele>48</ele>
        <time>2026-02-28T11:08:33Z</time>
      </trkpt>
      <trkpt lat="43.31774" lon="-1.55909">
        <ele>50</ele>
        <time>2026-02-28T11:08:42Z</time>
      </trkpt>
      <trkpt lat="43.31763" lon="-1.55933">
        <ele>51</ele>
        <time>2026-02-28T11:08:45Z</time>
      </trkpt>
      <trkpt lat="43.31756" lon="-1.55967">
        <ele>52</ele>
        <time>2026-02-28T11:08:50Z</time>
      </trkpt>
      <trkpt lat="43.31748" lon="-1.55985">
        <ele>52</ele>
        <time>2026-02-28T11:08:53Z</time>
      </trkpt>
      <trkpt lat="43.31735" lon="-1.56002">
        <ele>53</ele>
        <time>2026-02-28T11:08:56Z</time>
      </trkpt>
      <trkpt lat="43.31662" lon="-1.56079">
        <ele>57</ele>
        <time>2026-02-28T11:09:12Z</time>
      </trkpt>
      <trkpt lat="43.31606" lon="-1.5614">
        <ele>54</ele>
        <time>2026-02-28T11:09:25Z</time>
      </trkpt>
      <trkpt lat="43.3159" lon="-1.56152">
        <ele>53</ele>
        <time>2026-02-28T11:09:28Z</time>
      </trkpt>
      <trkpt lat="43.31574" lon="-1.56157">
        <ele>53</ele>
        <time>2026-02-28T11:09:31Z</time>
      </trkpt>
      <trkpt lat="43.31559" lon="-1.56155">
        <ele>53</ele>
        <time>2026-02-28T11:09:34Z</time>
      </trkpt>
      <trkpt lat="43.31553" lon="-1.56153">
        <ele>52</ele>
        <time>2026-02-28T11:09:35Z</time>
      </trkpt>
      <trkpt lat="43.31496" lon="-1.56112">
        <ele>49</ele>
        <time>2026-02-28T11:09:46Z</time>
      </trkpt>
      <trkpt lat="43.31485" lon="-1.56107">
        <ele>48</ele>
        <time>2026-02-28T11:09:48Z</time>
      </trkpt>
      <trkpt lat="43.31477" lon="-1.56106">
        <ele>47</ele>
        <time>2026-02-28T11:09:50Z</time>
      </trkpt>
      <trkpt lat="43.31468" lon="-1.56113">
        <ele>46</ele>
        <time>2026-02-28T11:09:52Z</time>
      </trkpt>
      <trkpt lat="43.31461" lon="-1.56126">
        <ele>46</ele>
        <time>2026-02-28T11:09:54Z</time>
      </trkpt>
      <trkpt lat="43.31458" lon="-1.56134">
        <ele>46</ele>
        <time>2026-02-28T11:09:55Z</time>
      </trkpt>
      <trkpt lat="43.31448" lon="-1.56194">
        <ele>46</ele>
        <time>2026-02-28T11:10:03Z</time>
      </trkpt>
      <trkpt lat="43.31439" lon="-1.56228">
        <ele>45</ele>
        <time>2026-02-28T11:10:08Z</time>
      </trkpt>
      <trkpt lat="43.31429" lon="-1.56255">
        <ele>44</ele>
        <time>2026-02-28T11:10:11Z</time>
      </trkpt>
      <trkpt lat="43.31417" lon="-1.56278">
        <ele>44</ele>
        <time>2026-02-28T11:10:15Z</time>
      </trkpt>
      <trkpt lat="43.31401" lon="-1.56299">
        <ele>44</ele>
        <time>2026-02-28T11:10:19Z</time>
      </trkpt>
      <trkpt lat="43.31391" lon="-1.56308">
        <ele>44</ele>
        <time>2026-02-28T11:10:21Z</time>
      </trkpt>
      <trkpt lat="43.31331" lon="-1.56357">
        <ele>44</ele>
        <time>2026-02-28T11:10:34Z</time>
      </trkpt>
      <trkpt lat="43.31316" lon="-1.56371">
        <ele>45</ele>
        <time>2026-02-28T11:10:37Z</time>
      </trkpt>
      <trkpt lat="43.31305" lon="-1.56386">
        <ele>46</ele>
        <time>2026-02-28T11:10:40Z</time>
      </trkpt>
      <trkpt lat="43.31264" lon="-1.56459">
        <ele>47</ele>
        <time>2026-02-28T11:10:52Z</time>
      </trkpt>
      <trkpt lat="43.31252" lon="-1.56476">
        <ele>47</ele>
        <time>2026-02-28T11:10:55Z</time>
      </trkpt>
      <trkpt lat="43.31245" lon="-1.56484">
        <ele>47</ele>
        <time>2026-02-28T11:10:56Z</time>
      </trkpt>
      <trkpt lat="43.31226" lon="-1.56498">
        <ele>47</ele>
        <time>2026-02-28T11:11:00Z</time>
      </trkpt>
      <trkpt lat="43.31059" lon="-1.56599">
        <ele>47</ele>
        <time>2026-02-28T11:11:33Z</time>
      </trkpt>
      <trkpt lat="43.31039" lon="-1.56619">
        <ele>47</ele>
        <time>2026-02-28T11:11:37Z</time>
      </trkpt>
      <trkpt lat="43.31027" lon="-1.56635">
        <ele>48</ele>
        <time>2026-02-28T11:11:40Z</time>
      </trkpt>
      <trkpt lat="43.30981" lon="-1.56719">
        <ele>50</ele>
        <time>2026-02-28T11:11:54Z</time>
      </trkpt>
      <trkpt lat="43.30947" lon="-1.56775">
        <ele>49</ele>
        <time>2026-02-28T11:12:03Z</time>
      </trkpt>
      <trkpt lat="43.3094" lon="-1.56798">
        <ele>49</ele>
        <time>2026-02-28T11:12:06Z</time>
      </trkpt>
      <trkpt lat="43.3092" lon="-1.5688">
        <ele>50</ele>
        <time>2026-02-28T11:12:17Z</time>
      </trkpt>
      <trkpt lat="43.30918" lon="-1.56896">
        <ele>51</ele>
        <time>2026-02-28T11:12:19Z</time>
      </trkpt>
      <trkpt lat="43.30918" lon="-1.56908">
        <ele>51</ele>
        <time>2026-02-28T11:12:21Z</time>
      </trkpt>
      <trkpt lat="43.30924" lon="-1.56943">
        <ele>51</ele>
        <time>2026-02-28T11:12:26Z</time>
      </trkpt>
      <trkpt lat="43.30928" lon="-1.5696">
        <ele>51</ele>
        <time>2026-02-28T11:12:28Z</time>
      </trkpt>
      <trkpt lat="43.30952" lon="-1.57024">
        <ele>50</ele>
        <time>2026-02-28T11:12:37Z</time>
      </trkpt>
      <trkpt lat="43.30978" lon="-1.57064">
        <ele>50</ele>
        <time>2026-02-28T11:12:44Z</time>
      </trkpt>
      <trkpt lat="43.30984" lon="-1.57075">
        <ele>50</ele>
        <time>2026-02-28T11:12:46Z</time>
      </trkpt>
      <trkpt lat="43.30988" lon="-1.57086">
        <ele>49</ele>
        <time>2026-02-28T11:12:48Z</time>
      </trkpt>
      <trkpt lat="43.30989" lon="-1.57111">
        <ele>49</ele>
        <time>2026-02-28T11:12:51Z</time>
      </trkpt>
      <trkpt lat="43.30987" lon="-1.57138">
        <ele>48</ele>
        <time>2026-02-28T11:12:54Z</time>
      </trkpt>
      <trkpt lat="43.3098" lon="-1.57165">
        <ele>47</ele>
        <time>2026-02-28T11:12:58Z</time>
      </trkpt>
      <trkpt lat="43.30968" lon="-1.57201">
        <ele>47</ele>
        <time>2026-02-28T11:13:03Z</time>
      </trkpt>
      <trkpt lat="43.30968" lon="-1.57222">
        <ele>47</ele>
        <time>2026-02-28T11:13:06Z</time>
      </trkpt>
      <trkpt lat="43.30976" lon="-1.5723">
        <ele>48</ele>
        <time>2026-02-28T11:13:08Z</time>
      </trkpt>
      <trkpt lat="43.31007" lon="-1.57234">
        <ele>48</ele>
        <time>2026-02-28T11:13:13Z</time>
      </trkpt>
      <trkpt lat="43.3105" lon="-1.57243">
        <ele>46</ele>
        <time>2026-02-28T11:13:21Z</time>
      </trkpt>
      <trkpt lat="43.31078" lon="-1.57256">
        <ele>44</ele>
        <time>2026-02-28T11:13:26Z</time>
      </trkpt>
      <trkpt lat="43.31095" lon="-1.57271">
        <ele>45</ele>
        <time>2026-02-28T11:13:30Z</time>
      </trkpt>
      <trkpt lat="43.31221" lon="-1.57392">
        <ele>51</ele>
        <time>2026-02-28T11:13:57Z</time>
      </trkpt>
      <trkpt lat="43.31256" lon="-1.57422">
        <ele>51</ele>
        <time>2026-02-28T11:14:05Z</time>
      </trkpt>
      <trkpt lat="43.31333" lon="-1.57478">
        <ele>53</ele>
        <time>2026-02-28T11:14:20Z</time>
      </trkpt>
      <trkpt lat="43.31351" lon="-1.57496">
        <ele>53</ele>
        <time>2026-02-28T11:14:24Z</time>
      </trkpt>
      <trkpt lat="43.31359" lon="-1.57506">
        <ele>54</ele>
        <time>2026-02-28T11:14:26Z</time>
      </trkpt>
      <trkpt lat="43.31369" lon="-1.57529">
        <ele>55</ele>
        <time>2026-02-28T11:14:29Z</time>
      </trkpt>
      <trkpt lat="43.31382" lon="-1.5757">
        <ele>56</ele>
        <time>2026-02-28T11:14:35Z</time>
      </trkpt>
      <trkpt lat="43.3144" lon="-1.57773">
        <ele>61</ele>
        <time>2026-02-28T11:15:03Z</time>
      </trkpt>
      <trkpt lat="43.31496" lon="-1.5798">
        <ele>55</ele>
        <time>2026-02-28T11:15:32Z</time>
      </trkpt>
      <trkpt lat="43.31502" lon="-1.58012">
        <ele>55</ele>
        <time>2026-02-28T11:15:36Z</time>
      </trkpt>
      <trkpt lat="43.31503" lon="-1.58036">
        <ele>56</ele>
        <time>2026-02-28T11:15:39Z</time>
      </trkpt>
      <trkpt lat="43.315" lon="-1.58057">
        <ele>56</ele>
        <time>2026-02-28T11:15:42Z</time>
      </trkpt>
      <trkpt lat="43.31492" lon="-1.58083">
        <ele>57</ele>
        <time>2026-02-28T11:15:46Z</time>
      </trkpt>
      <trkpt lat="43.31462" lon="-1.58164">
        <ele>59</ele>
        <time>2026-02-28T11:15:58Z</time>
      </trkpt>
      <trkpt lat="43.31457" lon="-1.58188">
        <ele>59</ele>
        <time>2026-02-28T11:16:01Z</time>
      </trkpt>
      <trkpt lat="43.31456" lon="-1.58226">
        <ele>60</ele>
        <time>2026-02-28T11:16:06Z</time>
      </trkpt>
      <trkpt lat="43.31458" lon="-1.5825">
        <ele>60</ele>
        <time>2026-02-28T11:16:09Z</time>
      </trkpt>
      <trkpt lat="43.31464" lon="-1.58271">
        <ele>61</ele>
        <time>2026-02-28T11:16:12Z</time>
      </trkpt>
      <trkpt lat="43.31472" lon="-1.58277">
        <ele>61</ele>
        <time>2026-02-28T11:16:13Z</time>
      </trkpt>
      <trkpt lat="43.31476" lon="-1.58287">
        <ele>61</ele>
        <time>2026-02-28T11:16:15Z</time>
      </trkpt>
      <trkpt lat="43.31476" lon="-1.583">
        <ele>62</ele>
        <time>2026-02-28T11:16:17Z</time>
      </trkpt>
      <trkpt lat="43.31482" lon="-1.58323">
        <ele>63</ele>
        <time>2026-02-28T11:16:20Z</time>
      </trkpt>
      <trkpt lat="43.31542" lon="-1.5839">
        <ele>67</ele>
        <time>2026-02-28T11:16:33Z</time>
      </trkpt>
      <trkpt lat="43.31559" lon="-1.58416">
        <ele>69</ele>
        <time>2026-02-28T11:16:38Z</time>
      </trkpt>
      <trkpt lat="43.3157" lon="-1.58443">
        <ele>70</ele>
        <time>2026-02-28T11:16:42Z</time>
      </trkpt>
      <trkpt lat="43.31582" lon="-1.58483">
        <ele>72</ele>
        <time>2026-02-28T11:16:48Z</time>
      </trkpt>
      <trkpt lat="43.31622" lon="-1.58668">
        <ele>85</ele>
        <time>2026-02-28T11:17:13Z</time>
      </trkpt>
      <trkpt lat="43.31633" lon="-1.58693">
        <ele>88</ele>
        <time>2026-02-28T11:17:16Z</time>
      </trkpt>
      <trkpt lat="43.31648" lon="-1.58716">
        <ele>92</ele>
        <time>2026-02-28T11:17:20Z</time>
      </trkpt>
      <trkpt lat="43.31696" lon="-1.58753">
        <ele>100</ele>
        <time>2026-02-28T11:17:30Z</time>
      </trkpt>
      <trkpt lat="43.3172" lon="-1.58782">
        <ele>107</ele>
        <time>2026-02-28T11:17:36Z</time>
      </trkpt>
      <trkpt lat="43.31721" lon="-1.5879">
        <ele>108</ele>
        <time>2026-02-28T11:17:37Z</time>
      </trkpt>
      <trkpt lat="43.31716" lon="-1.58797">
        <ele>109</ele>
        <time>2026-02-28T11:17:38Z</time>
      </trkpt>
      <trkpt lat="43.31655" lon="-1.58801">
        <ele>107</ele>
        <time>2026-02-28T11:17:49Z</time>
      </trkpt>
      <trkpt lat="43.31617" lon="-1.58807">
        <ele>107</ele>
        <time>2026-02-28T11:17:56Z</time>
      </trkpt>
      <trkpt lat="43.31585" lon="-1.58822">
        <ele>111</ele>
        <time>2026-02-28T11:18:02Z</time>
      </trkpt>
      <trkpt lat="43.3155" lon="-1.58832">
        <ele>111</ele>
        <time>2026-02-28T11:18:08Z</time>
      </trkpt>
      <trkpt lat="43.31501" lon="-1.58834">
        <ele>107</ele>
        <time>2026-02-28T11:18:17Z</time>
      </trkpt>
      <trkpt lat="43.31494" lon="-1.58837">
        <ele>107</ele>
        <time>2026-02-28T11:18:18Z</time>
      </trkpt>
      <trkpt lat="43.31489" lon="-1.58843">
        <ele>108</ele>
        <time>2026-02-28T11:18:19Z</time>
      </trkpt>
      <trkpt lat="43.31489" lon="-1.58852">
        <ele>111</ele>
        <time>2026-02-28T11:18:21Z</time>
      </trkpt>
      <trkpt lat="43.31491" lon="-1.58857">
        <ele>112</ele>
        <time>2026-02-28T11:18:21Z</time>
      </trkpt>
      <trkpt lat="43.31496" lon="-1.58861">
        <ele>114</ele>
        <time>2026-02-28T11:18:22Z</time>
      </trkpt>
      <trkpt lat="43.31503" lon="-1.58861">
        <ele>114</ele>
        <time>2026-02-28T11:18:24Z</time>
      </trkpt>
      <trkpt lat="43.31515" lon="-1.58856">
        <ele>114</ele>
        <time>2026-02-28T11:18:26Z</time>
      </trkpt>
      <trkpt lat="43.31529" lon="-1.58853">
        <ele>114</ele>
        <time>2026-02-28T11:18:28Z</time>
      </trkpt>
      <trkpt lat="43.31553" lon="-1.58858">
        <ele>117</ele>
        <time>2026-02-28T11:18:33Z</time>
      </trkpt>
      <trkpt lat="43.31597" lon="-1.58856">
        <ele>119</ele>
        <time>2026-02-28T11:18:41Z</time>
      </trkpt>
      <trkpt lat="43.3163" lon="-1.58861">
        <ele>120</ele>
        <time>2026-02-28T11:18:46Z</time>
      </trkpt>
      <trkpt lat="43.31651" lon="-1.58868">
        <ele>122</ele>
        <time>2026-02-28T11:18:50Z</time>
      </trkpt>
      <trkpt lat="43.31695" lon="-1.58873">
        <ele>123</ele>
        <time>2026-02-28T11:18:58Z</time>
      </trkpt>
      <trkpt lat="43.31705" lon="-1.58876">
        <ele>123</ele>
        <time>2026-02-28T11:19:00Z</time>
      </trkpt>
      <trkpt lat="43.31748" lon="-1.58922">
        <ele>127</ele>
        <time>2026-02-28T11:19:10Z</time>
      </trkpt>
      <trkpt lat="43.31763" lon="-1.5893">
        <ele>128</ele>
        <time>2026-02-28T11:19:13Z</time>
      </trkpt>
      <trkpt lat="43.31792" lon="-1.58933">
        <ele>128</ele>
        <time>2026-02-28T11:19:18Z</time>
      </trkpt>
      <trkpt lat="43.318" lon="-1.58937">
        <ele>128</ele>
        <time>2026-02-28T11:19:19Z</time>
      </trkpt>
      <trkpt lat="43.31806" lon="-1.58942">
        <ele>128</ele>
        <time>2026-02-28T11:19:20Z</time>
      </trkpt>
      <trkpt lat="43.31812" lon="-1.58952">
        <ele>128</ele>
        <time>2026-02-28T11:19:22Z</time>
      </trkpt>
      <trkpt lat="43.31814" lon="-1.5897">
        <ele>128</ele>
        <time>2026-02-28T11:19:24Z</time>
      </trkpt>
      <trkpt lat="43.31813" lon="-1.58977">
        <ele>128</ele>
        <time>2026-02-28T11:19:25Z</time>
      </trkpt>
      <trkpt lat="43.31789" lon="-1.59021">
        <ele>126</ele>
        <time>2026-02-28T11:19:33Z</time>
      </trkpt>
      <trkpt lat="43.31781" lon="-1.59031">
        <ele>125</ele>
        <time>2026-02-28T11:19:34Z</time>
      </trkpt>
      <trkpt lat="43.31774" lon="-1.59036">
        <ele>125</ele>
        <time>2026-02-28T11:19:36Z</time>
      </trkpt>
      <trkpt lat="43.31767" lon="-1.59037">
        <ele>125</ele>
        <time>2026-02-28T11:19:37Z</time>
      </trkpt>
      <trkpt lat="43.31737" lon="-1.5903">
        <ele>129</ele>
        <time>2026-02-28T11:19:43Z</time>
      </trkpt>
      <trkpt lat="43.31722" lon="-1.5903">
        <ele>131</ele>
        <time>2026-02-28T11:19:45Z</time>
      </trkpt>
      <trkpt lat="43.31709" lon="-1.59033">
        <ele>132</ele>
        <time>2026-02-28T11:19:48Z</time>
      </trkpt>
      <trkpt lat="43.31698" lon="-1.59039">
        <ele>132</ele>
        <time>2026-02-28T11:19:50Z</time>
      </trkpt>
      <trkpt lat="43.31689" lon="-1.59049">
        <ele>132</ele>
        <time>2026-02-28T11:19:52Z</time>
      </trkpt>
      <trkpt lat="43.31671" lon="-1.59078">
        <ele>131</ele>
        <time>2026-02-28T11:19:57Z</time>
      </trkpt>
      <trkpt lat="43.31664" lon="-1.59086">
        <ele>131</ele>
        <time>2026-02-28T11:19:58Z</time>
      </trkpt>
      <trkpt lat="43.31644" lon="-1.59099">
        <ele>132</ele>
        <time>2026-02-28T11:20:02Z</time>
      </trkpt>
      <trkpt lat="43.31611" lon="-1.59107">
        <ele>136</ele>
        <time>2026-02-28T11:20:08Z</time>
      </trkpt>
      <trkpt lat="43.31602" lon="-1.59114">
        <ele>137</ele>
        <time>2026-02-28T11:20:10Z</time>
      </trkpt>
      <trkpt lat="43.31597" lon="-1.59124">
        <ele>137</ele>
        <time>2026-02-28T11:20:12Z</time>
      </trkpt>
      <trkpt lat="43.31593" lon="-1.59156">
        <ele>136</ele>
        <time>2026-02-28T11:20:16Z</time>
      </trkpt>
      <trkpt lat="43.31586" lon="-1.59178">
        <ele>136</ele>
        <time>2026-02-28T11:20:19Z</time>
      </trkpt>
      <trkpt lat="43.3156" lon="-1.59243">
        <ele>142</ele>
        <time>2026-02-28T11:20:28Z</time>
      </trkpt>
      <trkpt lat="43.31542" lon="-1.59296">
        <ele>148</ele>
        <time>2026-02-28T11:20:36Z</time>
      </trkpt>
      <trkpt lat="43.3153" lon="-1.59315">
        <ele>152</ele>
        <time>2026-02-28T11:20:39Z</time>
      </trkpt>
      <trkpt lat="43.31516" lon="-1.59328">
        <ele>156</ele>
        <time>2026-02-28T11:20:42Z</time>
      </trkpt>
      <trkpt lat="43.31514" lon="-1.59336">
        <ele>157</ele>
        <time>2026-02-28T11:20:43Z</time>
      </trkpt>
      <trkpt lat="43.31514" lon="-1.59346">
        <ele>158</ele>
        <time>2026-02-28T11:20:45Z</time>
      </trkpt>
      <trkpt lat="43.31517" lon="-1.59352">
        <ele>158</ele>
        <time>2026-02-28T11:20:46Z</time>
      </trkpt>
      <trkpt lat="43.31529" lon="-1.59359">
        <ele>156</ele>
        <time>2026-02-28T11:20:48Z</time>
      </trkpt>
      <trkpt lat="43.31537" lon="-1.59366">
        <ele>154</ele>
        <time>2026-02-28T11:20:50Z</time>
      </trkpt>
      <trkpt lat="43.31544" lon="-1.59381">
        <ele>155</ele>
        <time>2026-02-28T11:20:52Z</time>
      </trkpt>
      <trkpt lat="43.3155" lon="-1.59401">
        <ele>156</ele>
        <time>2026-02-28T11:20:55Z</time>
      </trkpt>
      <trkpt lat="43.31554" lon="-1.59408">
        <ele>156</ele>
        <time>2026-02-28T11:20:56Z</time>
      </trkpt>
      <trkpt lat="43.31561" lon="-1.59412">
        <ele>155</ele>
        <time>2026-02-28T11:20:57Z</time>
      </trkpt>
      <trkpt lat="43.31587" lon="-1.59417">
        <ele>151</ele>
        <time>2026-02-28T11:21:02Z</time>
      </trkpt>
      <trkpt lat="43.31594" lon="-1.59422">
        <ele>151</ele>
        <time>2026-02-28T11:21:03Z</time>
      </trkpt>
      <trkpt lat="43.316" lon="-1.59428">
        <ele>151</ele>
        <time>2026-02-28T11:21:05Z</time>
      </trkpt>
      <trkpt lat="43.31621" lon="-1.59469">
        <ele>157</ele>
        <time>2026-02-28T11:21:11Z</time>
      </trkpt>
      <trkpt lat="43.31631" lon="-1.59475">
        <ele>157</ele>
        <time>2026-02-28T11:21:13Z</time>
      </trkpt>
      <trkpt lat="43.31651" lon="-1.59482">
        <ele>155</ele>
        <time>2026-02-28T11:21:17Z</time>
      </trkpt>
      <trkpt lat="43.31658" lon="-1.59487">
        <ele>155</ele>
        <time>2026-02-28T11:21:18Z</time>
      </trkpt>
      <trkpt lat="43.31682" lon="-1.59515">
        <ele>157</ele>
        <time>2026-02-28T11:21:24Z</time>
      </trkpt>
      <trkpt lat="43.31705" lon="-1.59529">
        <ele>155</ele>
        <time>2026-02-28T11:21:28Z</time>
      </trkpt>
      <trkpt lat="43.31723" lon="-1.59555">
        <ele>155</ele>
        <time>2026-02-28T11:21:33Z</time>
      </trkpt>
      <trkpt lat="43.31732" lon="-1.5957">
        <ele>155</ele>
        <time>2026-02-28T11:21:35Z</time>
      </trkpt>
      <trkpt lat="43.31737" lon="-1.59582">
        <ele>156</ele>
        <time>2026-02-28T11:21:37Z</time>
      </trkpt>
      <trkpt lat="43.31739" lon="-1.59594">
        <ele>156</ele>
        <time>2026-02-28T11:21:39Z</time>
      </trkpt>
      <trkpt lat="43.31739" lon="-1.59609">
        <ele>158</ele>
        <time>2026-02-28T11:21:41Z</time>
      </trkpt>
      <trkpt lat="43.31737" lon="-1.59623">
        <ele>160</ele>
        <time>2026-02-28T11:21:43Z</time>
      </trkpt>
      <trkpt lat="43.31724" lon="-1.59658">
        <ele>168</ele>
        <time>2026-02-28T11:21:48Z</time>
      </trkpt>
      <trkpt lat="43.31723" lon="-1.59668">
        <ele>170</ele>
        <time>2026-02-28T11:21:49Z</time>
      </trkpt>
      <trkpt lat="43.31725" lon="-1.59675">
        <ele>170</ele>
        <time>2026-02-28T11:21:50Z</time>
      </trkpt>
      <trkpt lat="43.31737" lon="-1.59684">
        <ele>168</ele>
        <time>2026-02-28T11:21:52Z</time>
      </trkpt>
      <trkpt lat="43.31744" lon="-1.59691">
        <ele>167</ele>
        <time>2026-02-28T11:21:54Z</time>
      </trkpt>
      <trkpt lat="43.31758" lon="-1.59719">
        <ele>170</ele>
        <time>2026-02-28T11:21:58Z</time>
      </trkpt>
      <trkpt lat="43.31763" lon="-1.59722">
        <ele>170</ele>
        <time>2026-02-28T11:21:59Z</time>
      </trkpt>
      <trkpt lat="43.31781" lon="-1.59722">
        <ele>167</ele>
        <time>2026-02-28T11:22:02Z</time>
      </trkpt>
      <trkpt lat="43.31793" lon="-1.59726">
        <ele>166</ele>
        <time>2026-02-28T11:22:05Z</time>
      </trkpt>
      <trkpt lat="43.31813" lon="-1.59751">
        <ele>167</ele>
        <time>2026-02-28T11:22:09Z</time>
      </trkpt>
      <trkpt lat="43.31825" lon="-1.59764">
        <ele>167</ele>
        <time>2026-02-28T11:22:12Z</time>
      </trkpt>
      <trkpt lat="43.31864" lon="-1.59784">
        <ele>167</ele>
        <time>2026-02-28T11:22:20Z</time>
      </trkpt>
      <trkpt lat="43.31871" lon="-1.59792">
        <ele>168</ele>
        <time>2026-02-28T11:22:21Z</time>
      </trkpt>
      <trkpt lat="43.31884" lon="-1.59819">
        <ele>172</ele>
        <time>2026-02-28T11:22:25Z</time>
      </trkpt>
      <trkpt lat="43.31893" lon="-1.59824">
        <ele>172</ele>
        <time>2026-02-28T11:22:27Z</time>
      </trkpt>
      <trkpt lat="43.3192" lon="-1.59822">
        <ele>170</ele>
        <time>2026-02-28T11:22:32Z</time>
      </trkpt>
      <trkpt lat="43.31932" lon="-1.5983">
        <ele>171</ele>
        <time>2026-02-28T11:22:34Z</time>
      </trkpt>
      <trkpt lat="43.31957" lon="-1.5985">
        <ele>177</ele>
        <time>2026-02-28T11:22:39Z</time>
      </trkpt>
      <trkpt lat="43.3197" lon="-1.59856">
        <ele>178</ele>
        <time>2026-02-28T11:22:42Z</time>
      </trkpt>
      <trkpt lat="43.31976" lon="-1.59855">
        <ele>178</ele>
        <time>2026-02-28T11:22:43Z</time>
      </trkpt>
      <trkpt lat="43.32" lon="-1.59835">
        <ele>173</ele>
        <time>2026-02-28T11:22:48Z</time>
      </trkpt>
      <trkpt lat="43.3202" lon="-1.59824">
        <ele>174</ele>
        <time>2026-02-28T11:22:52Z</time>
      </trkpt>
      <trkpt lat="43.32027" lon="-1.59816">
        <ele>173</ele>
        <time>2026-02-28T11:22:53Z</time>
      </trkpt>
      <trkpt lat="43.32042" lon="-1.59788">
        <ele>168</ele>
        <time>2026-02-28T11:22:58Z</time>
      </trkpt>
      <trkpt lat="43.32052" lon="-1.59779">
        <ele>167</ele>
        <time>2026-02-28T11:23:00Z</time>
      </trkpt>
      <trkpt lat="43.3206" lon="-1.59781">
        <ele>169</ele>
        <time>2026-02-28T11:23:02Z</time>
      </trkpt>
      <trkpt lat="43.32103" lon="-1.59803">
        <ele>175</ele>
        <time>2026-02-28T11:23:10Z</time>
      </trkpt>
      <trkpt lat="43.32138" lon="-1.59812">
        <ele>174</ele>
        <time>2026-02-28T11:23:16Z</time>
      </trkpt>
      <trkpt lat="43.32154" lon="-1.5982">
        <ele>175</ele>
        <time>2026-02-28T11:23:19Z</time>
      </trkpt>
      <trkpt lat="43.32172" lon="-1.59841">
        <ele>177</ele>
        <time>2026-02-28T11:23:23Z</time>
      </trkpt>
      <trkpt lat="43.32184" lon="-1.59866">
        <ele>177</ele>
        <time>2026-02-28T11:23:27Z</time>
      </trkpt>
      <trkpt lat="43.32187" lon="-1.59887">
        <ele>178</ele>
        <time>2026-02-28T11:23:30Z</time>
      </trkpt>
      <trkpt lat="43.3219" lon="-1.59928">
        <ele>182</ele>
        <time>2026-02-28T11:23:35Z</time>
      </trkpt>
      <trkpt lat="43.32189" lon="-1.59943">
        <ele>184</ele>
        <time>2026-02-28T11:23:37Z</time>
      </trkpt>
      <trkpt lat="43.32182" lon="-1.59969">
        <ele>189</ele>
        <time>2026-02-28T11:23:41Z</time>
      </trkpt>
      <trkpt lat="43.32181" lon="-1.59981">
        <ele>191</ele>
        <time>2026-02-28T11:23:42Z</time>
      </trkpt>
      <trkpt lat="43.32183" lon="-1.59986">
        <ele>191</ele>
        <time>2026-02-28T11:23:43Z</time>
      </trkpt>
      <trkpt lat="43.32191" lon="-1.59993">
        <ele>192</ele>
        <time>2026-02-28T11:23:45Z</time>
      </trkpt>
      <trkpt lat="43.32203" lon="-1.5999">
        <ele>191</ele>
        <time>2026-02-28T11:23:47Z</time>
      </trkpt>
      <trkpt lat="43.3223" lon="-1.59953">
        <ele>183</ele>
        <time>2026-02-28T11:23:54Z</time>
      </trkpt>
      <trkpt lat="43.32242" lon="-1.59947">
        <ele>181</ele>
        <time>2026-02-28T11:23:56Z</time>
      </trkpt>
      <trkpt lat="43.32252" lon="-1.59949">
        <ele>180</ele>
        <time>2026-02-28T11:23:58Z</time>
      </trkpt>
      <trkpt lat="43.32265" lon="-1.59959">
        <ele>181</ele>
        <time>2026-02-28T11:24:00Z</time>
      </trkpt>
      <trkpt lat="43.32286" lon="-1.59984">
        <ele>184</ele>
        <time>2026-02-28T11:24:05Z</time>
      </trkpt>
      <trkpt lat="43.32306" lon="-1.59999">
        <ele>184</ele>
        <time>2026-02-28T11:24:09Z</time>
      </trkpt>
      <trkpt lat="43.32329" lon="-1.60012">
        <ele>184</ele>
        <time>2026-02-28T11:24:14Z</time>
      </trkpt>
      <trkpt lat="43.3236" lon="-1.60023">
        <ele>182</ele>
        <time>2026-02-28T11:24:20Z</time>
      </trkpt>
      <trkpt lat="43.32373" lon="-1.6003">
        <ele>181</ele>
        <time>2026-02-28T11:24:22Z</time>
      </trkpt>
      <trkpt lat="43.32388" lon="-1.60045">
        <ele>180</ele>
        <time>2026-02-28T11:24:25Z</time>
      </trkpt>
      <trkpt lat="43.32422" lon="-1.60096">
        <ele>179</ele>
        <time>2026-02-28T11:24:34Z</time>
      </trkpt>
      <trkpt lat="43.32428" lon="-1.60101">
        <ele>179</ele>
        <time>2026-02-28T11:24:36Z</time>
      </trkpt>
      <trkpt lat="43.32438" lon="-1.60104">
        <ele>179</ele>
        <time>2026-02-28T11:24:37Z</time>
      </trkpt>
      <trkpt lat="43.32452" lon="-1.60094">
        <ele>176</ele>
        <time>2026-02-28T11:24:40Z</time>
      </trkpt>
      <trkpt lat="43.3249" lon="-1.60061">
        <ele>173</ele>
        <time>2026-02-28T11:24:48Z</time>
      </trkpt>
      <trkpt lat="43.32498" lon="-1.60056">
        <ele>173</ele>
        <time>2026-02-28T11:24:50Z</time>
      </trkpt>
      <trkpt lat="43.32507" lon="-1.60054">
        <ele>173</ele>
        <time>2026-02-28T11:24:51Z</time>
      </trkpt>
      <trkpt lat="43.32517" lon="-1.60054">
        <ele>174</ele>
        <time>2026-02-28T11:24:53Z</time>
      </trkpt>
      <trkpt lat="43.32529" lon="-1.60061">
        <ele>173</ele>
        <time>2026-02-28T11:24:55Z</time>
      </trkpt>
      <trkpt lat="43.32561" lon="-1.60087">
        <ele>170</ele>
        <time>2026-02-28T11:25:02Z</time>
      </trkpt>
      <trkpt lat="43.32578" lon="-1.60097">
        <ele>168</ele>
        <time>2026-02-28T11:25:05Z</time>
      </trkpt>
      <trkpt lat="43.32595" lon="-1.60104">
        <ele>168</ele>
        <time>2026-02-28T11:25:09Z</time>
      </trkpt>
      <trkpt lat="43.32685" lon="-1.60134">
        <ele>169</ele>
        <time>2026-02-28T11:25:25Z</time>
      </trkpt>
      <trkpt lat="43.32714" lon="-1.60151">
        <ele>168</ele>
        <time>2026-02-28T11:25:31Z</time>
      </trkpt>
      <trkpt lat="43.32751" lon="-1.60178">
        <ele>166</ele>
        <time>2026-02-28T11:25:38Z</time>
      </trkpt>
      <trkpt lat="43.32772" lon="-1.60187">
        <ele>164</ele>
        <time>2026-02-28T11:25:42Z</time>
      </trkpt>
      <trkpt lat="43.32792" lon="-1.60191">
        <ele>164</ele>
        <time>2026-02-28T11:25:46Z</time>
      </trkpt>
      <trkpt lat="43.32899" lon="-1.60204">
        <ele>162</ele>
        <time>2026-02-28T11:26:05Z</time>
      </trkpt>
      <trkpt lat="43.32981" lon="-1.60215">
        <ele>158</ele>
        <time>2026-02-28T11:26:19Z</time>
      </trkpt>
      <trkpt lat="43.33019" lon="-1.60227">
        <ele>155</ele>
        <time>2026-02-28T11:26:26Z</time>
      </trkpt>
      <trkpt lat="43.33094" lon="-1.60262">
        <ele>152</ele>
        <time>2026-02-28T11:26:40Z</time>
      </trkpt>
      <trkpt lat="43.3311" lon="-1.60273">
        <ele>151</ele>
        <time>2026-02-28T11:26:44Z</time>
      </trkpt>
      <trkpt lat="43.33128" lon="-1.60292">
        <ele>150</ele>
        <time>2026-02-28T11:26:48Z</time>
      </trkpt>
      <trkpt lat="43.33143" lon="-1.60316">
        <ele>150</ele>
        <time>2026-02-28T11:26:52Z</time>
      </trkpt>
      <trkpt lat="43.33156" lon="-1.60359">
        <ele>148</ele>
        <time>2026-02-28T11:26:58Z</time>
      </trkpt>
      <trkpt lat="43.33174" lon="-1.60406">
        <ele>145</ele>
        <time>2026-02-28T11:27:05Z</time>
      </trkpt>
      <trkpt lat="43.33178" lon="-1.60435">
        <ele>142</ele>
        <time>2026-02-28T11:27:08Z</time>
      </trkpt>
      <trkpt lat="43.33185" lon="-1.60466">
        <ele>139</ele>
        <time>2026-02-28T11:27:13Z</time>
      </trkpt>
      <trkpt lat="43.33199" lon="-1.60488">
        <ele>139</ele>
        <time>2026-02-28T11:27:16Z</time>
      </trkpt>
      <trkpt lat="43.33212" lon="-1.60497">
        <ele>141</ele>
        <time>2026-02-28T11:27:19Z</time>
      </trkpt>
      <trkpt lat="43.33234" lon="-1.60504">
        <ele>146</ele>
        <time>2026-02-28T11:27:23Z</time>
      </trkpt>
      <trkpt lat="43.33244" lon="-1.60513">
        <ele>148</ele>
        <time>2026-02-28T11:27:25Z</time>
      </trkpt>
      <trkpt lat="43.33247" lon="-1.60524">
        <ele>147</ele>
        <time>2026-02-28T11:27:27Z</time>
      </trkpt>
      <trkpt lat="43.33243" lon="-1.6057">
        <ele>140</ele>
        <time>2026-02-28T11:27:33Z</time>
      </trkpt>
      <trkpt lat="43.33249" lon="-1.60601">
        <ele>136</ele>
        <time>2026-02-28T11:27:37Z</time>
      </trkpt>
      <trkpt lat="43.33268" lon="-1.60651">
        <ele>132</ele>
        <time>2026-02-28T11:27:44Z</time>
      </trkpt>
      <trkpt lat="43.33317" lon="-1.60728">
        <ele>129</ele>
        <time>2026-02-28T11:27:57Z</time>
      </trkpt>
      <trkpt lat="43.33331" lon="-1.60735">
        <ele>131</ele>
        <time>2026-02-28T11:28:00Z</time>
      </trkpt>
      <trkpt lat="43.33344" lon="-1.60746">
        <ele>131</ele>
        <time>2026-02-28T11:28:03Z</time>
      </trkpt>
      <trkpt lat="43.33353" lon="-1.60767">
        <ele>129</ele>
        <time>2026-02-28T11:28:06Z</time>
      </trkpt>
      <trkpt lat="43.33353" lon="-1.60788">
        <ele>125</ele>
        <time>2026-02-28T11:28:09Z</time>
      </trkpt>
      <trkpt lat="43.33359" lon="-1.60813">
        <ele>122</ele>
        <time>2026-02-28T11:28:12Z</time>
      </trkpt>
      <trkpt lat="43.33373" lon="-1.60836">
        <ele>120</ele>
        <time>2026-02-28T11:28:16Z</time>
      </trkpt>
      <trkpt lat="43.3339" lon="-1.60852">
        <ele>119</ele>
        <time>2026-02-28T11:28:20Z</time>
      </trkpt>
      <trkpt lat="43.33401" lon="-1.60853">
        <ele>121</ele>
        <time>2026-02-28T11:28:21Z</time>
      </trkpt>
      <trkpt lat="43.33424" lon="-1.60845">
        <ele>127</ele>
        <time>2026-02-28T11:28:26Z</time>
      </trkpt>
      <trkpt lat="43.33434" lon="-1.60846">
        <ele>130</ele>
        <time>2026-02-28T11:28:27Z</time>
      </trkpt>
      <trkpt lat="43.33441" lon="-1.60858">
        <ele>130</ele>
        <time>2026-02-28T11:28:29Z</time>
      </trkpt>
      <trkpt lat="43.33442" lon="-1.60876">
        <ele>127</ele>
        <time>2026-02-28T11:28:32Z</time>
      </trkpt>
      <trkpt lat="43.33434" lon="-1.60918">
        <ele>117</ele>
        <time>2026-02-28T11:28:37Z</time>
      </trkpt>
      <trkpt lat="43.33435" lon="-1.60941">
        <ele>115</ele>
        <time>2026-02-28T11:28:40Z</time>
      </trkpt>
      <trkpt lat="43.33441" lon="-1.60956">
        <ele>116</ele>
        <time>2026-02-28T11:28:43Z</time>
      </trkpt>
      <trkpt lat="43.33457" lon="-1.60973">
        <ele>121</ele>
        <time>2026-02-28T11:28:46Z</time>
      </trkpt>
      <trkpt lat="43.33461" lon="-1.60989">
        <ele>121</ele>
        <time>2026-02-28T11:28:48Z</time>
      </trkpt>
      <trkpt lat="43.33458" lon="-1.61001">
        <ele>119</ele>
        <time>2026-02-28T11:28:50Z</time>
      </trkpt>
      <trkpt lat="43.33439" lon="-1.61015">
        <ele>112</ele>
        <time>2026-02-28T11:28:54Z</time>
      </trkpt>
      <trkpt lat="43.3343" lon="-1.61045">
        <ele>108</ele>
        <time>2026-02-28T11:28:58Z</time>
      </trkpt>
      <trkpt lat="43.33429" lon="-1.61078">
        <ele>108</ele>
        <time>2026-02-28T11:29:02Z</time>
      </trkpt>
      <trkpt lat="43.33423" lon="-1.61102">
        <ele>103</ele>
        <time>2026-02-28T11:29:06Z</time>
      </trkpt>
      <trkpt lat="43.33421" lon="-1.61125">
        <ele>100</ele>
        <time>2026-02-28T11:29:09Z</time>
      </trkpt>
      <trkpt lat="43.33423" lon="-1.6117">
        <ele>97</ele>
        <time>2026-02-28T11:29:14Z</time>
      </trkpt>
      <trkpt lat="43.33431" lon="-1.612">
        <ele>94</ele>
        <time>2026-02-28T11:29:19Z</time>
      </trkpt>
      <trkpt lat="43.3344" lon="-1.61214">
        <ele>94</ele>
        <time>2026-02-28T11:29:21Z</time>
      </trkpt>
      <trkpt lat="43.33448" lon="-1.61219">
        <ele>95</ele>
        <time>2026-02-28T11:29:23Z</time>
      </trkpt>
      <trkpt lat="43.33457" lon="-1.61218">
        <ele>98</ele>
        <time>2026-02-28T11:29:24Z</time>
      </trkpt>
      <trkpt lat="43.33471" lon="-1.61223">
        <ele>101</ele>
        <time>2026-02-28T11:29:27Z</time>
      </trkpt>
      <trkpt lat="43.3348" lon="-1.61233">
        <ele>101</ele>
        <time>2026-02-28T11:29:29Z</time>
      </trkpt>
      <trkpt lat="43.33501" lon="-1.61281">
        <ele>95</ele>
        <time>2026-02-28T11:29:36Z</time>
      </trkpt>
      <trkpt lat="43.33531" lon="-1.61302">
        <ele>97</ele>
        <time>2026-02-28T11:29:42Z</time>
      </trkpt>
      <trkpt lat="43.33538" lon="-1.61319">
        <ele>95</ele>
        <time>2026-02-28T11:29:45Z</time>
      </trkpt>
      <trkpt lat="43.33539" lon="-1.61369">
        <ele>86</ele>
        <time>2026-02-28T11:29:51Z</time>
      </trkpt>
      <trkpt lat="43.33546" lon="-1.61387">
        <ele>84</ele>
        <time>2026-02-28T11:29:54Z</time>
      </trkpt>
      <trkpt lat="43.33566" lon="-1.61407">
        <ele>85</ele>
        <time>2026-02-28T11:29:58Z</time>
      </trkpt>
      <trkpt lat="43.33576" lon="-1.61419">
        <ele>85</ele>
        <time>2026-02-28T11:30:00Z</time>
      </trkpt>
      <trkpt lat="43.3359" lon="-1.6145">
        <ele>81</ele>
        <time>2026-02-28T11:30:05Z</time>
      </trkpt>
      <trkpt lat="43.33602" lon="-1.61468">
        <ele>79</ele>
        <time>2026-02-28T11:30:08Z</time>
      </trkpt>
      <trkpt lat="43.33615" lon="-1.61479">
        <ele>79</ele>
        <time>2026-02-28T11:30:11Z</time>
      </trkpt>
      <trkpt lat="43.33654" lon="-1.61499">
        <ele>80</ele>
        <time>2026-02-28T11:30:19Z</time>
      </trkpt>
      <trkpt lat="43.33696" lon="-1.61543">
        <ele>73</ele>
        <time>2026-02-28T11:30:28Z</time>
      </trkpt>
      <trkpt lat="43.33788" lon="-1.61574">
        <ele>63</ele>
        <time>2026-02-28T11:30:45Z</time>
      </trkpt>
      <trkpt lat="43.33807" lon="-1.61573">
        <ele>62</ele>
        <time>2026-02-28T11:30:48Z</time>
      </trkpt>
      <trkpt lat="43.33835" lon="-1.61567">
        <ele>61</ele>
        <time>2026-02-28T11:30:53Z</time>
      </trkpt>
      <trkpt lat="43.33868" lon="-1.61571">
        <ele>57</ele>
        <time>2026-02-28T11:30:59Z</time>
      </trkpt>
      <trkpt lat="43.33892" lon="-1.61563">
        <ele>58</ele>
        <time>2026-02-28T11:31:03Z</time>
      </trkpt>
      <trkpt lat="43.3392" lon="-1.61564">
        <ele>56</ele>
        <time>2026-02-28T11:31:08Z</time>
      </trkpt>
      <trkpt lat="43.33942" lon="-1.61559">
        <ele>58</ele>
        <time>2026-02-28T11:31:12Z</time>
      </trkpt>
      <trkpt lat="43.33962" lon="-1.61557">
        <ele>59</ele>
        <time>2026-02-28T11:31:16Z</time>
      </trkpt>
      <trkpt lat="43.34008" lon="-1.61565">
        <ele>57</ele>
        <time>2026-02-28T11:31:24Z</time>
      </trkpt>
      <trkpt lat="43.34025" lon="-1.61572">
        <ele>55</ele>
        <time>2026-02-28T11:31:27Z</time>
      </trkpt>
      <trkpt lat="43.3406" lon="-1.61609">
        <ele>48</ele>
        <time>2026-02-28T11:31:35Z</time>
      </trkpt>
      <trkpt lat="43.34077" lon="-1.61621">
        <ele>46</ele>
        <time>2026-02-28T11:31:39Z</time>
      </trkpt>
      <trkpt lat="43.34092" lon="-1.61623">
        <ele>46</ele>
        <time>2026-02-28T11:31:41Z</time>
      </trkpt>
      <trkpt lat="43.34147" lon="-1.61609">
        <ele>45</ele>
        <time>2026-02-28T11:31:51Z</time>
      </trkpt>
      <trkpt lat="43.34345" lon="-1.61629">
        <ele>32</ele>
        <time>2026-02-28T11:32:27Z</time>
      </trkpt>
      <trkpt lat="43.34356" lon="-1.61637">
        <ele>30</ele>
        <time>2026-02-28T11:32:29Z</time>
      </trkpt>
      <trkpt lat="43.34364" lon="-1.61649">
        <ele>29</ele>
        <time>2026-02-28T11:32:31Z</time>
      </trkpt>
      <trkpt lat="43.34377" lon="-1.61689">
        <ele>26</ele>
        <time>2026-02-28T11:32:37Z</time>
      </trkpt>
      <trkpt lat="43.34378" lon="-1.61699">
        <ele>25</ele>
        <time>2026-02-28T11:32:38Z</time>
      </trkpt>
      <trkpt lat="43.34379" lon="-1.61719">
        <ele>24</ele>
        <time>2026-02-28T11:32:40Z</time>
      </trkpt>
      <trkpt lat="43.3438" lon="-1.61879">
        <ele>24</ele>
        <time>2026-02-28T11:33:01Z</time>
      </trkpt>
      <trkpt lat="43.34381" lon="-1.61901">
        <ele>25</ele>
        <time>2026-02-28T11:33:04Z</time>
      </trkpt>
      <trkpt lat="43.34384" lon="-1.61931">
        <ele>26</ele>
        <time>2026-02-28T11:33:08Z</time>
      </trkpt>
      <trkpt lat="43.3447" lon="-1.61923">
        <ele>19</ele>
        <time>2026-02-28T11:33:23Z</time>
      </trkpt>
      <trkpt lat="43.34483" lon="-1.61925">
        <ele>18</ele>
        <time>2026-02-28T11:33:26Z</time>
      </trkpt>
      <trkpt lat="43.34501" lon="-1.6193">
        <ele>17</ele>
        <time>2026-02-28T11:33:29Z</time>
      </trkpt>
      <trkpt lat="43.34573" lon="-1.6196">
        <ele>16</ele>
        <time>2026-02-28T11:33:42Z</time>
      </trkpt>
      <trkpt lat="43.34576" lon="-1.61968">
        <ele>16</ele>
        <time>2026-02-28T11:33:43Z</time>
      </trkpt>
      <trkpt lat="43.3464" lon="-1.62016">
        <ele>13</ele>
        <time>2026-02-28T11:33:56Z</time>
      </trkpt>
      <trkpt lat="43.34679" lon="-1.62052">
        <ele>11</ele>
        <time>2026-02-28T11:34:05Z</time>
      </trkpt>
      <trkpt lat="43.3478" lon="-1.62127">
        <ele>9</ele>
        <time>2026-02-28T11:34:25Z</time>
      </trkpt>
      <trkpt lat="43.34816" lon="-1.62162">
        <ele>9</ele>
        <time>2026-02-28T11:34:33Z</time>
      </trkpt>
      <trkpt lat="43.348" lon="-1.62205">
        <ele>9</ele>
        <time>2026-02-28T11:34:39Z</time>
      </trkpt>
      <trkpt lat="43.34794" lon="-1.62229">
        <ele>9</ele>
        <time>2026-02-28T11:34:43Z</time>
      </trkpt>
      <trkpt lat="43.34794" lon="-1.62236">
        <ele>9</ele>
        <time>2026-02-28T11:34:43Z</time>
      </trkpt>
      <trkpt lat="43.3481" lon="-1.62304">
        <ele>9</ele>
        <time>2026-02-28T11:34:53Z</time>
      </trkpt>
      <trkpt lat="43.34811" lon="-1.62319">
        <ele>9</ele>
        <time>2026-02-28T11:34:55Z</time>
      </trkpt>
      <trkpt lat="43.3481" lon="-1.62344">
        <ele>9</ele>
        <time>2026-02-28T11:34:58Z</time>
      </trkpt>
      <trkpt lat="43.34814" lon="-1.62357">
        <ele>8</ele>
        <time>2026-02-28T11:35:00Z</time>
      </trkpt>
      <trkpt lat="43.3486" lon="-1.62416">
        <ele>7</ele>
        <time>2026-02-28T11:35:11Z</time>
      </trkpt>
      <trkpt lat="43.34874" lon="-1.62439">
        <ele>7</ele>
        <time>2026-02-28T11:35:15Z</time>
      </trkpt>
      <trkpt lat="43.34909" lon="-1.62517">
        <ele>7</ele>
        <time>2026-02-28T11:35:27Z</time>
      </trkpt>
      <trkpt lat="43.34921" lon="-1.62554">
        <ele>6</ele>
        <time>2026-02-28T11:35:32Z</time>
      </trkpt>
      <trkpt lat="43.34928" lon="-1.62581">
        <ele>6</ele>
        <time>2026-02-28T11:35:36Z</time>
      </trkpt>
      <trkpt lat="43.34929" lon="-1.62603">
        <ele>5</ele>
        <time>2026-02-28T11:35:38Z</time>
      </trkpt>
      <trkpt lat="43.34928" lon="-1.62631">
        <ele>4</ele>
        <time>2026-02-28T11:35:42Z</time>
      </trkpt>
      <trkpt lat="43.34922" lon="-1.62669">
        <ele>3</ele>
        <time>2026-02-28T11:35:47Z</time>
      </trkpt>
      <trkpt lat="43.34908" lon="-1.62721">
        <ele>4</ele>
        <time>2026-02-28T11:35:54Z</time>
      </trkpt>
      <trkpt lat="43.34905" lon="-1.62741">
        <ele>5</ele>
        <time>2026-02-28T11:35:57Z</time>
      </trkpt>
      <trkpt lat="43.3492" lon="-1.62766">
        <ele>5</ele>
        <time>2026-02-28T11:36:01Z</time>
      </trkpt>
      <trkpt lat="43.34947" lon="-1.62802">
        <ele>5</ele>
        <time>2026-02-28T11:36:08Z</time>
      </trkpt>
      <trkpt lat="43.34972" lon="-1.62824">
        <ele>5</ele>
        <time>2026-02-28T11:36:13Z</time>
      </trkpt>
      <trkpt lat="43.34983" lon="-1.62825">
        <ele>5</ele>
        <time>2026-02-28T11:36:15Z</time>
      </trkpt>
      <trkpt lat="43.34995" lon="-1.62833">
        <ele>4</ele>
        <time>2026-02-28T11:36:17Z</time>
      </trkpt>
      <trkpt lat="43.35136" lon="-1.62979">
        <ele>3</ele>
        <time>2026-02-28T11:36:49Z</time>
      </trkpt>
      <trkpt lat="43.35202" lon="-1.63012">
        <ele>2</ele>
        <time>2026-02-28T11:37:01Z</time>
      </trkpt>
      <trkpt lat="43.35232" lon="-1.6303">
        <ele>3</ele>
        <time>2026-02-28T11:37:07Z</time>
      </trkpt>
      <trkpt lat="43.35258" lon="-1.63051">
        <ele>4</ele>
        <time>2026-02-28T11:37:13Z</time>
      </trkpt>
      <trkpt lat="43.3527" lon="-1.63074">
        <ele>4</ele>
        <time>2026-02-28T11:37:16Z</time>
      </trkpt>
      <trkpt lat="43.35276" lon="-1.63103">
        <ele>5</ele>
        <time>2026-02-28T11:37:20Z</time>
      </trkpt>
      <trkpt lat="43.35275" lon="-1.63123">
        <ele>5</ele>
        <time>2026-02-28T11:37:23Z</time>
      </trkpt>
      <trkpt lat="43.35248" lon="-1.63238">
        <ele>5</ele>
        <time>2026-02-28T11:37:38Z</time>
      </trkpt>
      <trkpt lat="43.35234" lon="-1.63272">
        <ele>10</ele>
        <time>2026-02-28T11:37:43Z</time>
      </trkpt>
      <trkpt lat="43.35233" lon="-1.63285">
        <ele>13</ele>
        <time>2026-02-28T11:37:45Z</time>
      </trkpt>
      <trkpt lat="43.35234" lon="-1.63301">
        <ele>16</ele>
        <time>2026-02-28T11:37:47Z</time>
      </trkpt>
      <trkpt lat="43.35249" lon="-1.63321">
        <ele>17</ele>
        <time>2026-02-28T11:37:51Z</time>
      </trkpt>
      <trkpt lat="43.35337" lon="-1.63397">
        <ele>18</ele>
        <time>2026-02-28T11:38:09Z</time>
      </trkpt>
      <trkpt lat="43.35374" lon="-1.63437">
        <ele>18</ele>
        <time>2026-02-28T11:38:18Z</time>
      </trkpt>
      <trkpt lat="43.35491" lon="-1.63519">
        <ele>7</ele>
        <time>2026-02-28T11:38:41Z</time>
      </trkpt>
      <trkpt lat="43.35539" lon="-1.6355">
        <ele>5</ele>
        <time>2026-02-28T11:38:51Z</time>
      </trkpt>
      <trkpt lat="43.35587" lon="-1.63586">
        <ele>4</ele>
        <time>2026-02-28T11:39:00Z</time>
      </trkpt>
      <trkpt lat="43.35602" lon="-1.63595">
        <ele>4</ele>
        <time>2026-02-28T11:39:03Z</time>
      </trkpt>
      <trkpt lat="43.35614" lon="-1.636">
        <ele>4</ele>
        <time>2026-02-28T11:39:05Z</time>
      </trkpt>
      <trkpt lat="43.35618" lon="-1.636">
        <ele>4</ele>
        <time>2026-02-28T11:39:06Z</time>
      </trkpt>
      <trkpt lat="43.35625" lon="-1.63606">
        <ele>3</ele>
        <time>2026-02-28T11:39:08Z</time>
      </trkpt>
      <trkpt lat="43.35598" lon="-1.63912">
        <ele>10</ele>
        <time>2026-02-28T11:39:47Z</time>
      </trkpt>
      <trkpt lat="43.35582" lon="-1.64022">
        <ele>15</ele>
        <time>2026-02-28T11:40:02Z</time>
      </trkpt>
      <trkpt lat="43.35573" lon="-1.64045">
        <ele>16</ele>
        <time>2026-02-28T11:40:05Z</time>
      </trkpt>
      <trkpt lat="43.35446" lon="-1.64129">
        <ele>13</ele>
        <time>2026-02-28T11:40:30Z</time>
      </trkpt>
      <trkpt lat="43.35418" lon="-1.64167">
        <ele>12</ele>
        <time>2026-02-28T11:40:37Z</time>
      </trkpt>
      <trkpt lat="43.35335" lon="-1.64248">
        <ele>15</ele>
        <time>2026-02-28T11:40:56Z</time>
      </trkpt>
      <trkpt lat="43.35251" lon="-1.64281">
        <ele>12</ele>
        <time>2026-02-28T11:41:11Z</time>
      </trkpt>
      <trkpt lat="43.35126" lon="-1.64319">
        <ele>9</ele>
        <time>2026-02-28T11:41:34Z</time>
      </trkpt>
      <trkpt lat="43.35116" lon="-1.64323">
        <ele>8</ele>
        <time>2026-02-28T11:41:36Z</time>
      </trkpt>
      <trkpt lat="43.35103" lon="-1.6433">
        <ele>8</ele>
        <time>2026-02-28T11:41:38Z</time>
      </trkpt>
      <trkpt lat="43.35076" lon="-1.64352">
        <ele>9</ele>
        <time>2026-02-28T11:41:44Z</time>
      </trkpt>
      <trkpt lat="43.35053" lon="-1.64361">
        <ele>10</ele>
        <time>2026-02-28T11:41:48Z</time>
      </trkpt>
      <trkpt lat="43.34996" lon="-1.64375">
        <ele>13</ele>
        <time>2026-02-28T11:41:58Z</time>
      </trkpt>
      <trkpt lat="43.34985" lon="-1.6438">
        <ele>13</ele>
        <time>2026-02-28T11:42:00Z</time>
      </trkpt>
      <trkpt lat="43.34959" lon="-1.64387">
        <ele>13</ele>
        <time>2026-02-28T11:42:05Z</time>
      </trkpt>
      <trkpt lat="43.34931" lon="-1.64372">
        <ele>14</ele>
        <time>2026-02-28T11:42:10Z</time>
      </trkpt>
      <trkpt lat="43.34879" lon="-1.64316">
        <ele>18</ele>
        <time>2026-02-28T11:42:22Z</time>
      </trkpt>
      <trkpt lat="43.34796" lon="-1.64317">
        <ele>18</ele>
        <time>2026-02-28T11:42:37Z</time>
      </trkpt>
      <trkpt lat="43.34736" lon="-1.64261">
        <ele>23</ele>
        <time>2026-02-28T11:42:50Z</time>
      </trkpt>
      <trkpt lat="43.34691" lon="-1.6423">
        <ele>23</ele>
        <time>2026-02-28T11:42:59Z</time>
      </trkpt>
      <trkpt lat="43.34683" lon="-1.64226">
        <ele>23</ele>
        <time>2026-02-28T11:43:00Z</time>
      </trkpt>
      <trkpt lat="43.34667" lon="-1.64226">
        <ele>22</ele>
        <time>2026-02-28T11:43:03Z</time>
      </trkpt>
      <trkpt lat="43.34651" lon="-1.64236">
        <ele>24</ele>
        <time>2026-02-28T11:43:06Z</time>
      </trkpt>
      <trkpt lat="43.3464" lon="-1.64264">
        <ele>24</ele>
        <time>2026-02-28T11:43:10Z</time>
      </trkpt>
      <trkpt lat="43.34622" lon="-1.64317">
        <ele>22</ele>
        <time>2026-02-28T11:43:18Z</time>
      </trkpt>
      <trkpt lat="43.34553" lon="-1.64347">
        <ele>23</ele>
        <time>2026-02-28T11:43:31Z</time>
      </trkpt>
      <trkpt lat="43.34484" lon="-1.64316">
        <ele>25</ele>
        <time>2026-02-28T11:43:44Z</time>
      </trkpt>
      <trkpt lat="43.34351" lon="-1.64301">
        <ele>26</ele>
        <time>2026-02-28T11:44:08Z</time>
      </trkpt>
      <trkpt lat="43.34024" lon="-1.64261">
        <ele>35</ele>
        <time>2026-02-28T11:45:06Z</time>
      </trkpt>
      <trkpt lat="43.34023" lon="-1.64283">
        <ele>35</ele>
        <time>2026-02-28T11:45:09Z</time>
      </trkpt>
      <trkpt lat="43.34019" lon="-1.64309">
        <ele>35</ele>
        <time>2026-02-28T11:45:12Z</time>
      </trkpt>
      <trkpt lat="43.33986" lon="-1.64473">
        <ele>37</ele>
        <time>2026-02-28T11:45:34Z</time>
      </trkpt>
      <trkpt lat="43.33774" lon="-1.65464">
        <ele>65</ele>
        <time>2026-02-28T11:47:48Z</time>
      </trkpt>
      <trkpt lat="43.3373" lon="-1.65677">
        <ele>64</ele>
        <time>2026-02-28T11:48:17Z</time>
      </trkpt>
      <trkpt lat="43.33716" lon="-1.65754">
        <ele>66</ele>
        <time>2026-02-28T11:48:27Z</time>
      </trkpt>
      <trkpt lat="43.33695" lon="-1.6592">
        <ele>68</ele>
        <time>2026-02-28T11:48:49Z</time>
      </trkpt>
      <trkpt lat="43.33677" lon="-1.66023">
        <ele>69</ele>
        <time>2026-02-28T11:49:02Z</time>
      </trkpt>
      <trkpt lat="43.3365" lon="-1.66164">
        <ele>65</ele>
        <time>2026-02-28T11:49:21Z</time>
      </trkpt>
      <trkpt lat="43.33645" lon="-1.66182">
        <ele>65</ele>
        <time>2026-02-28T11:49:24Z</time>
      </trkpt>
      <trkpt lat="43.33622" lon="-1.6624">
        <ele>67</ele>
        <time>2026-02-28T11:49:32Z</time>
      </trkpt>
      <trkpt lat="43.33615" lon="-1.66263">
        <ele>67</ele>
        <time>2026-02-28T11:49:36Z</time>
      </trkpt>
      <trkpt lat="43.33607" lon="-1.66344">
        <ele>65</ele>
        <time>2026-02-28T11:49:46Z</time>
      </trkpt>
      <trkpt lat="43.33608" lon="-1.66377">
        <ele>64</ele>
        <time>2026-02-28T11:49:50Z</time>
      </trkpt>
      <trkpt lat="43.33615" lon="-1.66412">
        <ele>62</ele>
        <time>2026-02-28T11:49:55Z</time>
      </trkpt>
      <trkpt lat="43.33625" lon="-1.66444">
        <ele>59</ele>
        <time>2026-02-28T11:50:00Z</time>
      </trkpt>
      <trkpt lat="43.33661" lon="-1.6654">
        <ele>53</ele>
        <time>2026-02-28T11:50:14Z</time>
      </trkpt>
      <trkpt lat="43.33666" lon="-1.66563">
        <ele>52</ele>
        <time>2026-02-28T11:50:17Z</time>
      </trkpt>
      <trkpt lat="43.33671" lon="-1.66597">
        <ele>50</ele>
        <time>2026-02-28T11:50:21Z</time>
      </trkpt>
      <trkpt lat="43.33672" lon="-1.66622">
        <ele>50</ele>
        <time>2026-02-28T11:50:24Z</time>
      </trkpt>
      <trkpt lat="43.33666" lon="-1.66662">
        <ele>48</ele>
        <time>2026-02-28T11:50:30Z</time>
      </trkpt>
      <trkpt lat="43.33655" lon="-1.66718">
        <ele>47</ele>
        <time>2026-02-28T11:50:37Z</time>
      </trkpt>
      <trkpt lat="43.3364" lon="-1.66759">
        <ele>45</ele>
        <time>2026-02-28T11:50:43Z</time>
      </trkpt>
      <trkpt lat="43.33633" lon="-1.66772">
        <ele>45</ele>
        <time>2026-02-28T11:50:45Z</time>
      </trkpt>
      <trkpt lat="43.33629" lon="-1.66778">
        <ele>45</ele>
        <time>2026-02-28T11:50:46Z</time>
      </trkpt>
      <trkpt lat="43.33622" lon="-1.66788">
        <ele>45</ele>
        <time>2026-02-28T11:50:48Z</time>
      </trkpt>
      <trkpt lat="43.33613" lon="-1.66794">
        <ele>45</ele>
        <time>2026-02-28T11:50:50Z</time>
      </trkpt>
      <trkpt lat="43.3361" lon="-1.66799">
        <ele>45</ele>
        <time>2026-02-28T11:50:51Z</time>
      </trkpt>
      <trkpt lat="43.33606" lon="-1.66802">
        <ele>45</ele>
        <time>2026-02-28T11:50:52Z</time>
      </trkpt>
      <trkpt lat="43.3361" lon="-1.66812">
        <ele>45</ele>
        <time>2026-02-28T11:50:53Z</time>
      </trkpt>
      <trkpt lat="43.3362" lon="-1.66822">
        <ele>44</ele>
        <time>2026-02-28T11:50:55Z</time>
      </trkpt>
      <trkpt lat="43.33683" lon="-1.66831">
        <ele>43</ele>
        <time>2026-02-28T11:51:06Z</time>
      </trkpt>
      <trkpt lat="43.337" lon="-1.66832">
        <ele>42</ele>
        <time>2026-02-28T11:51:09Z</time>
      </trkpt>
      <trkpt lat="43.33747" lon="-1.66824">
        <ele>42</ele>
        <time>2026-02-28T11:51:18Z</time>
      </trkpt>
      <trkpt lat="43.33782" lon="-1.66811">
        <ele>41</ele>
        <time>2026-02-28T11:51:24Z</time>
      </trkpt>
      <trkpt lat="43.33831" lon="-1.66786">
        <ele>39</ele>
        <time>2026-02-28T11:51:34Z</time>
      </trkpt>
      <trkpt lat="43.33878" lon="-1.66755">
        <ele>37</ele>
        <time>2026-02-28T11:51:43Z</time>
      </trkpt>
      <trkpt lat="43.3392" lon="-1.66705">
        <ele>37</ele>
        <time>2026-02-28T11:51:53Z</time>
      </trkpt>
      <trkpt lat="43.33975" lon="-1.66648">
        <ele>34</ele>
        <time>2026-02-28T11:52:05Z</time>
      </trkpt>
      <trkpt lat="43.33996" lon="-1.66637">
        <ele>33</ele>
        <time>2026-02-28T11:52:09Z</time>
      </trkpt>
      <trkpt lat="43.34014" lon="-1.66632">
        <ele>33</ele>
        <time>2026-02-28T11:52:12Z</time>
      </trkpt>
      <trkpt lat="43.34031" lon="-1.6663">
        <ele>34</ele>
        <time>2026-02-28T11:52:15Z</time>
      </trkpt>
      <trkpt lat="43.34045" lon="-1.66632">
        <ele>35</ele>
        <time>2026-02-28T11:52:18Z</time>
      </trkpt>
      <trkpt lat="43.34055" lon="-1.66636">
        <ele>35</ele>
        <time>2026-02-28T11:52:20Z</time>
      </trkpt>
      <trkpt lat="43.34059" lon="-1.66639">
        <ele>36</ele>
        <time>2026-02-28T11:52:21Z</time>
      </trkpt>
      <trkpt lat="43.3409" lon="-1.66655">
        <ele>38</ele>
        <time>2026-02-28T11:52:26Z</time>
      </trkpt>
      <trkpt lat="43.34167" lon="-1.66684">
        <ele>44</ele>
        <time>2026-02-28T11:52:41Z</time>
      </trkpt>
      <trkpt lat="43.34291" lon="-1.66741">
        <ele>53</ele>
        <time>2026-02-28T11:53:04Z</time>
      </trkpt>
      <trkpt lat="43.3432" lon="-1.66746">
        <ele>54</ele>
        <time>2026-02-28T11:53:09Z</time>
      </trkpt>
      <trkpt lat="43.34348" lon="-1.66741">
        <ele>57</ele>
        <time>2026-02-28T11:53:14Z</time>
      </trkpt>
      <trkpt lat="43.34368" lon="-1.66726">
        <ele>61</ele>
        <time>2026-02-28T11:53:18Z</time>
      </trkpt>
      <trkpt lat="43.34419" lon="-1.66665">
        <ele>71</ele>
        <time>2026-02-28T11:53:30Z</time>
      </trkpt>
      <trkpt lat="43.34436" lon="-1.66659">
        <ele>72</ele>
        <time>2026-02-28T11:53:33Z</time>
      </trkpt>
      <trkpt lat="43.34498" lon="-1.66656">
        <ele>72</ele>
        <time>2026-02-28T11:53:44Z</time>
      </trkpt>
      <trkpt lat="43.34535" lon="-1.66657">
        <ele>74</ele>
        <time>2026-02-28T11:53:51Z</time>
      </trkpt>
      <trkpt lat="43.34553" lon="-1.66663">
        <ele>75</ele>
        <time>2026-02-28T11:53:54Z</time>
      </trkpt>
      <trkpt lat="43.34569" lon="-1.66676">
        <ele>76</ele>
        <time>2026-02-28T11:53:58Z</time>
      </trkpt>
      <trkpt lat="43.34661" lon="-1.66775">
        <ele>74</ele>
        <time>2026-02-28T11:54:18Z</time>
      </trkpt>
      <trkpt lat="43.34676" lon="-1.66789">
        <ele>73</ele>
        <time>2026-02-28T11:54:22Z</time>
      </trkpt>
      <trkpt lat="43.34741" lon="-1.66805">
        <ele>72</ele>
        <time>2026-02-28T11:54:33Z</time>
      </trkpt>
      <trkpt lat="43.34795" lon="-1.6681">
        <ele>73</ele>
        <time>2026-02-28T11:54:43Z</time>
      </trkpt>
      <trkpt lat="43.3482" lon="-1.66817">
        <ele>74</ele>
        <time>2026-02-28T11:54:47Z</time>
      </trkpt>
      <trkpt lat="43.34917" lon="-1.66871">
        <ele>83</ele>
        <time>2026-02-28T11:55:06Z</time>
      </trkpt>
      <trkpt lat="43.34942" lon="-1.66882">
        <ele>87</ele>
        <time>2026-02-28T11:55:11Z</time>
      </trkpt>
      <trkpt lat="43.34958" lon="-1.6688">
        <ele>89</ele>
        <time>2026-02-28T11:55:14Z</time>
      </trkpt>
      <trkpt lat="43.3497" lon="-1.6687">
        <ele>90</ele>
        <time>2026-02-28T11:55:16Z</time>
      </trkpt>
      <trkpt lat="43.34977" lon="-1.66826">
        <ele>86</ele>
        <time>2026-02-28T11:55:22Z</time>
      </trkpt>
      <trkpt lat="43.34985" lon="-1.66811">
        <ele>85</ele>
        <time>2026-02-28T11:55:24Z</time>
      </trkpt>
      <trkpt lat="43.34998" lon="-1.66803">
        <ele>86</ele>
        <time>2026-02-28T11:55:27Z</time>
      </trkpt>
      <trkpt lat="43.35013" lon="-1.668">
        <ele>86</ele>
        <time>2026-02-28T11:55:30Z</time>
      </trkpt>
      <trkpt lat="43.35023" lon="-1.66806">
        <ele>87</ele>
        <time>2026-02-28T11:55:32Z</time>
      </trkpt>
      <trkpt lat="43.35073" lon="-1.66853">
        <ele>92</ele>
        <time>2026-02-28T11:55:42Z</time>
      </trkpt>
      <trkpt lat="43.35089" lon="-1.66859">
        <ele>92</ele>
        <time>2026-02-28T11:55:45Z</time>
      </trkpt>
      <trkpt lat="43.35108" lon="-1.66858">
        <ele>93</ele>
        <time>2026-02-28T11:55:49Z</time>
      </trkpt>
      <trkpt lat="43.35124" lon="-1.66846">
        <ele>93</ele>
        <time>2026-02-28T11:55:52Z</time>
      </trkpt>
      <trkpt lat="43.3518" lon="-1.66752">
        <ele>92</ele>
        <time>2026-02-28T11:56:08Z</time>
      </trkpt>
      <trkpt lat="43.35199" lon="-1.66734">
        <ele>91</ele>
        <time>2026-02-28T11:56:12Z</time>
      </trkpt>
      <trkpt lat="43.35212" lon="-1.66731">
        <ele>91</ele>
        <time>2026-02-28T11:56:14Z</time>
      </trkpt>
      <trkpt lat="43.35246" lon="-1.66735">
        <ele>93</ele>
        <time>2026-02-28T11:56:20Z</time>
      </trkpt>
      <trkpt lat="43.35265" lon="-1.66731">
        <ele>92</ele>
        <time>2026-02-28T11:56:24Z</time>
      </trkpt>
      <trkpt lat="43.35289" lon="-1.66718">
        <ele>91</ele>
        <time>2026-02-28T11:56:28Z</time>
      </trkpt>
      <trkpt lat="43.35301" lon="-1.66706">
        <ele>91</ele>
        <time>2026-02-28T11:56:31Z</time>
      </trkpt>
      <trkpt lat="43.35386" lon="-1.66666">
        <ele>97</ele>
        <time>2026-02-28T11:56:47Z</time>
      </trkpt>
      <trkpt lat="43.35428" lon="-1.6664">
        <ele>96</ele>
        <time>2026-02-28T11:56:55Z</time>
      </trkpt>
      <trkpt lat="43.35456" lon="-1.66613">
        <ele>94</ele>
        <time>2026-02-28T11:57:01Z</time>
      </trkpt>
      <trkpt lat="43.35478" lon="-1.66603">
        <ele>94</ele>
        <time>2026-02-28T11:57:05Z</time>
      </trkpt>
      <trkpt lat="43.3556" lon="-1.66589">
        <ele>90</ele>
        <time>2026-02-28T11:57:20Z</time>
      </trkpt>
      <trkpt lat="43.35628" lon="-1.66587">
        <ele>86</ele>
        <time>2026-02-28T11:57:32Z</time>
      </trkpt>
      <trkpt lat="43.3565" lon="-1.66574">
        <ele>84</ele>
        <time>2026-02-28T11:57:36Z</time>
      </trkpt>
      <trkpt lat="43.35682" lon="-1.66548">
        <ele>80</ele>
        <time>2026-02-28T11:57:43Z</time>
      </trkpt>
      <trkpt lat="43.35721" lon="-1.66497">
        <ele>77</ele>
        <time>2026-02-28T11:57:52Z</time>
      </trkpt>
      <trkpt lat="43.35739" lon="-1.66481">
        <ele>76</ele>
        <time>2026-02-28T11:57:56Z</time>
      </trkpt>
      <trkpt lat="43.35756" lon="-1.66471">
        <ele>76</ele>
        <time>2026-02-28T11:58:00Z</time>
      </trkpt>
      <trkpt lat="43.35819" lon="-1.66447">
        <ele>75</ele>
        <time>2026-02-28T11:58:11Z</time>
      </trkpt>
      <trkpt lat="43.35843" lon="-1.66442">
        <ele>76</ele>
        <time>2026-02-28T11:58:15Z</time>
      </trkpt>
      <trkpt lat="43.35868" lon="-1.66434">
        <ele>77</ele>
        <time>2026-02-28T11:58:20Z</time>
      </trkpt>
      <trkpt lat="43.35879" lon="-1.66427">
        <ele>78</ele>
        <time>2026-02-28T11:58:22Z</time>
      </trkpt>
      <trkpt lat="43.35887" lon="-1.66408">
        <ele>77</ele>
        <time>2026-02-28T11:58:25Z</time>
      </trkpt>
      <trkpt lat="43.35891" lon="-1.6638">
        <ele>76</ele>
        <time>2026-02-28T11:58:29Z</time>
      </trkpt>
      <trkpt lat="43.35896" lon="-1.66356">
        <ele>75</ele>
        <time>2026-02-28T11:58:32Z</time>
      </trkpt>
      <trkpt lat="43.35904" lon="-1.66343">
        <ele>75</ele>
        <time>2026-02-28T11:58:34Z</time>
      </trkpt>
      <trkpt lat="43.35921" lon="-1.66334">
        <ele>76</ele>
        <time>2026-02-28T11:58:37Z</time>
      </trkpt>
      <trkpt lat="43.35958" lon="-1.66324">
        <ele>76</ele>
        <time>2026-02-28T11:58:44Z</time>
      </trkpt>
      <trkpt lat="43.36052" lon="-1.66192">
        <ele>82</ele>
        <time>2026-02-28T11:59:08Z</time>
      </trkpt>
      <trkpt lat="43.36088" lon="-1.66137">
        <ele>83</ele>
        <time>2026-02-28T11:59:18Z</time>
      </trkpt>
      <trkpt lat="43.36116" lon="-1.66099">
        <ele>84</ele>
        <time>2026-02-28T11:59:25Z</time>
      </trkpt>
      <trkpt lat="43.36176" lon="-1.66069">
        <ele>86</ele>
        <time>2026-02-28T11:59:36Z</time>
      </trkpt>
      <trkpt lat="43.36203" lon="-1.66064">
        <ele>84</ele>
        <time>2026-02-28T11:59:41Z</time>
      </trkpt>
      <trkpt lat="43.36233" lon="-1.66076">
        <ele>81</ele>
        <time>2026-02-28T11:59:46Z</time>
      </trkpt>
      <trkpt lat="43.36256" lon="-1.66092">
        <ele>78</ele>
        <time>2026-02-28T11:59:51Z</time>
      </trkpt>
      <trkpt lat="43.3627" lon="-1.66093">
        <ele>77</ele>
        <time>2026-02-28T11:59:53Z</time>
      </trkpt>
      <trkpt lat="43.36327" lon="-1.66082">
        <ele>76</ele>
        <time>2026-02-28T12:00:04Z</time>
      </trkpt>
      <trkpt lat="43.3637" lon="-1.66054">
        <ele>75</ele>
        <time>2026-02-28T12:00:12Z</time>
      </trkpt>
      <trkpt lat="43.36417" lon="-1.65987">
        <ele>74</ele>
        <time>2026-02-28T12:00:24Z</time>
      </trkpt>
      <trkpt lat="43.36511" lon="-1.6582">
        <ele>68</ele>
        <time>2026-02-28T12:00:52Z</time>
      </trkpt>
      <trkpt lat="43.36524" lon="-1.65795">
        <ele>68</ele>
        <time>2026-02-28T12:00:55Z</time>
      </trkpt>
      <trkpt lat="43.36536" lon="-1.65765">
        <ele>68</ele>
        <time>2026-02-28T12:01:00Z</time>
      </trkpt>
      <trkpt lat="43.36558" lon="-1.65684">
        <ele>72</ele>
        <time>2026-02-28T12:01:11Z</time>
      </trkpt>
      <trkpt lat="43.36565" lon="-1.65674">
        <ele>74</ele>
        <time>2026-02-28T12:01:13Z</time>
      </trkpt>
      <trkpt lat="43.36584" lon="-1.65655">
        <ele>75</ele>
        <time>2026-02-28T12:01:17Z</time>
      </trkpt>
      <trkpt lat="43.36597" lon="-1.65644">
        <ele>73</ele>
        <time>2026-02-28T12:01:20Z</time>
      </trkpt>
      <trkpt lat="43.36614" lon="-1.65635">
        <ele>72</ele>
        <time>2026-02-28T12:01:23Z</time>
      </trkpt>
      <trkpt lat="43.36636" lon="-1.65628">
        <ele>71</ele>
        <time>2026-02-28T12:01:27Z</time>
      </trkpt>
      <trkpt lat="43.36653" lon="-1.65628">
        <ele>70</ele>
        <time>2026-02-28T12:01:30Z</time>
      </trkpt>
      <trkpt lat="43.36676" lon="-1.65632">
        <ele>69</ele>
        <time>2026-02-28T12:01:34Z</time>
      </trkpt>
      <trkpt lat="43.36703" lon="-1.65641">
        <ele>67</ele>
        <time>2026-02-28T12:01:39Z</time>
      </trkpt>
      <trkpt lat="43.36733" lon="-1.65656">
        <ele>66</ele>
        <time>2026-02-28T12:01:45Z</time>
      </trkpt>
      <trkpt lat="43.36766" lon="-1.6568">
        <ele>65</ele>
        <time>2026-02-28T12:01:51Z</time>
      </trkpt>
      <trkpt lat="43.36853" lon="-1.65724">
        <ele>63</ele>
        <time>2026-02-28T12:02:08Z</time>
      </trkpt>
      <trkpt lat="43.36916" lon="-1.65752">
        <ele>60</ele>
        <time>2026-02-28T12:02:20Z</time>
      </trkpt>
      <trkpt lat="43.36982" lon="-1.65775">
        <ele>57</ele>
        <time>2026-02-28T12:02:32Z</time>
      </trkpt>
      <trkpt lat="43.37079" lon="-1.6583">
        <ele>60</ele>
        <time>2026-02-28T12:02:51Z</time>
      </trkpt>
      <trkpt lat="43.37089" lon="-1.65839">
        <ele>59</ele>
        <time>2026-02-28T12:02:53Z</time>
      </trkpt>
      <trkpt lat="43.37097" lon="-1.65849">
        <ele>57</ele>
        <time>2026-02-28T12:02:55Z</time>
      </trkpt>
      <trkpt lat="43.37109" lon="-1.65882">
        <ele>52</ele>
        <time>2026-02-28T12:02:59Z</time>
      </trkpt>
      <trkpt lat="43.37114" lon="-1.65888">
        <ele>52</ele>
        <time>2026-02-28T12:03:01Z</time>
      </trkpt>
      <trkpt lat="43.37122" lon="-1.65894">
        <ele>52</ele>
        <time>2026-02-28T12:03:02Z</time>
      </trkpt>
      <trkpt lat="43.37138" lon="-1.65898">
        <ele>52</ele>
        <time>2026-02-28T12:03:05Z</time>
      </trkpt>
      <trkpt lat="43.37323" lon="-1.65911">
        <ele>39</ele>
        <time>2026-02-28T12:03:38Z</time>
      </trkpt>
      <trkpt lat="43.37333" lon="-1.65911">
        <ele>38</ele>
        <time>2026-02-28T12:03:40Z</time>
      </trkpt>
      <trkpt lat="43.37349" lon="-1.65906">
        <ele>38</ele>
        <time>2026-02-28T12:03:43Z</time>
      </trkpt>
      <trkpt lat="43.37401" lon="-1.65886">
        <ele>37</ele>
        <time>2026-02-28T12:03:52Z</time>
      </trkpt>
      <trkpt lat="43.37425" lon="-1.65876">
        <ele>37</ele>
        <time>2026-02-28T12:03:57Z</time>
      </trkpt>
      <trkpt lat="43.37455" lon="-1.65872">
        <ele>39</ele>
        <time>2026-02-28T12:04:02Z</time>
      </trkpt>
      <trkpt lat="43.37463" lon="-1.65873">
        <ele>40</ele>
        <time>2026-02-28T12:04:04Z</time>
      </trkpt>
      <trkpt lat="43.37461" lon="-1.65846">
        <ele>40</ele>
        <time>2026-02-28T12:04:07Z</time>
      </trkpt>
      <trkpt lat="43.37462" lon="-1.6584">
        <ele>40</ele>
        <time>2026-02-28T12:04:08Z</time>
      </trkpt>
      <trkpt lat="43.37541" lon="-1.65803">
        <ele>46</ele>
        <time>2026-02-28T12:04:23Z</time>
      </trkpt>
      <trkpt lat="43.3758" lon="-1.65811">
        <ele>48</ele>
        <time>2026-02-28T12:04:30Z</time>
      </trkpt>
      <trkpt lat="43.37634" lon="-1.65834">
        <ele>40</ele>
        <time>2026-02-28T12:04:40Z</time>
      </trkpt>
      <trkpt lat="43.37684" lon="-1.65844">
        <ele>33</ele>
        <time>2026-02-28T12:04:49Z</time>
      </trkpt>
      <trkpt lat="43.37723" lon="-1.65853">
        <ele>26</ele>
        <time>2026-02-28T12:04:56Z</time>
      </trkpt>
      <trkpt lat="43.3774" lon="-1.65864">
        <ele>24</ele>
        <time>2026-02-28T12:04:59Z</time>
      </trkpt>
      <trkpt lat="43.37752" lon="-1.65881">
        <ele>22</ele>
        <time>2026-02-28T12:05:02Z</time>
      </trkpt>
      <trkpt lat="43.37756" lon="-1.65879">
        <ele>22</ele>
        <time>2026-02-28T12:05:03Z</time>
      </trkpt>
      <trkpt lat="43.37766" lon="-1.65881">
        <ele>21</ele>
        <time>2026-02-28T12:05:05Z</time>
      </trkpt>
      <trkpt lat="43.37817" lon="-1.65922">
        <ele>17</ele>
        <time>2026-02-28T12:05:15Z</time>
      </trkpt>
      <trkpt lat="43.37834" lon="-1.65938">
        <ele>15</ele>
        <time>2026-02-28T12:05:19Z</time>
      </trkpt>
      <trkpt lat="43.37845" lon="-1.65954">
        <ele>14</ele>
        <time>2026-02-28T12:05:22Z</time>
      </trkpt>
      <trkpt lat="43.37862" lon="-1.65988">
        <ele>12</ele>
        <time>2026-02-28T12:05:27Z</time>
      </trkpt>
      <trkpt lat="43.37878" lon="-1.66012">
        <ele>10</ele>
        <time>2026-02-28T12:05:31Z</time>
      </trkpt>
      <trkpt lat="43.3789" lon="-1.66023">
        <ele>9</ele>
        <time>2026-02-28T12:05:34Z</time>
      </trkpt>
      <trkpt lat="43.37923" lon="-1.66042">
        <ele>8</ele>
        <time>2026-02-28T12:05:40Z</time>
      </trkpt>
      <trkpt lat="43.37967" lon="-1.66075">
        <ele>6</ele>
        <time>2026-02-28T12:05:49Z</time>
      </trkpt>
      <trkpt lat="43.37989" lon="-1.66095">
        <ele>5</ele>
        <time>2026-02-28T12:05:54Z</time>
      </trkpt>
      <trkpt lat="43.38005" lon="-1.66115">
        <ele>5</ele>
        <time>2026-02-28T12:05:58Z</time>
      </trkpt>
      <trkpt lat="43.38033" lon="-1.6614">
        <ele>6</ele>
        <time>2026-02-28T12:06:04Z</time>
      </trkpt>
      <trkpt lat="43.38015" lon="-1.6616">
        <ele>5</ele>
        <time>2026-02-28T12:06:08Z</time>
      </trkpt>
      <trkpt lat="43.38001" lon="-1.66189">
        <ele>5</ele>
        <time>2026-02-28T12:06:12Z</time>
      </trkpt>
      <trkpt lat="43.38012" lon="-1.66221">
        <ele>5</ele>
        <time>2026-02-28T12:06:17Z</time>
      </trkpt>
      <trkpt lat="43.38026" lon="-1.66242">
        <ele>4</ele>
        <time>2026-02-28T12:06:21Z</time>
      </trkpt>
      <trkpt lat="43.38037" lon="-1.66252">
        <ele>4</ele>
        <time>2026-02-28T12:06:23Z</time>
      </trkpt>
      <trkpt lat="43.38072" lon="-1.6627">
        <ele>5</ele>
        <time>2026-02-28T12:06:30Z</time>
      </trkpt>
      <trkpt lat="43.38085" lon="-1.66281">
        <ele>5</ele>
        <time>2026-02-28T12:06:32Z</time>
      </trkpt>
      <trkpt lat="43.38093" lon="-1.66296">
        <ele>5</ele>
        <time>2026-02-28T12:06:35Z</time>
      </trkpt>
      <trkpt lat="43.38108" lon="-1.66404">
        <ele>6</ele>
        <time>2026-02-28T12:06:49Z</time>
      </trkpt>
      <trkpt lat="43.38118" lon="-1.66429">
        <ele>5</ele>
        <time>2026-02-28T12:06:53Z</time>
      </trkpt>
      <trkpt lat="43.38129" lon="-1.66448">
        <ele>5</ele>
        <time>2026-02-28T12:06:56Z</time>
      </trkpt>
      <trkpt lat="43.38141" lon="-1.66462">
        <ele>4</ele>
        <time>2026-02-28T12:06:59Z</time>
      </trkpt>
      <trkpt lat="43.38223" lon="-1.66552">
        <ele>3</ele>
        <time>2026-02-28T12:07:17Z</time>
      </trkpt>
      <trkpt lat="43.38274" lon="-1.66679">
        <ele>5</ele>
        <time>2026-02-28T12:07:36Z</time>
      </trkpt>
      <trkpt lat="43.38286" lon="-1.66703">
        <ele>6</ele>
        <time>2026-02-28T12:07:40Z</time>
      </trkpt>
      <trkpt lat="43.38305" lon="-1.66747">
        <ele>7</ele>
        <time>2026-02-28T12:07:46Z</time>
      </trkpt>
      <trkpt lat="43.38314" lon="-1.6676">
        <ele>7</ele>
        <time>2026-02-28T12:07:49Z</time>
      </trkpt>
      <trkpt lat="43.38344" lon="-1.66759">
        <ele>7</ele>
        <time>2026-02-28T12:07:54Z</time>
      </trkpt>
      <trkpt lat="43.38366" lon="-1.66755">
        <ele>6</ele>
        <time>2026-02-28T12:07:58Z</time>
      </trkpt>
      <trkpt lat="43.38378" lon="-1.66744">
        <ele>5</ele>
        <time>2026-02-28T12:08:01Z</time>
      </trkpt>
      <trkpt lat="43.38449" lon="-1.66646">
        <ele>4</ele>
        <time>2026-02-28T12:08:18Z</time>
      </trkpt>
      <trkpt lat="43.38446" lon="-1.66639">
        <ele>4</ele>
        <time>2026-02-28T12:08:19Z</time>
      </trkpt>
      <trkpt lat="43.38446" lon="-1.66631">
        <ele>4</ele>
        <time>2026-02-28T12:08:20Z</time>
      </trkpt>
      <trkpt lat="43.38411" lon="-1.66589">
        <ele>4</ele>
        <time>2026-02-28T12:08:29Z</time>
      </trkpt>
      <trkpt lat="43.38408" lon="-1.66568">
        <ele>4</ele>
        <time>2026-02-28T12:08:32Z</time>
      </trkpt>
      <trkpt lat="43.38416" lon="-1.66546">
        <ele>4</ele>
        <time>2026-02-28T12:08:35Z</time>
      </trkpt>
      <trkpt lat="43.38482" lon="-1.6642">
        <ele>5</ele>
        <time>2026-02-28T12:08:55Z</time>
      </trkpt>
      <trkpt lat="43.38517" lon="-1.66346">
        <ele>2</ele>
        <time>2026-02-28T12:09:06Z</time>
      </trkpt>
      <trkpt lat="43.38548" lon="-1.66274">
        <ele>3</ele>
        <time>2026-02-28T12:09:17Z</time>
      </trkpt>
      <trkpt lat="43.38558" lon="-1.6625">
        <ele>3</ele>
        <time>2026-02-28T12:09:21Z</time>
      </trkpt>
      <trkpt lat="43.38566" lon="-1.66229">
        <ele>3</ele>
        <time>2026-02-28T12:09:24Z</time>
      </trkpt>
      <trkpt lat="43.38574" lon="-1.66212">
        <ele>4</ele>
        <time>2026-02-28T12:09:26Z</time>
      </trkpt>
      <trkpt lat="43.38589" lon="-1.66194">
        <ele>4</ele>
        <time>2026-02-28T12:09:30Z</time>
      </trkpt>
      <trkpt lat="43.3859" lon="-1.66189">
        <ele>4</ele>
        <time>2026-02-28T12:09:30Z</time>
      </trkpt>
      <trkpt lat="43.38593" lon="-1.66178">
        <ele>4</ele>
        <time>2026-02-28T12:09:32Z</time>
      </trkpt>
      <trkpt lat="43.38598" lon="-1.66173">
        <ele>5</ele>
        <time>2026-02-28T12:09:33Z</time>
      </trkpt>
      <trkpt lat="43.38603" lon="-1.6617">
        <ele>5</ele>
        <time>2026-02-28T12:09:34Z</time>
      </trkpt>
      <trkpt lat="43.38609" lon="-1.6617">
        <ele>5</ele>
        <time>2026-02-28T12:09:35Z</time>
      </trkpt>
      <trkpt lat="43.38615" lon="-1.66172">
        <ele>6</ele>
        <time>2026-02-28T12:09:36Z</time>
      </trkpt>
      <trkpt lat="43.38623" lon="-1.66181">
        <ele>6</ele>
        <time>2026-02-28T12:09:38Z</time>
      </trkpt>
      <trkpt lat="43.38625" lon="-1.66195">
        <ele>5</ele>
        <time>2026-02-28T12:09:40Z</time>
      </trkpt>
      <trkpt lat="43.3863" lon="-1.66198">
        <ele>6</ele>
        <time>2026-02-28T12:09:41Z</time>
      </trkpt>
      <trkpt lat="43.38665" lon="-1.66299">
        <ele>2</ele>
        <time>2026-02-28T12:09:55Z</time>
      </trkpt>
      <trkpt lat="43.38674" lon="-1.66306">
        <ele>2</ele>
        <time>2026-02-28T12:09:57Z</time>
      </trkpt>
      <trkpt lat="43.3868" lon="-1.66306">
        <ele>2</ele>
        <time>2026-02-28T12:09:58Z</time>
      </trkpt>
      <trkpt lat="43.38685" lon="-1.66309">
        <ele>2</ele>
        <time>2026-02-28T12:09:59Z</time>
      </trkpt>
      <trkpt lat="43.38688" lon="-1.66317">
        <ele>2</ele>
        <time>2026-02-28T12:10:00Z</time>
      </trkpt>
      <trkpt lat="43.38687" lon="-1.66329">
        <ele>1</ele>
        <time>2026-02-28T12:10:02Z</time>
      </trkpt>
      <trkpt lat="43.38682" lon="-1.66334">
        <ele>1</ele>
        <time>2026-02-28T12:10:03Z</time>
      </trkpt>
      <trkpt lat="43.38678" lon="-1.66335">
        <ele>1</ele>
        <time>2026-02-28T12:10:04Z</time>
      </trkpt>
      <trkpt lat="43.3867" lon="-1.66331">
        <ele>4</ele>
        <time>2026-02-28T12:10:05Z</time>
      </trkpt>
      <trkpt lat="43.38668" lon="-1.66327">
        <ele>4</ele>
        <time>2026-02-28T12:10:06Z</time>
      </trkpt>
      <trkpt lat="43.38651" lon="-1.66328">
        <ele>4</ele>
        <time>2026-02-28T12:10:09Z</time>
      </trkpt>
      <trkpt lat="43.38646" lon="-1.66332">
        <ele>4</ele>
        <time>2026-02-28T12:10:10Z</time>
      </trkpt>
    </trkseg>
  </trk>
</gpx>